[[{"header":{"parameterUnit":"m.s-1","parameterCategory":1,"la1":31.0,"la2":29.5877,"lo1":-88.7671,"lo2":-86.6584,"dy":0.0162,"dx":0.0185,"nx":115,"ny":88,"refTime":"2023-09-06T06:00:00:Z","depth":0,"parameterNumber":2,"parameterNumberName":"U-component_of_WINDS"},"data":[0.0,0.0,0.0,0.0,0.0,0.0,0.0,0.0,0.0,0.0,0.0,0.0,0.0,0.0,0.0,0.0,0.0,0.0,0.0,0.0,0.0,0.0,0.0,0.0,0.0,0.0,0.0,0.0,0.0,0.0,0.0,0.0,0.0,0.0,0.0,0.0,0.0,0.0,0.0,0.0,0.0,0.0,0.0,0.0,0.0,0.0,0.0,0.0,0.0,0.0,0.0,0.0,0.0,0.0,0.0,0.0,0.0,0.0,0.0,0.0,0.0,0.0,0.0,0.0,0.0,0.0,0.0,0.0,0.0,0.0,0.0,0.0,0.0,0.0,0.0,0.0,0.0,0.0,0.0,0.0,0.0,0.0,0.0,0.0,0.0,0.0,0.0,0.0,0.0,0.0,0.0,0.0,0.0,0.0,0.0,0.0,0.0,0.0,0.0,0.0,0.0,0.0,0.0,0.0,0.0,0.0,0.0,0.0,0.0,0.0,0.0,0.0,0.0,0.0,0.0,0.0,0.0,0.0,0.0,0.0,0.0,0.0,0.0,0.0,0.0,0.0,0.0,0.0,0.0,0.0,0.0,0.0,0.0,0.0,0.0,0.0,0.0,0.0,0.0,0.0,0.0,0.0,0.0,0.0,0.0,0.0,0.0,0.0,0.0,0.0,0.0,0.0,0.0,0.0,0.0,0.0,0.0,0.0,0.0,0.0,0.0,0.0,0.0,0.0,0.0,0.0,0.0,0.0,0.0,0.0,0.0,0.0,0.0,0.0,0.0,0.0,0.0,0.0,0.0,0.0,0.0,0.0,0.0,0.0,0.0,0.0,0.0,0.0,0.0,0.0,0.0,0.0,0.0,0.0,0.0,0.0,0.0,0.0,0.0,0.0,0.0,0.0,0.0,0.0,0.0,0.0,0.0,0.0,0.0,0.0,0.0,0.0,0.0,0.0,0.0,0.0,0.0,0.0,0.0,0.0,0.0,0.0,0.0,0.0,0.0,0.0,0.0,0.0,0.0,0.0,0.0,0.0,0.0,0.0,0.0,0.0,0.0,0.0,0.0,0.0,0.0,0.0,0.0,0.0,0.0,0.0,0.0,0.0,0.0,0.0,0.0,0.0,0.0,0.0,0.0,0.0,0.0,0.0,0.0,0.0,0.0,0.0,0.0,0.0,0.0,0.0,0.0,0.0,0.0,0.0,0.0,0.0,0.0,0.0,0.0,0.0,0.0,0.0,0.0,0.0,0.0,0.0,0.0,0.0,0.0,0.0,0.0,0.0,0.0,0.0,0.0,0.0,0.0,0.0,0.0,0.0,0.0,0.0,0.0,0.0,0.0,0.0,0.0,0.0,0.0,0.0,0.0,0.0,0.0,0.0,0.0,0.0,0.0,0.0,0.0,0.0,0.0,0.0,0.0,0.0,0.0,0.0,0.0,0.0,0.0,0.0,0.0,0.0,0.0,0.0,0.0,0.0,0.0,0.0,0.0,0.0,0.0,0.0,0.0,0.0,0.0,0.0,0.0,0.0,0.0,0.0,0.0,0.0,0.0,0.0,0.0,0.0,0.0,0.0,0.0,0.0,0.0,0.0,0.0,0.0,0.0,0.0,0.0,0.0,0.0,0.0,0.0,0.0,0.0,0.0,0.0,0.0,0.0,0.0,0.0,0.0,0.0,0.0,0.0,0.0,0.0,0.0,0.0,0.0,0.0,0.0,0.0,0.0,0.0,0.0,0.0,0.0,0.0,0.0,0.0,0.0,0.0,0.0,0.0,0.0,0.0,0.0,0.0,0.0,0.0,0.0,0.0,0.0,0.0,0.0,0.0,0.0,0.0,0.0,0.0,0.0,0.0,0.0,0.0,0.0,0.0,0.0,0.0,0.0,0.0,0.0,0.0,0.0,0.0,0.0,0.0,0.0,0.0,0.0,0.0,0.0,0.0,0.0,0.0,0.0,0.0,0.0,0.0,0.0,0.0,0.0,0.0,0.0,0.0,0.0,0.0,0.0,0.0,0.0,0.0,0.0,0.0,0.0,0.0,0.0,0.0,0.0,0.0,0.0,0.0,0.0,0.0,0.0,0.0,0.0,0.0,0.0,0.0,0.0,0.0,0.0,0.0,0.0,0.0,0.0,0.0,0.0,0.0,0.0,0.0,0.0,0.0,0.0,0.0,0.0,0.0,0.0,0.0,0.0,0.0,0.0,0.0,0.0,0.0,0.0,0.0,0.0,0.0,0.0,0.0,0.0,0.0,0.0,0.0,0.0,0.0,0.0,0.0,0.0,0.0,0.0,0.0,0.0,0.0,0.0,0.0,0.0,0.0,0.0,0.0,0.0,0.0,0.0,0.0,0.0,0.0,0.0,0.0,0.0,0.0,0.0,0.0,0.0,0.0,0.0,0.0,0.0,0.0,0.0,0.0,0.0,0.0,0.0,0.0,0.0,0.0,0.0,0.0,0.0,0.0,0.0,0.0,0.0,0.0,0.0,0.0,0.0,0.0,0.0,0.0,0.0,0.0,0.0,0.0,0.0,0.0,0.0,0.0,0.0,0.0,0.0,0.0,0.0,0.0,0.0,0.0,0.0,0.0,0.0,0.0,0.0,0.0,0.0,0.0,0.0,0.0,0.0,0.0,0.0,0.0,0.0,0.0,0.0,0.0,0.0,0.0,0.0,0.0,0.0,0.0,0.0,0.0,0.0,0.0,0.0,0.0,0.0,0.0,0.0,0.0,0.0,0.0,0.0,0.0,0.0,0.0,0.0,0.0,0.0,0.0,0.0,0.0,0.0,0.0,0.0,0.0,0.0,0.0,0.0,0.0,0.0,0.0,0.0,0.0,0.0,0.0,0.0,0.0,0.0,0.0,0.0,0.0,0.0,0.0,0.0,0.0,0.0,0.0,0.0,0.0,0.0,0.0,0.0,0.0,0.0,0.0,0.0,0.0,0.0,0.0,0.0,0.0,0.0,0.0,0.0,0.0,0.0,0.0,0.0,0.0,0.0,0.0,0.0,0.0,0.0,0.0,0.0,0.0,0.0,0.0,0.0,0.0,0.0,0.0,0.0,0.0,0.0,0.0,0.0,0.0,0.0,0.0,0.0,0.0,0.0,0.0,0.0,0.0,0.0,0.0,0.0,0.0,0.0,0.0,0.0,0.0,0.0,0.0,0.0,0.0,0.0,0.0,0.0,0.0,0.0,0.0,0.0,0.0,0.0,0.0,0.0,0.0,0.0,0.0,0.0,0.0,0.0,0.0,0.0,0.0,0.0,0.0,0.0,0.0,0.0,0.0,0.0,0.0,0.0,0.0,0.0,0.0,0.0,0.0,0.0,0.0,0.0,0.0,0.0,0.0,0.0,0.0,0.0,0.0,0.0,0.0,0.0,0.0,0.0,0.0,0.0,0.0,0.0,0.0,0.0,0.0,0.0,0.0,0.0,0.0,0.0,0.0,0.0,0.0,0.0,0.0,0.0,0.0,0.0,0.0,0.0,0.0,0.0,0.0,0.0,0.0,0.0,0.0,0.0,0.0,0.0,0.0,0.0,0.0,0.0,0.0,0.0,0.0,0.0,0.0,0.0,0.0,0.0,0.0,0.0,0.0,0.0,0.0,0.0,0.0,0.0,0.0,0.0,0.0,0.0,0.0,0.0,0.0,0.0,0.0,0.0,0.0,0.0,0.0,0.0,0.0,0.0,0.0,0.0,0.0,0.0,0.0,0.0,0.0,0.0,0.0,0.0,0.0,0.0,0.0,0.0,0.0,0.0,0.0,0.0,0.0,0.0,0.0,0.0,0.0,0.0,0.0,0.0,0.0,0.0,0.0,0.0,0.0,0.0,0.0,0.0,0.0,0.0,0.0,0.0,0.0,0.0,0.0,0.0,0.0,0.0,0.0,0.0,0.0,0.0,0.0,0.0,0.0,0.0,0.0,0.0,0.0,0.0,0.0,0.0,0.0,0.0,0.0,0.0,0.0,0.0,0.0,0.0,0.0,0.0,0.0,0.0,0.0,0.0,0.0,0.0,0.0,0.0,0.0,0.0,0.0,0.0,0.0,0.0,0.0,0.0,0.0,0.0,0.0,0.0,0.0,0.0,0.0,0.0,0.0,0.0,0.0,0.0,0.0,0.0,0.0,0.0,0.0,0.0,0.0,0.0,0.0,0.0,0.0,0.0,0.0,0.0,0.0,0.0,0.0,0.0,0.0,0.0,0.0,0.0,0.0,0.0,0.0,0.0,0.0,0.0,0.0,0.0,0.0,0.0,0.0,0.0,0.0,0.0,0.0,0.0,2.5601,0.0,0.0,0.0,0.0,0.0,0.0,0.0,0.0,0.0,0.0,0.0,0.0,0.0,0.0,0.0,0.0,0.0,0.0,0.0,0.0,0.0,0.0,0.0,0.0,0.0,0.0,0.0,0.0,0.0,0.0,0.0,0.0,0.0,0.0,0.0,0.0,0.0,0.0,0.0,0.0,0.0,0.0,0.0,0.0,0.0,0.0,0.0,0.0,0.0,0.0,0.0,0.0,0.0,0.0,0.0,0.0,0.0,0.0,0.0,0.0,0.0,0.0,0.0,0.0,0.0,0.0,0.0,0.0,0.0,0.0,0.0,0.0,0.0,0.0,0.0,0.0,0.0,0.0,0.0,0.0,0.0,0.0,0.0,0.0,0.0,0.0,0.0,0.0,0.0,0.0,0.0,0.0,0.0,0.0,0.0,0.0,0.0,0.0,0.0,0.0,0.0,0.0,0.0,0.0,0.0,0.0,0.0,0.0,0.0,0.0,2.5601,2.5601,2.5601,2.5601,2.5601,0.0,0.0,0.0,0.0,0.0,0.0,0.0,0.0,0.0,0.0,0.0,0.0,0.0,0.0,0.0,0.0,0.0,0.0,0.0,0.0,0.0,0.0,0.0,0.0,0.0,0.0,0.0,0.0,0.0,0.0,0.0,0.0,0.0,0.0,0.0,0.0,0.0,0.0,0.0,0.0,0.0,0.0,0.0,0.0,0.0,0.0,0.0,0.0,0.0,0.0,0.0,0.0,0.0,0.0,0.0,0.0,0.0,0.0,0.0,0.0,0.0,0.0,0.0,0.0,0.0,0.0,0.0,0.0,0.0,0.0,0.0,0.0,0.0,0.0,0.0,0.0,0.0,0.0,0.0,0.0,0.0,0.0,0.0,0.0,0.0,0.0,0.0,0.0,0.0,0.0,0.0,0.0,0.0,0.0,0.0,0.0,0.0,0.0,0.0,0.0,0.0,0.0,0.0,0.0,0.0,0.0,0.0,0.0,0.0,0.0,0.0,0.0,2.5601,2.5589,2.5557,0.0,0.0,0.0,0.0,0.0,0.0,0.0,0.0,0.0,0.0,0.0,0.0,0.0,0.0,0.0,0.0,0.0,0.0,0.0,0.0,0.0,0.0,0.0,0.0,0.0,0.0,0.0,0.0,0.0,0.0,0.0,0.0,0.0,0.0,0.0,0.0,0.0,0.0,0.0,0.0,0.0,0.0,0.0,0.0,0.0,0.0,0.0,0.0,0.0,0.0,0.0,0.0,0.0,0.0,0.0,0.0,0.0,0.0,0.0,0.0,0.0,0.0,0.0,0.0,0.0,0.0,0.0,0.0,0.0,0.0,0.0,0.0,0.0,0.0,0.0,0.0,0.0,0.0,0.0,0.0,0.0,0.0,0.0,0.0,0.0,0.0,0.0,0.0,0.0,0.0,0.0,0.0,0.0,0.0,0.0,0.0,0.0,0.0,0.0,0.0,0.0,0.0,0.0,0.0,0.0,0.0,0.0,0.0,0.0,0.0,2.5601,2.5601,2.5601,0.0,2.5422,0.0,0.0,0.0,0.0,0.0,0.0,0.0,0.0,0.0,0.0,0.0,0.0,0.0,0.0,0.0,0.0,0.0,0.0,0.0,0.0,0.0,0.0,0.0,0.0,0.0,0.0,0.0,0.0,0.0,0.0,0.0,0.0,0.0,0.0,0.0,0.0,0.0,0.0,0.0,0.0,0.0,0.0,0.0,0.0,0.0,0.0,0.0,0.0,0.0,0.0,0.0,0.0,0.0,0.0,0.0,0.0,0.0,0.0,0.0,0.0,0.0,0.0,0.0,0.0,0.0,0.0,0.0,0.0,0.0,0.0,0.0,0.0,0.0,0.0,0.0,0.0,0.0,0.0,0.0,0.0,0.0,0.0,0.0,0.0,0.0,0.0,0.0,0.0,0.0,0.0,0.0,0.0,0.0,0.0,0.0,0.0,0.0,0.0,0.0,0.0,0.0,0.0,0.0,0.0,0.0,0.0,0.0,0.0,0.0,0.0,2.5601,2.5601,2.5525,2.5464,0.0,0.0,0.0,0.0,0.0,0.0,0.0,0.0,0.0,0.0,0.0,0.0,0.0,0.0,0.0,0.0,0.0,0.0,0.0,0.0,0.0,0.0,0.0,0.0,0.0,0.0,0.0,0.0,0.0,0.0,0.0,0.0,0.0,0.0,0.0,0.0,0.0,0.0,0.0,0.0,0.0,0.0,0.0,0.0,0.0,0.0,0.0,0.0,0.0,0.0,0.0,0.0,0.0,0.0,0.0,0.0,0.0,0.0,0.0,0.0,0.0,0.0,0.0,0.0,0.0,0.0,0.0,0.0,0.0,0.0,0.0,0.0,0.0,0.0,0.0,0.0,0.0,0.0,0.0,0.0,0.0,0.0,0.0,0.0,0.0,0.0,0.0,0.0,0.0,0.0,0.0,0.0,0.0,0.0,0.0,0.0,0.0,0.0,0.0,0.0,0.0,0.0,0.0,0.0,0.0,0.0,0.0,0.0,0.0,0.0,2.5601,2.5589,2.5531,2.5441,2.5365,2.532,0.0,0.0,0.0,0.0,0.0,0.0,0.0,0.0,0.0,0.0,0.0,0.0,0.0,0.0,0.0,0.0,0.0,0.0,0.0,0.0,0.0,0.0,0.0,0.0,0.0,0.0,0.0,0.0,0.0,0.0,0.0,0.0,0.0,0.0,0.0,0.0,0.0,0.0,0.0,0.0,0.0,0.0,0.0,0.0,0.0,0.0,0.0,0.0,0.0,0.0,0.0,0.0,0.0,0.0,0.0,0.0,0.0,0.0,0.0,0.0,0.0,0.0,0.0,0.0,0.0,0.0,0.0,0.0,0.0,0.0,0.0,0.0,0.0,0.0,0.0,0.0,0.0,0.0,0.0,0.0,0.0,0.0,0.0,0.0,0.0,0.0,0.0,0.0,0.0,0.0,0.0,0.0,0.0,0.0,0.0,0.0,0.0,0.0,0.0,0.0,0.0,0.0,0.0,0.0,0.0,0.0,0.0,0.0,2.5601,2.5601,2.5551,2.5422,2.533,2.5234,0.0,0.0,0.0,0.0,0.0,0.0,0.0,0.0,0.0,0.0,0.0,0.0,0.0,0.0,0.0,0.0,0.0,0.0,0.0,0.0,0.0,0.0,0.0,0.0,0.0,0.0,0.0,0.0,0.0,0.0,0.0,0.0,0.0,0.0,0.0,0.0,0.0,0.0,0.0,0.0,0.0,0.0,0.0,0.0,0.0,0.0,0.0,0.0,0.0,0.0,0.0,0.0,0.0,0.0,0.0,0.0,0.0,0.0,0.0,0.0,0.0,0.0,0.0,0.0,0.0,0.0,0.0,0.0,0.0,0.0,0.0,0.0,0.0,0.0,0.0,0.0,0.0,0.0,0.0,0.0,0.0,0.0,0.0,0.0,0.0,0.0,0.0,0.0,0.0,0.0,0.0,0.0,0.0,0.0,0.0,0.0,0.0,0.0,0.0,0.0,0.0,0.0,0.0,0.0,0.0,0.0,0.0,0.0,0.0,2.5601,2.5518,2.5434,2.5321,2.5224,2.5149,0.0,0.0,0.0,0.0,0.0,0.0,0.0,0.0,0.0,0.0,0.0,0.0,0.0,0.0,0.0,0.0,0.0,0.0,0.0,0.0,0.0,0.0,0.0,0.0,0.0,0.0,0.0,0.0,0.0,0.0,0.0,0.0,0.0,0.0,0.0,0.0,0.0,0.0,0.0,0.0,0.0,0.0,0.0,0.0,0.0,0.0,0.0,0.0,0.0,0.0,0.0,0.0,0.0,0.0,0.0,0.0,0.0,0.0,0.0,0.0,0.0,0.0,0.0,0.0,0.0,0.0,0.0,0.0,0.0,0.0,0.0,0.0,0.0,0.0,0.0,0.0,0.0,0.0,0.0,0.0,0.0,0.0,0.0,0.0,0.0,0.0,0.0,0.0,0.0,0.0,0.0,0.0,0.0,0.0,0.0,0.0,0.0,0.0,0.0,0.0,0.0,0.0,0.0,0.0,0.0,0.0,0.0,0.0,0.0,2.5544,0.0,2.5274,2.5224,2.5134,2.5063,0.0,0.0,0.0,0.0,0.0,0.0,0.0,0.0,0.0,0.0,0.0,0.0,0.0,0.0,0.0,0.0,0.0,0.0,0.0,0.0,0.0,0.0,0.0,0.0,0.0,0.0,0.0,0.0,0.0,0.0,0.0,0.0,0.0,0.0,0.0,0.0,0.0,0.0,0.0,0.0,0.0,0.0,0.0,0.0,0.0,0.0,0.0,0.0,0.0,0.0,0.0,0.0,0.0,0.0,0.0,0.0,0.0,0.0,0.0,0.0,0.0,0.0,0.0,0.0,0.0,0.0,0.0,0.0,0.0,0.0,0.0,0.0,0.0,0.0,0.0,0.0,0.0,0.0,0.0,0.0,0.0,0.0,0.0,0.0,0.0,0.0,0.0,0.0,0.0,0.0,0.0,0.0,0.0,0.0,0.0,0.0,0.0,0.0,0.0,0.0,0.0,0.0,0.0,0.0,0.0,0.0,0.0,0.0,2.5544,2.5406,2.5215,2.5115,2.5103,2.5038,2.501,0.0,0.0,0.0,0.0,0.0,0.0,0.0,0.0,0.0,0.0,0.0,0.0,0.0,0.0,0.0,0.0,0.0,0.0,0.0,0.0,0.0,0.0,0.0,0.0,0.0,0.0,0.0,0.0,0.0,0.0,0.0,0.0,0.0,0.0,0.0,0.0,0.0,0.0,0.0,0.0,0.0,0.0,0.0,0.0,0.0,0.0,0.0,0.0,0.0,0.0,0.0,0.0,0.0,0.0,0.0,0.0,0.0,0.0,0.0,0.0,0.0,0.0,0.0,0.0,0.0,0.0,0.0,0.0,0.0,0.0,0.0,0.0,0.0,0.0,0.0,0.0,0.0,0.0,0.0,0.0,0.0,0.0,0.0,0.0,0.0,0.0,0.0,0.0,0.0,0.0,0.0,0.0,0.0,0.0,0.0,0.0,0.0,0.0,0.0,0.0,0.0,0.0,0.0,0.0,0.0,0.0,0.0,0.0,0.0,2.5331,2.5179,2.5354,2.5798,2.5289,2.5262,0.0,0.0,0.0,0.0,0.0,0.0,0.0,0.0,0.0,0.0,0.0,0.0,0.0,0.0,0.0,0.0,0.0,0.0,0.0,0.0,0.0,0.0,0.0,0.0,0.0,0.0,0.0,0.0,0.0,0.0,0.0,0.0,0.0,0.0,0.0,0.0,0.0,0.0,0.0,0.0,0.0,0.0,0.0,0.0,0.0,0.0,0.0,0.0,0.0,0.0,0.0,0.0,0.0,0.0,0.0,0.0,0.0,0.0,0.0,0.0,0.0,0.0,0.0,0.0,0.0,0.0,0.0,0.0,0.0,0.0,0.0,0.0,0.0,0.0,0.0,0.0,0.0,0.0,0.0,0.0,0.0,0.0,0.0,0.0,0.0,0.0,0.0,0.0,0.0,0.0,0.0,0.0,0.0,0.0,0.0,0.0,0.0,0.0,0.0,0.0,0.0,0.0,0.0,0.0,0.0,0.0,0.0,0.0,0.0,2.6155,2.6041,2.6179,2.6586,2.6157,2.5821,2.562,0.0,0.0,0.0,0.0,0.0,0.0,0.0,0.0,0.0,0.0,0.0,0.0,0.0,0.0,0.0,0.0,0.0,0.0,0.0,0.0,0.0,0.0,0.0,0.0,0.0,0.0,0.0,0.0,0.0,0.0,0.0,0.0,0.0,0.0,0.0,0.0,0.0,0.0,0.0,0.0,0.0,0.0,0.0,0.0,0.0,0.0,0.0,0.0,0.0,0.0,0.0,0.0,0.0,0.0,0.0,0.0,0.0,0.0,0.0,0.0,0.0,0.0,0.0,0.0,0.0,0.0,0.0,0.0,0.0,0.0,0.0,0.0,0.0,0.0,0.0,0.0,0.0,0.0,0.0,0.0,0.0,0.0,0.0,0.0,0.0,0.0,0.0,0.0,0.0,0.0,0.0,0.0,0.0,0.0,0.0,0.0,0.0,0.0,0.0,0.0,0.0,0.0,0.0,0.0,0.0,0.0,0.0,0.0,2.7738,2.7755,2.7717,2.7514,2.7475,2.6635,0.0,0.0,0.0,0.0,0.0,0.0,0.0,0.0,0.0,0.0,0.0,0.0,0.0,0.0,0.0,0.0,0.0,0.0,0.0,0.0,0.0,0.0,0.0,0.0,0.0,0.0,0.0,0.0,0.0,0.0,0.0,0.0,0.0,0.0,0.0,0.0,0.0,0.0,0.0,0.0,0.0,0.0,0.0,0.0,0.0,0.0,0.0,0.0,0.0,0.0,0.0,0.0,0.0,0.0,0.0,0.0,0.0,0.0,0.0,0.0,0.0,0.0,0.0,0.0,0.0,0.0,0.0,0.0,0.0,0.0,0.0,0.0,0.0,0.0,0.0,0.0,0.0,0.0,0.0,0.0,0.0,0.0,0.0,0.0,0.0,0.0,0.0,0.0,0.0,0.0,0.0,0.0,0.0,0.0,0.0,0.0,0.0,0.0,0.0,0.0,0.0,0.0,0.0,0.0,0.0,0.0,0.0,0.0,0.0,2.9437,3.054,3.0746,2.9945,2.8284,2.733,0.0,0.0,0.0,0.0,0.0,0.0,0.0,0.0,0.0,0.0,0.0,0.0,0.0,0.0,0.0,0.0,0.0,0.0,0.0,0.0,0.0,0.0,0.0,0.0,0.0,0.0,0.0,0.0,0.0,0.0,0.0,0.0,0.0,0.0,0.0,0.0,0.0,0.0,0.0,0.0,0.0,0.0,0.0,0.0,0.0,0.0,0.0,0.0,0.0,0.0,0.0,0.0,0.0,0.0,0.0,0.0,0.0,0.0,0.0,0.0,0.0,0.0,0.0,0.0,0.0,0.0,0.0,0.0,0.0,0.0,0.0,0.0,0.0,0.0,0.0,0.0,0.0,0.0,0.0,0.0,0.0,0.0,0.0,0.0,0.0,0.0,0.0,0.0,0.0,0.0,0.0,0.0,0.0,0.0,0.0,0.0,0.0,0.0,0.0,0.0,0.0,0.0,0.0,0.0,0.0,0.0,0.0,0.0,2.9221,3.0019,3.2259,3.311,3.2402,3.0077,2.8408,0.0,0.0,0.0,0.0,0.0,0.0,0.0,0.0,0.0,0.0,0.0,0.0,0.0,0.0,0.0,0.0,0.0,0.0,0.0,0.0,0.0,0.0,0.0,0.0,0.0,0.0,0.0,0.0,0.0,0.0,0.0,0.0,0.0,0.0,0.0,0.0,0.0,0.0,0.0,0.0,0.0,0.0,0.0,0.0,0.0,0.0,0.0,0.0,0.0,0.0,0.0,0.0,0.0,0.0,0.0,0.0,0.0,0.0,0.0,0.0,0.0,0.0,0.0,0.0,0.0,0.0,0.0,0.0,0.0,0.0,0.0,0.0,0.0,0.0,0.0,0.0,0.0,0.0,0.0,0.0,0.0,0.0,0.0,0.0,0.0,0.0,0.0,0.0,0.0,0.0,0.0,0.0,0.0,0.0,0.0,0.0,0.0,0.0,0.0,0.0,0.0,0.0,0.0,0.0,0.0,0.0,0.0,0.0,3.0228,3.0201,3.3242,3.4713,3.4334,3.2103,2.9605,0.0,0.0,0.0,0.0,0.0,0.0,0.0,0.0,0.0,0.0,0.0,0.0,0.0,0.0,0.0,0.0,0.0,0.0,0.0,0.0,0.0,0.0,0.0,0.0,0.0,0.0,0.0,0.0,0.0,0.0,0.0,0.0,0.0,0.0,0.0,0.0,0.0,0.0,0.0,0.0,0.0,0.0,0.0,0.0,0.0,0.0,0.0,0.0,0.0,0.0,0.0,0.0,0.0,0.0,0.0,0.0,0.0,0.0,0.0,0.0,0.0,0.0,0.0,0.0,0.0,0.0,0.0,0.0,0.0,0.0,0.0,0.0,0.0,0.0,0.0,0.0,0.0,0.0,0.0,0.0,0.0,0.0,0.0,0.0,0.0,0.0,0.0,0.0,0.0,0.0,0.0,0.0,0.0,0.0,0.0,0.0,0.0,0.0,0.0,0.0,0.0,0.0,0.0,0.0,0.0,0.0,0.0,0.0,3.0696,3.1883,3.375,3.4626,3.4386,3.1478,2.9488,0.0,0.0,0.0,0.0,0.0,0.0,0.0,0.0,0.0,0.0,0.0,0.0,0.0,0.0,0.0,0.0,0.0,0.0,0.0,0.0,0.0,0.0,0.0,0.0,0.0,0.0,0.0,0.0,0.0,0.0,0.0,0.0,0.0,0.0,0.0,0.0,0.0,0.0,0.0,0.0,0.0,0.0,0.0,0.0,0.0,0.0,0.0,0.0,1.9909,0.0,0.0,0.0,0.0,0.0,0.0,0.0,0.0,0.0,0.0,0.0,0.0,0.0,0.0,0.0,0.0,0.0,0.0,0.0,0.0,0.0,0.0,0.0,0.0,0.0,0.0,0.0,0.0,0.0,0.0,0.0,0.0,0.0,0.0,0.0,0.0,0.0,0.0,0.0,0.0,0.0,0.0,0.0,0.0,0.0,0.0,0.0,0.0,0.0,0.0,0.0,0.0,0.0,0.0,0.0,0.0,0.0,0.0,0.0,3.0914,3.2463,3.396,3.4649,3.4345,3.1918,3.0129,0.0,0.0,0.0,0.0,0.0,0.0,0.0,0.0,0.0,0.0,0.0,0.0,0.0,0.0,0.0,0.0,0.0,0.0,0.0,0.0,0.0,0.0,0.0,0.0,0.0,0.0,0.0,0.0,0.0,0.0,0.0,0.0,0.0,0.0,0.0,0.0,0.0,0.0,0.0,0.0,0.0,0.0,0.0,0.0,0.0,0.0,0.0,0.0,0.0,0.0,0.0,0.0,0.0,0.0,0.0,0.0,0.0,0.0,0.0,0.0,0.0,0.0,0.0,0.0,0.0,0.0,0.0,0.0,0.0,0.0,0.0,0.0,0.0,0.0,0.0,0.0,0.0,0.0,0.0,0.0,0.0,0.0,0.0,0.0,0.0,0.0,0.0,0.0,0.0,0.0,0.0,0.0,0.0,0.0,0.0,0.0,0.0,0.0,0.0,0.0,0.0,0.0,0.0,0.0,0.0,0.0,0.0,2.9436,3.1097,3.2942,3.415,3.4674,3.4489,3.265,3.0868,2.9185,0.0,0.0,0.0,0.0,0.0,0.0,0.0,0.0,0.0,0.0,0.0,0.0,0.0,0.0,0.0,0.0,0.0,0.0,0.0,0.0,0.0,0.0,0.0,0.0,0.0,0.0,0.0,0.0,0.0,0.0,0.0,0.0,0.0,0.0,0.0,0.0,0.0,0.0,2.0921,2.0373,0.0,0.0,0.0,0.0,0.0,0.0,0.0,0.0,1.7768,0.0,0.0,0.0,0.0,0.0,0.0,0.0,0.0,0.0,0.0,0.0,0.0,0.0,0.0,0.0,0.0,0.0,0.0,0.0,0.0,0.0,0.0,0.0,0.0,0.0,0.0,0.0,0.0,0.0,0.0,0.0,0.0,0.0,0.0,0.0,0.0,0.0,0.0,0.0,0.0,0.0,0.0,0.0,0.0,0.0,0.0,0.0,0.0,0.0,0.0,0.0,0.0,0.0,0.0,0.0,0.0,2.965,3.0027,3.1645,3.4598,3.4641,3.4612,3.4451,3.26,3.0775,2.9226,0.0,0.0,0.0,0.0,0.0,0.0,0.0,0.0,0.0,0.0,0.0,0.0,0.0,0.0,0.0,0.0,0.0,0.0,0.0,0.0,0.0,0.0,0.0,0.0,0.0,0.0,0.0,0.0,0.0,0.0,0.0,0.0,0.0,0.0,0.0,0.0,0.0,0.0,0.0,1.979,1.9223,0.0,0.0,0.0,0.0,0.0,0.0,0.0,0.0,1.7677,0.0,0.0,0.0,0.0,0.0,0.0,0.0,0.0,0.0,0.0,0.0,0.0,0.0,0.0,0.0,0.0,0.0,0.0,0.0,0.0,0.0,0.0,0.0,0.0,0.0,0.0,0.0,0.0,0.0,0.0,0.0,0.0,0.0,0.0,0.0,0.0,0.0,0.0,0.0,0.0,0.0,0.0,0.0,0.0,0.0,0.0,0.0,0.0,0.0,0.0,0.0,0.0,0.0,0.0,0.0,3.0143,3.1057,3.2707,3.5095,3.4889,3.4694,3.4615,3.2511,3.065,0.0,0.0,0.0,0.0,0.0,0.0,0.0,0.0,0.0,0.0,0.0,0.0,0.0,0.0,0.0,0.0,0.0,0.0,0.0,0.0,0.0,0.0,0.0,0.0,0.0,0.0,0.0,0.0,0.0,0.0,0.0,0.0,0.0,0.0,0.0,0.0,0.0,0.0,0.0,0.0,1.9922,1.9489,1.9901,0.0,0.0,0.0,0.0,0.0,0.0,1.6884,1.6753,0.0,0.0,0.0,0.0,0.0,0.0,0.0,0.0,0.0,0.0,0.0,0.0,0.0,0.0,0.0,0.0,0.0,0.0,0.0,0.0,0.0,0.0,0.0,0.0,0.0,0.0,0.0,0.0,0.0,0.0,0.0,0.0,0.0,0.0,0.0,0.0,0.0,0.0,0.0,0.0,0.0,0.0,0.0,0.0,0.0,0.0,0.0,0.0,0.0,0.0,0.0,0.0,0.0,0.0,0.0,3.0364,3.1916,3.3536,3.5139,3.4963,3.4753,3.4555,3.2225,3.0367,0.0,0.0,0.0,0.0,0.0,0.0,0.0,0.0,0.0,0.0,0.0,0.0,0.0,0.0,0.0,0.0,0.0,0.0,0.0,0.0,0.0,0.0,0.0,0.0,0.0,0.0,0.0,0.0,0.0,0.0,0.0,0.0,0.0,0.0,0.0,0.0,0.0,0.0,0.0,0.0,0.0,1.9538,1.9887,1.887,0.0,0.0,0.0,0.0,1.5879,1.6204,0.0,0.0,0.0,0.0,0.0,0.0,0.0,0.0,0.0,0.0,0.0,0.0,0.0,0.0,0.0,0.0,0.0,0.0,0.0,0.0,0.0,0.0,0.0,0.0,0.0,0.0,0.0,0.0,0.0,0.0,0.0,0.0,0.0,0.0,0.0,0.0,0.0,0.0,0.0,0.0,0.0,0.0,0.0,0.0,0.0,0.0,0.0,0.0,0.0,0.0,0.0,0.0,0.0,0.0,0.0,0.0,3.0287,3.193,3.3521,3.4956,3.4945,3.4574,3.3895,3.1458,2.9867,0.0,0.0,0.0,0.0,0.0,0.0,0.0,0.0,0.0,0.0,0.0,0.0,0.0,0.0,0.0,0.0,0.0,0.0,0.0,0.0,0.0,0.0,0.0,0.0,0.0,0.0,0.0,0.0,0.0,0.0,0.0,0.0,0.0,0.0,0.0,0.0,0.0,0.0,0.0,0.0,0.0,1.8269,1.8051,1.78,1.7242,0.0,0.0,1.7312,1.6823,1.75,0.0,0.0,0.0,0.0,0.0,0.0,0.0,0.0,0.0,0.0,0.0,0.0,0.0,0.0,0.0,0.0,0.0,0.0,0.0,0.0,0.0,0.0,0.0,0.0,0.0,0.0,0.0,0.0,0.0,0.0,0.0,0.0,0.0,0.0,0.0,0.0,0.0,0.0,0.0,0.0,0.0,0.0,0.0,0.0,0.0,0.0,0.0,0.0,0.0,0.0,0.0,0.0,0.0,0.0,0.0,2.9341,3.0279,3.261,3.4149,3.4851,3.4752,3.4379,3.3813,3.1151,2.9611,0.0,0.0,0.0,0.0,0.0,0.0,0.0,0.0,0.0,0.0,0.0,0.0,0.0,0.0,0.0,0.0,0.0,0.0,0.0,0.0,0.0,0.0,0.0,0.0,0.0,0.0,0.0,0.0,0.0,0.0,0.0,0.0,0.0,0.0,0.0,0.0,0.0,0.0,0.0,0.0,0.0,0.0,1.7897,1.7137,0.0,0.0,0.0,1.5594,1.4861,0.0,0.0,0.0,0.0,0.0,0.0,0.0,0.0,0.0,0.0,0.0,0.0,0.0,0.0,0.0,0.0,0.0,0.0,0.0,0.0,0.0,0.0,0.0,0.0,0.0,0.0,0.0,0.0,0.0,0.0,0.0,0.0,0.0,0.0,0.0,0.0,0.0,0.0,0.0,0.0,0.0,0.0,0.0,0.0,0.0,0.0,0.0,0.0,0.0,0.0,0.0,0.0,0.0,0.0,0.0,0.0,0.0,3.0188,3.3072,3.4632,3.4732,3.4583,3.4213,3.3587,3.132,0.0,0.0,0.0,0.0,0.0,0.0,0.0,0.0,0.0,0.0,0.0,0.0,0.0,0.0,0.0,0.0,0.0,0.0,0.0,0.0,0.0,0.0,0.0,0.0,0.0,0.0,0.0,1.9478,0.0,0.0,0.0,0.0,0.0,0.0,0.0,0.0,0.0,0.0,0.0,0.0,0.0,0.0,1.7569,1.7445,1.644,1.5624,0.0,0.0,1.4026,1.358,1.4657,1.5052,0.0,0.0,0.0,0.0,0.0,0.0,0.0,0.0,0.0,0.0,0.0,0.0,0.0,0.0,0.0,0.0,0.0,0.0,0.0,0.0,0.0,0.0,0.0,0.0,0.0,0.0,0.0,0.0,0.0,0.0,0.0,0.0,0.0,0.0,0.0,0.0,0.0,0.0,0.0,0.0,0.0,0.0,0.0,0.0,0.0,0.0,0.0,0.0,0.0,0.0,0.0,0.0,0.0,0.0,2.9918,3.0106,3.2977,3.4505,3.4498,3.4517,3.4025,3.3064,3.2205,3.1008,0.0,0.0,0.0,0.0,0.0,0.0,0.0,0.0,0.0,0.0,0.0,0.0,0.0,0.0,0.0,0.0,0.0,0.0,0.0,0.0,0.0,0.0,0.0,0.0,0.0,0.0,0.0,0.0,0.0,0.0,0.0,0.0,0.0,0.0,0.0,0.0,0.0,0.0,0.0,0.0,0.0,1.7269,1.5756,1.5409,1.5348,0.0,1.4365,1.3718,1.4389,1.5292,1.5266,1.3247,0.0,0.0,0.0,0.0,0.0,0.0,0.0,0.0,0.0,0.0,0.0,0.0,0.0,0.0,0.0,0.0,0.0,0.0,0.0,0.0,0.0,0.0,0.0,0.0,0.0,0.0,0.0,0.0,0.0,0.0,0.0,0.0,0.0,0.0,0.0,0.0,0.0,0.0,0.0,0.0,0.0,0.0,0.0,0.0,0.0,0.0,0.0,0.0,0.0,0.0,0.0,0.0,0.0,2.957,2.9533,3.2605,3.4018,3.3733,3.4012,3.368,3.2601,3.2076,3.1026,0.0,0.0,0.0,0.0,0.0,0.0,0.0,0.0,0.0,0.0,0.0,0.0,0.0,0.0,0.0,0.0,0.0,0.0,0.0,0.0,0.0,0.0,0.0,0.0,0.0,0.0,0.0,0.0,1.9495,1.9239,1.8558,0.0,0.0,0.0,0.0,0.0,0.0,0.0,0.0,0.0,0.0,1.5407,1.5609,1.4988,0.0,0.0,1.313,1.2708,1.1929,1.2844,1.3087,1.154,1.184,0.0,0.0,0.0,0.0,0.0,0.0,0.0,0.0,0.0,0.0,0.0,0.0,0.0,0.0,0.0,0.0,0.0,0.0,0.0,0.0,0.0,0.0,0.0,0.0,0.0,0.0,0.0,0.0,0.0,0.0,0.0,0.0,0.0,0.0,0.0,0.0,0.0,0.0,0.0,0.0,0.0,0.0,0.0,0.0,0.0,0.0,0.0,0.0,0.0,0.0,0.0,0.0,2.9502,2.9487,3.2217,3.3504,3.3214,3.3532,3.3266,3.2453,3.2104,3.1173,0.0,0.0,0.0,0.0,0.0,0.0,0.0,0.0,0.0,0.0,0.0,0.0,0.0,0.0,0.0,0.0,0.0,0.0,0.0,0.0,0.0,0.0,0.0,0.0,0.0,0.0,0.0,0.0,1.8982,1.8592,1.8205,0.0,0.0,0.0,0.0,0.0,0.0,0.0,0.0,0.0,0.0,1.4519,1.4872,1.4025,1.305,1.2289,1.1847,1.1293,1.0337,1.1056,1.1375,1.0388,0.0,0.0,0.0,0.0,0.0,0.0,0.0,0.0,0.0,0.0,0.0,0.0,0.0,0.0,0.0,0.0,0.0,0.0,0.0,0.0,0.0,0.0,0.0,0.0,0.0,0.0,0.0,0.0,0.0,0.0,2.4534,0.0,0.0,0.0,0.0,0.0,0.0,0.0,0.0,0.0,0.0,0.0,0.0,0.0,0.0,0.0,0.0,0.0,0.0,0.0,0.0,0.0,0.0,2.9887,3.0092,3.1903,3.2952,3.3184,3.3027,3.2858,3.2669,3.2468,3.169,3.0173,0.0,0.0,0.0,0.0,0.0,0.0,0.0,0.0,0.0,0.0,0.0,0.0,0.0,0.0,0.0,0.0,0.0,0.0,0.0,0.0,0.0,0.0,0.0,0.0,0.0,0.0,1.6854,1.6672,1.6807,0.0,0.0,0.0,0.0,0.0,0.0,0.0,0.0,0.0,0.0,1.4777,1.5043,1.3325,1.2498,1.2096,1.2197,1.059,0.9519,1.0207,1.0625,1.0662,0.0,0.0,0.0,0.0,0.0,0.0,0.0,0.0,0.0,0.0,0.0,0.0,0.0,0.0,0.0,0.0,0.0,0.0,0.0,0.0,0.0,0.0,0.0,0.0,0.0,0.0,0.0,2.5725,2.5662,0.0,0.0,0.0,0.0,0.0,0.0,0.0,0.0,0.0,0.0,0.0,2.8448,2.891,0.0,0.0,0.0,0.0,0.0,0.0,0.0,0.0,0.0,0.0,0.0,0.0,2.9846,3.0056,3.2014,3.289,3.2619,3.2777,3.2666,3.2109,3.2039,3.1261,2.9649,0.0,0.0,0.0,0.0,0.0,0.0,0.0,0.0,0.0,0.0,0.0,0.0,0.0,0.0,0.0,0.0,0.0,0.0,0.0,0.0,0.0,0.0,0.0,0.0,0.0,1.635,0.0,0.0,0.0,0.0,0.0,0.0,0.0,0.0,0.0,0.0,0.0,1.3792,1.3455,1.3033,1.2619,1.2128,1.1655,1.0982,0.0,0.0,0.0,0.0,0.0,0.0,0.0,0.0,0.0,0.0,0.0,0.0,0.0,0.0,1.2004,1.2126,1.2175,1.2182,1.2366,0.0,0.0,0.0,0.0,0.0,0.0,0.0,0.0,0.0,0.0,0.0,0.0,0.0,0.0,2.67,0.0,2.576,0.0,0.0,0.0,0.0,0.0,0.0,0.0,0.0,2.7964,2.8746,2.9379,2.9713,2.9693,0.0,2.9115,2.8611,0.0,0.0,0.0,0.0,0.0,0.0,0.0,0.0,2.9998,3.0125,3.1912,3.2702,3.2352,3.2519,3.2437,3.1984,3.164,3.093,2.9838,2.8796,2.7981,0.0,0.0,0.0,0.0,0.0,0.0,0.0,0.0,0.0,0.0,0.0,0.0,0.0,0.0,0.0,0.0,0.0,0.0,0.0,0.0,0.0,0.0,0.0,1.5589,0.0,0.0,0.0,0.0,0.0,0.0,0.0,0.0,0.0,1.3067,1.3139,1.3072,1.27,1.195,1.1277,1.077,0.0,0.0,0.0,0.0,0.0,0.0,0.0,0.894,0.9067,0.9681,1.054,1.1477,1.2254,1.2792,1.284,0.0,0.0,1.2181,1.1976,1.1848,1.1629,1.1328,1.0857,1.0053,0.9968,0.9845,0.0,0.0,0.0,0.0,0.0,0.0,0.0,0.0,2.9429,2.7936,0.0,2.7677,0.0,0.0,0.0,0.0,0.0,2.7299,0.0,0.0,3.1072,3.162,3.0644,3.0609,3.0392,2.9985,2.9306,2.9079,2.9227,2.9315,0.0,0.0,0.0,0.0,0.0,0.0,3.0305,3.0384,3.1679,3.2318,3.2283,3.2161,3.2126,3.2214,3.13,3.0788,3.073,2.9526,2.8806,2.8773,2.7061,0.0,0.0,0.0,0.0,0.0,0.0,0.0,0.0,0.0,0.0,0.0,0.0,0.0,0.0,0.0,0.0,0.0,0.0,0.0,0.0,1.6186,0.0,0.0,0.0,0.0,0.0,0.0,0.0,0.0,0.0,0.0,1.2896,1.3101,1.281,1.1487,0.0,0.0,0.0,0.0,0.8497,0.7637,0.7296,0.7193,0.7192,0.8401,0.9531,1.0195,0.0,0.0,1.2954,1.3057,1.3142,1.3053,1.3889,1.3849,1.171,1.1583,1.1333,1.0216,1.0363,1.0284,0.9518,0.9535,0.9514,3.3458,0.0,0.0,0.0,0.0,3.22,3.2517,3.3096,3.0932,3.0042,3.0084,2.876,0.0,0.0,0.0,0.0,0.0,0.0,2.8281,2.9311,2.9799,3.0415,3.1165,3.1049,3.0852,3.048,3.0279,3.0218,3.0297,3.059,3.0108,2.893,0.0,0.0,0.0,0.0,3.0718,3.1283,3.1958,3.2266,3.2179,3.1965,3.1674,3.1261,3.0948,3.0601,3.0189,2.9778,2.9324,2.8806,2.7928,0.0,0.0,0.0,0.0,0.0,0.0,0.0,0.0,0.0,0.0,0.0,0.0,0.0,0.0,0.0,0.0,0.0,0.0,0.0,1.5569,1.5497,1.5071,0.0,0.0,0.0,0.0,0.0,0.0,0.0,0.0,0.0,1.1352,1.1367,1.1185,0.0,0.0,0.8783,0.8037,0.7982,0.7816,0.737,0.7502,0.0,0.8645,0.9138,0.9774,1.0761,1.2146,1.323,1.333,1.4096,1.4612,1.4388,1.4598,1.4345,1.325,1.2593,1.2079,1.1133,1.0486,1.012,0.9645,0.9538,0.9567,3.5647,3.4849,3.3593,3.3414,3.3988,3.3877,3.4258,3.4936,3.3799,3.2727,3.1653,3.0556,2.9384,2.82,2.8025,0.0,0.0,0.0,2.9036,3.0281,3.0191,3.056,3.1317,3.1196,3.0975,3.0609,3.0626,3.0757,3.0982,3.0972,3.0628,2.9937,0.0,0.0,3.0004,3.0659,3.1146,3.1515,3.21,3.2335,3.2126,3.1965,3.1617,3.1044,3.0885,3.0559,3.0103,2.9946,2.9604,2.895,2.8205,2.7174,0.0,0.0,0.0,0.0,0.0,0.0,0.0,0.0,0.0,0.0,0.0,1.8462,1.6696,0.0,0.0,0.0,1.6506,1.6012,1.4978,1.4888,0.0,0.0,0.0,0.0,0.0,0.0,0.0,1.166,1.1682,1.1585,1.1059,1.0788,1.0432,0.9913,0.8884,0.8117,0.8015,0.0,0.8106,0.7843,0.8281,0.882,0.9095,0.9835,1.0766,1.186,1.2975,1.367,1.3754,1.4362,1.4765,1.4604,1.4457,1.4044,1.3165,1.2833,1.2413,1.1514,1.0545,0.9866,0.9762,0.9762,0.9705,3.7577,3.7381,3.4505,3.4097,3.5364,3.54,3.581,3.6559,3.7253,3.5493,3.2081,3.2616,3.1296,2.8574,2.8206,0.0,3.0179,2.9747,3.0315,3.164,3.1603,3.1483,3.1258,3.1134,3.0845,3.0468,3.051,3.0821,3.1325,3.0881,3.0907,3.1356,3.142,3.1093,3.0582,3.1225,3.1466,3.1196,3.2013,3.2334,3.2073,3.209,3.1856,3.1295,3.0965,3.0642,3.0309,3.006,2.9665,2.915,2.8077,2.724,2.6642,0.0,0.0,0.0,0.0,0.0,0.0,0.0,0.0,0.0,0.0,0.0,0.0,0.0,0.0,1.7977,1.7368,0.0,1.4979,1.4569,0.0,0.0,0.0,1.2274,1.2732,1.2298,1.1862,1.1809,0.0,0.0,1.1597,1.108,1.0455,0.9524,0.9007,0.8737,0.8792,0.9025,0.907,0.8864,0.9509,0.9764,0.9435,1.0683,1.2165,1.315,1.377,1.3982,1.3975,1.404,1.4033,1.4026,1.374,1.3345,1.2412,1.2516,1.233,1.1539,1.0557,0.9882,1.0062,1.0125,0.9986,3.7577,3.7559,3.6809,3.6684,3.7006,3.7023,3.7131,3.7345,3.7524,3.6378,3.4329,3.3357,3.2485,3.1778,3.1698,3.1685,3.1722,3.1322,3.1185,3.1223,3.0925,3.0757,3.0692,3.0675,3.0593,3.0526,3.0821,3.1027,3.1184,3.165,3.1636,3.1225,3.1483,3.1266,3.0547,3.0587,3.084,3.1179,3.1269,3.1498,3.1875,3.1856,3.1709,3.1295,3.0965,3.0625,3.0309,3.006,2.9814,2.971,2.8685,2.7839,2.7197,2.5593,0.0,0.0,0.0,0.0,0.0,0.0,0.0,0.0,0.0,1.8471,1.6642,0.0,1.6973,0.0,1.6605,1.6315,1.6201,1.5359,0.0,0.0,1.3336,1.2934,1.2885,1.2791,1.2558,1.2158,1.2211,1.2047,1.1451,1.1222,1.1037,1.0663,1.0033,0.9661,0.9849,1.0062,1.0131,1.0107,1.0524,1.0978,1.1376,1.2339,1.3158,1.3477,1.377,1.3982,1.3982,1.4201,1.4275,1.404,1.3931,1.379,1.3522,1.2893,1.2322,1.2185,1.1653,1.1117,1.0898,1.0824,1.0616,3.7577,3.7577,3.7577,3.7577,3.7577,3.7577,3.7577,3.7613,3.7596,3.688,3.5667,3.412,3.3247,3.2884,3.2705,3.2539,3.2283,3.1877,3.1582,3.1338,3.0982,3.0673,3.0499,3.0485,3.0468,3.051,3.0885,3.1184,3.1376,3.202,3.2158,3.1883,3.2048,3.1689,3.0924,3.0526,3.0406,3.0668,3.075,3.1131,3.1765,3.18,3.1479,3.0819,3.0533,3.0049,2.9354,2.9039,2.8801,2.857,2.7826,2.7126,2.648,2.5121,2.41,0.0,0.0,0.0,0.0,0.0,0.0,0.0,0.0,0.0,0.0,0.0,1.7211,1.6208,1.6734,1.6797,1.5855,1.5341,1.4693,1.3843,1.3477,1.3268,1.3172,1.3263,1.3302,1.3122,1.3064,1.2934,1.305,1.2828,1.2718,1.2924,1.2556,1.1992,1.1336,1.1268,1.1313,1.1326,1.1794,1.2318,1.2815,1.3228,1.3492,1.3506,1.3645,1.3762,1.3762,1.3792,1.3755,1.3579,1.3281,1.3035,1.3035,1.2514,1.2071,1.2117,1.2106,1.1678,1.1003,1.0845,1.0581,3.7577,3.7577,3.7577,3.7577,3.7577,3.7577,3.7577,3.7613,3.7614,3.7077,3.6149,3.4722,3.3651,3.2884,3.2539,3.2386,3.2352,3.1932,3.1787,3.1768,3.1338,3.0937,3.0516,3.0573,3.0675,3.0658,3.1083,3.1414,3.1787,3.2197,3.2502,3.2741,3.2563,3.2057,3.1264,3.0592,3.0145,2.9951,3.0421,3.1007,3.1627,3.1558,3.107,3.0179,2.9846,2.9204,2.8207,2.7891,2.7467,2.6988,2.6539,2.6104,2.5574,2.448,2.3811,0.0,2.2558,0.0,0.0,0.0,0.0,0.0,0.0,0.0,0.0,1.8817,1.7832,1.6026,1.7306,1.7419,1.5305,1.5223,1.5047,1.4405,1.397,1.3707,1.3837,1.3863,1.4,1.4418,1.3905,1.4049,1.4958,1.4743,1.464,1.4958,1.4925,1.434,1.3063,1.2611,1.2545,1.2519,1.3046,1.3346,1.3564,1.363,1.3615,1.363,1.3652,1.3564,1.3514,1.323,1.3026,1.2933,1.2508,1.2026,1.1957,1.1891,1.1806,1.1847,1.1985,1.1783,1.097,1.075,1.0576,3.7577,3.7577,3.7577,3.7577,3.7577,3.7577,3.7577,3.7577,3.7595,3.6791,3.54,3.449,3.3651,3.2902,3.282,3.277,3.277,3.2386,3.2197,3.2162,3.175,3.1199,3.0571,3.1158,3.147,3.149,3.1877,3.2091,3.2197,3.2588,3.2481,3.1938,3.1714,3.1246,3.0521,0.0,0.0,0.0,3.0352,3.0766,3.0871,3.0283,2.9834,2.9609,2.9309,0.0,2.8498,2.8001,2.7615,2.7301,2.6658,0.0,0.0,0.0,0.0,0.0,0.0,0.0,0.0,0.0,0.0,0.0,2.0763,2.027,1.9785,1.9329,1.8594,1.7441,1.7407,1.7455,1.7398,1.6861,1.6519,1.6381,1.5991,1.567,1.5542,1.4919,1.4641,1.4982,1.449,1.4403,1.5108,1.511,1.5068,1.5234,1.5196,1.5054,1.4689,1.4186,1.3905,1.3905,1.371,1.371,1.4065,1.4132,1.4181,1.4171,1.4129,1.3992,1.363,1.323,1.2947,1.2947,1.2535,1.2263,1.2256,1.1997,1.1872,1.1726,1.1598,1.1397,1.144,1.1508,1.1228,3.7984,0.0,3.7984,3.7984,0.0,3.7967,3.7951,3.7951,3.7685,3.6863,3.5561,3.4936,3.424,3.3455,3.3062,3.2916,3.2884,3.2672,3.2606,3.2555,3.2162,3.1898,3.167,3.1681,3.1797,3.2004,3.2125,3.2127,3.2073,3.2438,3.2393,3.2004,3.1806,3.1563,3.1212,3.0924,3.056,3.011,3.0473,3.0871,3.1185,3.0854,3.0472,3.011,2.9757,0.0,0.0,0.0,0.0,0.0,0.0,0.0,0.0,2.5574,0.0,2.5043,2.4339,2.3754,2.3285,2.3027,2.2648,2.1968,2.1427,2.0902,2.0321,1.9817,1.9369,1.885,1.8455,1.8071,1.7726,1.7413,1.6872,1.6324,1.6105,1.5965,1.5621,1.5275,1.5213,1.5488,1.5092,1.5076,1.5895,1.5782,1.5817,1.6026,1.6053,1.6053,1.5982,1.5267,1.4768,1.4776,1.4511,1.4455,1.4705,1.4711,1.467,1.4657,1.4625,1.4418,1.4137,1.392,1.3768,1.3695,1.3397,1.3171,1.3091,1.2891,1.2625,1.2604,1.2487,1.2377,1.2485,1.1935,1.1291,3.8382,3.8382,3.8382,3.8382,3.8368,3.834,3.8256,3.8223,0.0,0.0,0.0,3.5717,3.5019,3.416,3.3416,3.3041,3.2916,3.2916,3.2884,3.2787,3.2588,3.263,3.2844,3.2231,3.205,3.2286,3.2105,3.1985,3.1893,3.2144,3.2283,3.2283,3.2161,3.2073,3.2054,3.1873,3.1526,3.1027,3.0801,3.0974,3.1567,3.1476,3.111,3.0506,3.0223,2.9533,2.8455,2.8017,2.7574,2.7078,2.6585,2.6321,2.6284,2.5606,2.5135,2.5052,2.4629,2.4277,2.3888,2.3956,2.3594,2.2567,2.2123,2.1487,2.0734,2.0275,2.0019,1.9933,1.9528,1.8911,1.7949,1.7745,1.7276,1.6254,1.6254,1.6105,1.5692,1.57,1.5912,1.6132,1.5718,1.5718,1.6691,1.648,1.6453,1.6941,1.6968,1.7047,1.6908,1.6114,1.5275,1.507,1.4944,1.5145,1.5229,1.5205,1.5146,1.5021,1.5054,1.4911,1.4633,1.4569,1.4497,1.4346,1.4194,1.3897,1.3897,1.3593,1.3528,1.3455,1.3521,1.3512,1.336,1.2412,1.152,3.8382,3.8382,3.8382,3.8368,3.8289,3.8289,3.8256,3.8153,3.8189,3.7612,3.6609,3.6775,3.5978,3.4509,3.41,3.3559,3.2916,3.2916,3.2705,3.242,3.2961,3.314,3.2913,3.2781,3.259,3.2284,3.2266,3.2249,3.2214,3.2283,3.2283,3.2283,3.2161,3.2001,3.1837,3.18,3.1888,3.2066,3.1163,3.0764,3.0862,3.0177,2.9782,2.9679,2.9591,2.9346,2.8901,2.819,2.7656,2.7358,2.6748,2.6652,2.7183,2.6625,2.6337,2.6399,2.5925,2.5425,2.4827,2.4346,2.3807,2.3065,2.2604,2.1877,2.0991,2.078,2.059,2.0139,1.9966,1.9901,1.9694,1.9177,1.8721,1.8519,1.824,1.7833,1.7245,1.701,1.6853,1.6821,1.629,1.6228,1.6848,1.6881,1.7148,1.7638,1.7588,1.7539,1.7529,1.6751,1.5771,1.5117,1.495,1.5108,1.5542,1.5492,1.5536,1.5409,1.5497,1.5417,1.4927,1.4625,1.441,1.4194,1.4114,1.3818,1.3753,1.3535,1.3673,1.3745,1.3732,1.3645,1.36,1.3013,1.2601,3.8884,3.8961,3.8815,3.8713,3.8652,3.8609,3.8515,3.8433,3.8546,3.8164,3.7449,3.7189,3.6608,3.5874,3.5295,3.4853,3.4474,3.4042,3.3732,3.352,3.3252,3.314,3.3128,3.2781,3.2385,3.2039,3.2162,3.2126,3.2037,3.202,3.2002,3.2037,3.1948,3.1965,3.2055,3.2055,3.2159,3.2291,3.1629,3.1386,3.1556,3.0952,3.0623,3.0623,3.0585,3.0326,2.9895,2.9523,2.9124,2.871,2.8158,2.7983,2.8249,2.7552,2.7119,2.7152,2.6643,2.5966,2.5272,2.4292,2.3662,2.3471,2.2871,2.231,2.1865,2.1253,2.078,2.0537,2.0267,2.0051,1.9835,1.9539,1.9274,1.9054,1.8911,1.8643,1.8385,1.823,1.8085,1.8066,1.7849,1.7767,1.8008,1.8046,1.8046,1.824,1.7988,1.7872,1.8008,1.7529,1.7028,1.6664,1.6551,1.663,1.683,1.6844,1.6844,1.6718,1.67,1.656,1.6158,1.5929,1.5816,1.5816,1.5666,1.5666,1.5604,1.5525,1.5313,1.4895,1.4768,1.4625,1.425,1.3765,1.3331,3.9324,3.9452,3.9156,3.9026,3.8968,3.8822,3.875,3.8689,3.875,3.8559,3.8212,3.7649,3.7303,3.7053,3.6372,3.596,3.5724,3.5144,3.4824,3.4659,3.4006,3.3472,3.3102,3.2976,3.2895,3.2617,3.2722,3.2685,3.2468,3.2449,3.2345,3.2189,3.2015,3.2091,3.2403,3.2352,3.2354,3.2367,3.2014,3.1977,3.211,3.1774,3.1579,3.1579,3.1483,3.1235,3.0788,3.0625,3.0377,2.9968,2.9467,2.9123,2.9009,2.8225,2.7695,2.7399,2.6943,2.6292,2.5384,2.4363,2.3793,2.3826,2.3207,2.2798,2.2725,2.1882,2.1311,2.1227,2.0842,2.0501,2.0333,1.9922,1.9584,1.9431,1.9299,1.9166,1.9044,1.911,1.9177,1.9085,1.8975,1.8957,1.8983,1.8916,1.8829,1.8757,1.8721,1.8731,1.8731,1.8731,1.8777,1.8607,1.8271,1.7812,1.7872,1.7765,1.7716,1.7684,1.7558,1.7382,1.7273,1.7314,1.7314,1.7157,1.7235,1.7088,1.7166,1.7097,1.6742,1.6193,1.5981,1.5811,1.5166,1.484,1.4186,3.9551,3.942,3.9219,3.9036,3.8822,3.875,3.8738,3.8689,3.8689,3.8707,3.8609,3.8609,3.8168,3.7473,3.708,3.6499,3.5828,3.5665,3.5453,3.5277,3.5721,3.4576,3.2484,3.4261,3.5199,3.49,3.4848,3.4553,3.4284,3.4318,3.4002,3.3265,3.2582,3.2456,3.2719,3.2472,3.2458,3.2633,3.2266,3.1944,3.1679,3.1631,3.1559,3.15,3.1389,3.1295,3.1201,3.0764,3.0518,3.0393,2.9777,2.9277,2.8948,2.8568,2.7932,2.7095,2.6819,2.6208,2.5189,2.4948,2.462,2.4099,2.3675,2.339,2.3318,2.2786,2.2457,2.2359,2.1996,2.1847,2.2187,2.0985,2.0344,2.0579,2.0279,1.9781,1.9309,1.9562,1.977,1.9034,1.9183,1.9019,1.9166,1.8979,1.8982,1.953,2.0085,2.042,2.0484,2.0666,2.0782,2.0333,1.9177,1.793,1.7774,1.751,1.7745,1.7674,1.7499,1.7569,1.7599,1.7482,1.7373,1.751,1.7304,1.7304,1.7176,1.6978,1.6978,1.6788,1.6634,1.6509,1.6263,1.5929,1.5251,3.9575,3.9502,3.9395,3.9183,3.895,3.9017,3.8921,3.8707,3.8822,3.8822,3.8707,3.8719,3.8517,3.8193,3.8052,3.7807,3.7442,3.6967,3.6687,3.649,3.6164,3.5398,3.4663,3.5026,3.599,3.7014,3.5892,3.515,3.4995,3.48,3.4605,3.4411,3.3719,3.3651,3.4122,3.3776,3.367,3.3999,3.3776,3.3506,3.3231,3.2231,3.1726,3.1651,3.1406,3.1252,3.1196,3.0918,3.0716,3.0675,2.9995,2.9569,2.946,2.8951,2.8517,2.8048,2.74,2.6755,2.6068,2.5687,2.53,2.4921,2.4694,2.4523,2.439,2.4158,2.3922,2.3572,2.2805,2.2408,2.2543,2.1951,2.1604,2.1678,2.1262,2.0816,2.0677,2.0613,2.0484,2.0042,2.0466,2.0683,2.0366,2.0287,2.0456,2.0707,2.1049,2.1071,2.1123,2.125,2.125,2.0996,2.0074,1.9607,1.9486,1.9607,1.9341,1.8957,1.8782,1.8747,1.8152,1.8027,1.8066,1.7998,1.7988,1.793,1.794,1.7725,1.7657,1.7273,1.6219,1.5811,1.566,1.5483,1.4974,3.9647,3.9623,3.9452,3.9272,3.9082,3.9245,3.9129,3.8892,3.9017,3.896,3.8792,3.8762,3.875,3.8707,3.8707,3.8707,3.8615,3.8083,3.7826,3.7753,3.6918,3.668,3.688,3.6439,3.7022,3.8183,3.7018,3.6049,3.5791,3.5115,3.5008,3.5172,3.4703,3.4689,3.5169,3.4854,3.4765,3.4902,3.4854,3.4727,3.4386,3.3293,3.2553,3.2366,3.1981,3.1759,3.1719,3.1539,3.1416,3.1391,3.0789,3.0337,3.0037,2.9587,2.9155,2.8841,2.8112,2.7449,2.7019,2.6375,2.5877,2.5563,2.5398,2.5203,2.5032,2.498,2.4838,2.4469,2.3728,2.3234,2.2884,2.2653,2.2519,2.2482,2.1951,2.1714,2.1788,2.1588,2.1336,2.1169,2.1603,2.2009,2.1416,2.1346,2.1479,2.1479,2.1376,2.1325,2.1388,2.1463,2.1463,2.14,2.1187,2.0985,2.0996,2.0602,2.0464,2.0194,1.9759,1.9528,1.9029,1.8972,1.8875,1.8931,1.8875,1.8808,1.8664,1.8529,1.8269,1.7501,1.6733,1.6097,1.5992,1.5587,1.5471,3.9973,3.9758,3.9452,3.9298,3.9279,3.9324,3.9298,3.9219,3.9272,3.9165,3.8989,3.8989,3.8862,3.8689,3.8707,3.8707,3.8707,3.8615,3.856,3.8579,3.8475,3.853,3.8566,3.8566,3.8554,3.8682,3.8431,3.7929,3.7274,3.5941,3.5352,3.5688,3.5385,3.5275,3.5498,3.5482,3.5341,3.5225,3.5155,3.5013,3.487,3.4746,3.4364,3.3899,3.3461,3.3144,3.2907,3.2854,3.2784,3.2597,3.2229,3.1703,3.0757,3.044,2.9835,2.8914,2.8545,2.8207,2.765,2.7041,2.6453,2.5863,2.5467,2.5061,2.5118,2.5102,2.5032,2.4921,2.4778,2.439,2.3585,2.298,2.2653,2.2848,2.2482,2.2247,2.2185,2.2123,2.2123,2.2059,2.2079,2.2009,2.1643,2.1602,2.1643,2.1616,2.1628,2.1702,2.1987,2.2061,2.2123,2.2061,2.1987,2.1776,2.0858,2.0805,2.0534,2.0158,2.0213,2.0031,2.0042,2.0009,1.9889,1.9791,1.9528,1.9396,1.9309,1.9044,1.8721,1.8385,1.8375,1.7881,1.6811,1.7373,1.7028,3.9951,3.9826,3.9599,3.9502,3.9502,3.9623,3.9526,3.9324,3.9383,3.9324,3.9156,3.9073,3.8902,3.8652,3.8652,3.867,3.8707,3.8707,3.8707,3.8707,3.8707,3.8707,3.8707,3.8707,3.8707,3.8707,3.8707,3.8546,3.8234,3.7433,3.7238,3.7412,3.6845,3.6613,3.6826,3.6541,3.6374,3.6484,3.641,3.6429,3.6486,3.6355,3.6089,3.5824,3.4587,3.3704,3.3262,3.31,3.284,3.2471,3.2259,3.1908,3.1528,3.0916,3.0344,2.9672,2.9106,2.859,2.8204,2.791,2.7429,2.673,2.6481,2.6082,2.5715,2.5564,2.5453,2.5218,2.5149,2.4817,2.4359,2.405,2.3897,2.3649,2.3113,2.2702,2.2543,2.2297,2.2087,2.1851,2.1804,2.1883,2.2235,2.2137,2.1975,2.1975,2.1975,2.2111,2.2235,2.2482,2.2604,2.2359,2.2347,2.2261,2.1788,2.16,2.1353,2.0814,2.059,2.0231,2.0158,1.9966,1.9824,1.9846,1.9781,1.966,1.9452,1.9253,1.8998,1.8813,1.888,1.8539,1.7773,1.7657,1.7088,3.9889,3.9889,3.9777,3.967,3.967,3.9804,3.9693,3.9452,3.9526,3.9452,3.9272,3.9192,3.897,3.8646,3.8585,3.8541,3.8515,3.8515,3.8515,3.8533,3.8515,3.8583,3.8651,3.8614,3.8627,3.8658,3.8564,3.8433,3.8303,3.8034,3.7966,3.7931,3.7559,3.745,3.7541,3.7281,3.7261,3.7354,3.7261,3.7281,3.7466,3.7241,3.7066,3.6869,3.5801,3.4852,3.427,3.3893,3.3539,3.3146,3.285,3.2547,3.2208,3.1243,3.0521,3.028,2.9482,2.8936,2.8716,2.8525,2.8107,2.758,2.7327,2.6967,2.6457,2.6275,2.5976,2.5755,2.5452,2.5177,2.5012,2.5024,2.4878,2.4234,2.3564,2.316,2.3138,2.2689,2.2482,2.2543,2.2543,2.2714,2.3021,2.2922,2.2787,2.2653,2.2653,2.2653,2.258,2.2702,2.2811,2.2396,2.2396,2.2347,2.2111,2.1925,2.1957,2.1526,2.1288,2.0854,2.0516,2.0256,1.9998,1.9955,1.9835,1.9715,1.9594,1.9396,1.9166,1.8971,1.887,1.8596,1.7988,1.7432,1.6941,3.9889,3.9889,3.9889,3.9826,3.9781,3.9804,3.9758,3.9689,3.9689,3.957,3.942,3.9395,3.911,3.8707,3.8676,3.846,3.8201,3.8168,3.8168,3.8135,3.8135,3.8325,3.8615,3.8488,3.8515,3.8658,3.8318,3.7948,3.7721,3.7685,3.745,3.7048,3.7541,3.7631,3.7334,3.7631,3.7739,3.7577,3.7429,3.7374,3.7374,3.7297,3.7203,3.7108,3.6929,3.6486,3.5831,3.5346,3.4885,3.4589,3.4186,3.3693,3.2768,3.1483,3.0545,3.0477,2.9779,2.9369,2.9213,2.8716,2.8352,2.8061,2.775,2.7399,2.7122,2.6842,2.6612,2.6463,2.6062,2.5702,2.5689,2.555,2.5188,2.4408,2.38,2.3623,2.3767,2.3484,2.3346,2.3752,2.379,2.4001,2.4072,2.3744,2.3484,2.3352,2.3255,2.3135,2.2859,2.2738,2.2665,2.2543,2.2506,2.2482,2.2371,2.2209,2.2205,2.2139,2.2035,2.1779,2.1634,2.1369,2.091,2.0741,2.0096,1.9911,1.9594,1.9396,1.9156,1.8982,1.8824,1.8643,1.8104,1.756,1.7285,3.9826,3.9826,3.98,3.9777,3.9717,3.9735,3.9712,3.9689,3.9703,3.9693,3.9607,3.9558,3.9309,3.9017,3.896,3.8628,3.8135,3.8101,3.8101,3.8101,3.8101,3.8153,3.8223,3.8219,3.8318,3.8446,3.8387,3.8323,3.8267,3.8168,3.8034,3.7931,3.7846,3.781,3.7703,3.7721,3.7631,3.7503,3.7429,3.7392,3.7334,3.7203,3.7147,3.7091,3.7048,3.6851,3.6444,3.581,3.5253,3.4673,3.4218,3.3818,3.3275,3.2459,3.167,3.1099,3.0353,2.9642,2.9231,2.8982,2.8559,2.8158,2.7864,2.7434,2.6931,2.6784,2.6683,2.6623,2.6429,2.6369,2.6332,2.6073,2.5578,2.4721,2.4478,2.4176,2.4073,2.3897,2.3878,2.3988,2.3878,2.3748,2.3645,2.3469,2.3185,2.3135,2.2962,2.2745,2.2652,2.2932,2.2702,2.2408,2.2543,2.2726,2.2653,2.2531,2.2543,2.243,2.2345,2.2273,2.2286,2.2151,2.1753,2.1123,2.0549,2.0042,1.9726,1.9386,1.909,1.9013,1.8911,1.8586,1.8104,1.7774,1.7501,3.9781,3.9758,3.9712,3.9708,3.9703,3.9703,3.9703,3.9661,3.965,3.9669,3.9645,3.962,3.9388,3.9129,3.897,3.8579,3.8135,3.7966,3.7915,3.7897,3.7915,3.7931,3.791,3.792,3.8041,3.8281,3.8382,3.835,3.8322,3.8368,3.8416,3.8363,3.8078,3.8061,3.8151,3.7774,3.7466,3.7374,3.7337,3.7261,3.7203,3.7126,3.7048,3.6987,3.6908,3.6748,3.6544,3.5958,3.5362,3.4721,3.4136,3.3697,3.3578,3.283,3.2033,3.1242,3.0465,2.9674,2.8967,2.8811,2.8653,2.8204,2.8091,2.7894,2.7384,2.7225,2.6988,2.713,2.6805,2.6651,2.6553,2.6365,2.5865,2.523,2.4765,2.4478,2.4189,2.4305,2.4337,2.4323,2.4079,2.3903,2.3664,2.3489,2.3292,2.3348,2.3377,2.3405,2.342,2.3577,2.3292,2.3065,2.3138,2.3198,2.2992,2.2871,2.2811,2.2702,2.258,2.2494,2.2457,2.2372,2.2149,2.125,2.0537,1.9966,1.9594,1.9142,1.8787,1.8865,1.8798,1.8395,1.7988,1.792,1.7716,3.9758,3.9689,3.9708,3.9703,3.9693,3.9693,3.9669,3.9602,3.962,3.962,3.962,3.962,3.9432,3.9129,3.8923,3.8579,3.8153,3.8077,3.7954,3.7864,3.781,3.7775,3.7684,3.7659,3.7832,3.808,3.8212,3.8062,3.7756,3.8,3.8345,3.8267,3.7971,3.8079,3.8235,3.7767,3.7374,3.7317,3.7185,3.7091,3.7108,3.7009,3.6926,3.6742,3.6684,3.6544,3.6276,3.5783,3.5333,3.488,3.3953,3.3511,3.338,3.2762,3.1961,3.1027,3.0223,2.9474,2.8755,2.8523,2.8396,2.8299,2.8299,2.8378,2.8217,2.7743,2.7573,2.7754,2.713,2.6651,2.6637,2.6466,2.6122,2.566,2.5048,2.4536,2.4305,2.4721,2.4921,2.4741,2.4584,2.4523,2.4337,2.4247,2.4434,2.4667,2.4754,2.473,2.4894,2.4509,2.4523,2.4189,2.3675,2.3433,2.3157,2.2823,2.2702,2.2604,2.2531,2.2519,2.2433,2.2347,2.2223,2.1376,2.0473,1.9966,1.9452,1.8931,1.8539,1.8472,1.8337,1.8076,1.793,1.7862,1.7725,3.9722,3.9698,3.965,3.9626,3.962,3.962,3.9602,3.962,3.962,3.9596,3.962,3.962,3.9508,3.9458,3.9362,3.9027,3.8627,3.8915,3.8903,3.8506,3.8487,3.8131,3.7703,3.7614,3.772,3.7899,3.7774,3.7642,3.7596,3.7468,3.7498,3.7696,3.755,3.7423,3.7453,3.7479,3.7241,3.7009,3.7069,3.7069,3.7009,3.6886,3.6766,3.6702,3.6502,3.6318,3.6062,3.5532,3.493,3.4382,3.3729,3.3366,3.3298,3.2926,3.23,3.1497,3.0658,2.9898,2.9166,2.8593,2.833,2.8118,2.8103,2.8069,2.7855,2.7715,2.7635,2.7665,2.739,2.7208,2.7115,2.6797,2.6365,2.5893,2.5453,2.5131,2.5131,2.5411,2.5619,2.5548,2.548,2.5354,2.524,2.5077,2.5051,2.516,2.4997,2.4832,2.4995,2.4751,2.4421,2.4131,2.3767,2.3559,2.3238,2.2847,2.2604,2.2469,2.2407,2.2345,2.2259,2.2073,2.18,2.1325,2.0279,1.9573,1.911,1.8586,1.8395,1.8202,1.8076,1.794,1.7794,1.7716,1.7588,3.9669,3.9669,3.9602,3.962,3.962,3.962,3.962,3.9614,3.9602,3.9539,3.9502,3.9488,3.9425,3.9376,3.9237,3.8906,3.8554,3.9097,3.9121,3.8827,3.8857,3.8431,3.7917,3.7953,3.8025,3.7576,3.7488,3.7341,3.7238,3.7277,3.747,3.7598,3.7567,3.7527,3.758,3.7365,3.7223,3.6992,3.7048,3.7048,3.6987,3.6823,3.6643,3.6502,3.6318,3.6062,3.58,3.5367,3.4835,3.43,3.371,3.3324,3.3272,3.2905,3.2287,3.1546,3.0677,2.9852,2.9057,2.8419,2.802,2.7905,2.784,2.774,2.7625,2.7545,2.7515,2.7485,2.7444,2.7401,2.7262,2.6922,2.6525,2.6204,2.5948,2.5798,2.5688,2.5784,2.5826,2.5772,2.5675,2.5645,2.5536,2.5256,2.5227,2.5231,2.4998,2.5011,2.5107,2.4654,2.4421,2.4305,2.4086,2.3846,2.3644,2.3292,2.2665,2.2469,2.213,2.213,2.2035,2.1835,2.1686,2.1262,2.015,1.9365,1.9034,1.871,1.8317,1.8124,1.793,1.7803,1.7657,1.7579,1.7451,3.9669,3.962,3.962,3.962,3.962,3.962,3.9577,3.9571,3.9582,3.9474,3.9309,3.9258,3.9183,3.9072,3.8876,3.8536,3.8414,3.901,3.9081,3.9174,3.9349,3.9159,3.8272,3.8707,3.8435,3.76,3.7405,3.7087,3.6961,3.7428,3.7626,3.7539,3.7755,3.7883,3.7619,3.7408,3.722,3.7031,3.7009,3.6987,3.6908,3.6725,3.6502,3.6276,3.6062,3.5844,3.5622,3.5321,3.5011,3.4643,3.388,3.355,3.3356,3.2765,3.2089,3.1249,3.0473,2.9614,2.8816,2.8171,2.7625,2.7625,2.7625,2.756,2.756,2.7494,2.7399,2.7303,2.7225,2.7233,2.7144,2.6803,2.6578,2.6472,2.6404,2.6258,2.6056,2.6002,2.5877,2.5602,2.5577,2.5394,2.5159,2.4928,2.49,2.5508,2.5301,2.5204,2.5231,2.4964,2.4892,2.5018,2.4677,2.4229,2.3982,2.376,2.3042,2.2469,2.2001,2.1835,2.1785,2.1675,2.1663,2.1198,2.0355,1.9759,1.942,1.9034,1.8375,1.792,1.7666,1.7539,1.747,1.7451,1.7382,3.9703,3.962,3.962,3.962,3.962,3.962,3.9527,3.9406,3.9548,3.9386,3.9156,3.8934,3.8943,3.9082,3.8826,3.8823,3.9101,3.9572,3.9991,4.0441,4.1156,4.0593,3.9533,3.9349,3.8902,3.817,3.7201,3.6876,3.6898,3.6508,3.6397,3.6828,3.7002,3.6869,3.6835,3.7031,3.7009,3.6869,3.6908,3.6851,3.6725,3.6502,3.6276,3.6045,3.58,3.5667,3.5639,3.5475,3.54,3.5118,3.4512,3.3745,3.3345,3.2851,3.2293,3.1543,3.0413,2.9597,2.9229,2.8293,2.7575,2.7575,2.7575,2.7524,2.7437,2.7401,2.7321,2.7255,2.7211,2.7122,2.7041,2.6884,2.6712,2.6712,2.6659,2.6592,2.6621,2.6568,2.6472,2.6472,2.6365,2.6365,2.6026,2.5827,2.5753,2.5811,2.5592,2.5453,2.5327,2.5118,2.5131,2.5145,2.4791,2.4319,2.4124,2.3702,2.2857,2.2211,2.1701,2.1335,2.129,2.1348,2.1285,2.1019,2.056,2.0096,1.9617,1.8967,1.8327,1.7862,1.7461,1.7392,1.7323,1.7314,1.689,3.9703,3.9717,4.004,4.0159,4.0215,4.0476,4.0349,3.9869,3.9491,3.9231,3.9007,3.8773,3.8781,3.8892,3.878,3.8889,3.932,4.0027,4.0446,4.0831,4.1534,4.1363,4.0552,3.9996,3.9569,3.84,3.7207,3.6655,3.6327,3.6249,3.618,3.6087,3.6414,3.6405,3.5993,3.6291,3.6291,3.6241,3.6367,3.6409,3.6301,3.6233,3.5932,3.5711,3.5532,3.5424,3.488,3.4991,3.4833,3.4512,3.412,3.3725,3.3248,3.2617,3.2083,3.1592,3.0458,2.9654,2.928,2.836,2.7488,2.7488,2.7437,2.7386,2.7335,2.7233,2.7203,2.71,2.7026,2.6966,2.6884,2.6832,2.6779,2.6779,2.6659,2.6606,2.6539,2.6539,2.6553,2.6515,2.6354,2.6236,2.6139,2.6079,2.5903,2.5619,2.5342,2.5201,2.5145,2.5005,2.4948,2.4905,2.4607,2.4323,2.416,2.356,2.2563,2.1844,2.1238,2.0823,2.0627,2.0722,2.0786,2.0646,2.0571,2.0031,1.9562,1.8921,1.8192,1.752,1.7116,1.7107,1.7107,1.7116,1.6394,3.9736,3.9981,4.0397,4.064,4.084,4.1118,4.0812,4.0216,3.9468,3.9047,3.887,3.875,3.8701,3.8726,3.8829,3.8969,3.9542,4.0288,4.0881,4.1022,4.1584,4.1396,4.0784,4.0282,3.947,3.784,3.7224,3.6609,3.638,3.6254,3.6045,3.5717,3.6134,3.6062,3.5475,3.5644,3.5907,3.5941,3.6114,3.6139,3.6054,3.6045,3.5756,3.5458,3.5458,3.5131,3.456,3.4415,3.4235,3.3479,3.3287,3.3233,3.2994,3.2373,3.1524,3.148,3.0313,2.9669,2.9301,2.8323,2.7401,2.7386,2.7284,2.7181,2.7167,2.7086,2.7019,2.6967,2.6907,2.6794,2.6727,2.6659,2.6659,2.6606,2.6365,2.6244,2.6244,2.6229,2.6179,2.6221,2.6153,2.6004,2.584,2.5715,2.5564,2.5411,2.5201,2.4975,2.4989,2.4919,2.4862,2.4536,2.4292,2.3682,2.3416,2.3231,2.2235,2.1634,2.0884,2.0573,2.0303,2.0346,2.0529,2.0722,2.0582,1.9977,1.9441,1.8844,1.8114,1.7245,1.6908,1.6978,1.6978,1.6908,1.6044,4.0104,4.056,3.9851,3.9941,4.0464,3.9918,3.9574,3.9219,3.9235,3.8951,3.8768,3.8689,3.8707,3.881,3.9217,3.977,4.0366,4.1047,4.1315,4.1297,4.1578,4.1311,4.0641,3.9796,3.8761,3.799,3.7436,3.723,3.6719,3.6174,3.5763,3.5844,3.5695,3.5325,3.5429,3.581,3.5881,3.5793,3.6028,3.6114,3.5985,3.5854,3.565,3.5287,3.5304,3.4944,3.4464,3.4268,3.4003,3.3443,3.2841,3.2591,3.2515,3.2261,3.1936,3.1369,3.0313,2.9525,2.9292,2.8174,2.7469,2.7284,2.7167,2.713,2.7026,2.7011,2.6945,2.6855,2.6765,2.6674,2.6404,2.6418,2.6258,2.615,2.6056,2.6002,2.5934,2.5784,2.5771,2.5868,2.584,2.5771,2.5633,2.5549,2.556,2.5543,2.5453,2.5216,2.5051,2.4926,2.4801,2.4403,2.393,2.3195,2.2506,2.2392,2.1897,2.146,2.0896,2.0618,2.0347,2.0172,2.0281,2.0324,2.0183,1.9715,1.9177,1.871,1.8046,1.7176,1.6978,1.6908,1.6839,1.6769,1.6044,4.0409,4.0766,4.0549,4.0477,4.0468,4.0344,3.996,3.9612,3.9914,3.9583,3.8921,3.8726,3.8964,3.92,3.9179,3.9766,4.063,4.1349,4.1358,4.1192,4.1077,4.0891,4.0232,3.9268,3.8183,3.7379,3.7094,3.6861,3.6395,3.5711,3.5333,3.5178,3.4944,3.4754,3.4706,3.4833,3.5098,3.5144,3.5299,3.5345,3.5237,3.5178,3.4991,3.4625,3.4593,3.4185,3.3407,3.3407,3.3039,3.2461,3.212,3.1972,3.1967,3.1926,3.1796,3.1315,3.0272,2.9471,2.9139,2.8083,2.7189,2.7107,2.7026,2.6974,2.6937,2.687,2.6884,2.6794,2.6587,2.6504,2.6297,2.619,2.6042,2.5893,2.5798,2.5688,2.5633,2.5411,2.5383,2.548,2.5453,2.541,2.5324,2.5361,2.552,2.5639,2.567,2.5491,2.5275,2.4989,2.4845,2.4164,2.359,2.296,2.219,2.1914,2.177,2.1366,2.0826,2.0544,2.0205,1.9975,1.9768,1.9715,1.9518,1.9243,1.8844,1.8307,1.7706,1.7107,1.6978,1.6908,1.6778,1.6491,1.5771,4.0734,4.0734,4.0952,4.0799,4.0436,4.0621,4.0357,4.0025,4.0296,3.9798,3.8872,3.9006,3.9378,3.9549,3.9536,3.9722,4.0531,4.1095,4.0823,4.0358,4.0235,4.0084,3.9603,3.8858,3.7698,3.6362,3.6248,3.5963,3.5707,3.5211,3.493,3.4818,3.4578,3.4349,3.4184,3.4317,3.4034,3.4084,3.4184,3.4234,3.425,3.4284,3.4168,3.3578,3.3783,3.3355,3.2563,3.2547,3.2327,3.1853,3.1582,3.1509,3.1482,3.1482,3.1482,3.123,3.0116,2.955,2.8926,2.7948,2.7003,2.6951,2.6884,2.6832,2.6846,2.6779,2.6779,2.6703,2.6508,2.6252,2.6071,2.5948,2.5784,2.5619,2.5522,2.5369,2.53,2.5188,2.5118,2.5089,2.5046,2.5293,2.5439,2.5428,2.5638,2.598,2.6009,2.5902,2.5595,2.5166,2.4758,2.3923,2.3294,2.271,2.2151,2.161,2.1551,2.1395,2.0819,2.0296,1.9945,1.9653,1.9467,1.9245,1.8844,1.8576,1.824,1.8037,1.7569,1.7176,1.6978,1.6908,1.6839,1.636,1.5655,4.1025,4.0384,3.9581,3.9549,3.9956,3.9399,3.9013,3.8958,3.9087,3.8891,3.8731,3.9763,3.9768,3.9446,3.9846,4.019,4.0411,4.0386,4.0036,3.9466,3.9385,3.9164,3.8655,3.7905,3.6835,3.5681,3.5396,3.5594,3.5407,3.4897,3.4754,3.4738,3.4366,3.4101,3.4101,3.4168,3.4496,3.4496,3.4593,3.4561,3.4333,3.4152,3.3935,3.3767,3.3511,3.3093,3.2398,3.2342,3.2064,3.1582,3.1467,3.1467,3.1467,3.1351,3.1352,3.0938,3.0182,2.9277,2.8851,2.7774,2.6951,2.6899,2.6779,2.6779,2.6727,2.6712,2.6659,2.6383,2.6252,2.6089,2.5785,2.5605,2.5425,2.53,2.5174,2.5131,2.5075,2.5377,2.5222,2.5336,2.5474,2.5745,2.5959,2.5813,2.5808,2.6163,2.639,2.6233,2.5769,2.5215,2.4417,2.3521,2.305,2.2567,2.2056,2.16,2.137,2.1391,2.0816,2.0197,1.9796,1.9524,1.9087,1.8831,1.8398,1.8056,1.7774,1.7569,1.7373,1.7176,1.6978,1.6908,1.6908,1.6219,1.5309,4.1533,4.0829,3.9866,3.9399,3.9271,3.8866,3.8658,3.8609,3.8682,3.8632,3.8519,3.8598,3.8726,3.9075,4.0115,4.0436,4.0058,3.9863,3.9294,3.8545,3.8377,3.8168,3.7547,3.6836,3.5841,3.5417,3.488,3.4643,3.4738,3.4706,3.4529,3.4415,3.4218,3.405,3.4,3.4034,3.4018,3.3968,3.3933,3.3882,3.3781,3.3575,3.3298,3.3108,3.2803,3.2437,3.212,3.191,3.1811,3.1539,3.1467,3.1437,3.1422,3.1321,3.1264,3.0925,2.9807,2.9116,2.8785,2.7608,2.7059,2.6846,2.6779,2.6712,2.6578,2.6534,2.6375,2.6125,2.5938,2.5716,2.5522,2.5313,2.5188,2.5061,2.5005,2.5059,2.5154,2.5439,2.5575,2.5734,2.5917,2.6181,2.6478,2.6569,2.6516,2.6645,2.6757,2.653,2.5717,2.4703,2.3833,2.2873,2.2616,2.2418,2.2002,2.1532,2.1243,2.1144,2.0941,2.0263,1.9788,1.9374,1.8913,1.8368,1.7877,1.7555,1.7351,1.7235,1.7107,1.7038,1.6908,1.6691,1.6464,1.548,1.4489,4.2481,4.1714,4.0239,3.935,3.897,3.897,3.9017,3.9081,3.8725,3.878,3.8798,3.8492,3.8634,3.9277,4.0308,4.0186,3.9132,3.9255,3.8518,3.7767,3.7342,3.7188,3.6827,3.6144,3.5446,3.5243,3.4707,3.4366,3.4234,3.425,3.4234,3.405,3.4084,3.3949,3.3848,3.3745,3.3642,3.3555,3.345,3.3361,3.3203,3.2935,3.2648,3.2358,3.2038,3.1769,3.1524,3.1524,3.1539,3.1539,3.1467,3.1379,3.1334,3.119,3.0925,3.0441,2.9444,2.8773,2.8309,2.7486,2.691,2.6779,2.6659,2.6539,2.6351,2.625,2.6076,2.5798,2.5661,2.5549,2.5354,2.5131,2.5075,2.5005,2.5005,2.5086,2.5263,2.5643,2.595,2.6158,2.638,2.6748,2.6983,2.7298,2.7367,2.7326,2.7144,2.6732,2.5652,2.4365,2.3628,2.2806,2.241,2.2291,2.2029,2.1586,2.1261,2.0897,2.07,2.039,1.9919,1.9214,1.8499,1.7999,1.7571,1.7459,1.7478,1.7153,1.6908,1.6821,1.6673,1.6306,1.5737,1.4752,1.3673,4.405,4.299,4.0033,3.914,3.9607,3.9644,3.9981,4.0115,3.9003,3.9327,4.0129,4.0199,4.0169,4.0672,4.0044,3.9467,3.8316,3.8299,3.7573,3.6741,3.6114,3.6327,3.6178,3.574,3.4981,3.4475,3.4333,3.4317,3.4184,3.405,3.405,3.3949,3.3949,3.3848,3.3694,3.3591,3.345,3.3361,3.3309,3.3165,3.2951,3.2664,3.2342,3.2038,3.1754,3.1524,3.1467,3.1467,3.1467,3.1467,3.1409,3.1263,3.1203,3.1014,3.0676,3.0028,2.9271,2.8545,2.7923,2.7355,2.6895,2.6712,2.6525,2.6365,2.6136,2.5988,2.5784,2.5536,2.5423,2.531,2.5172,2.5005,2.5005,2.5046,2.5141,2.5385,2.5615,2.5937,2.6289,2.6539,2.6816,2.7117,2.6956,2.7129,2.7206,2.7142,2.6206,2.577,2.5073,2.4002,2.3546,2.297,2.2392,2.2136,2.2051,2.1621,2.1196,2.0752,2.0432,2.0249,2.0024,1.9203,1.8378,1.8276,1.8046,1.7779,1.7487,1.7117,1.6866,1.6754,1.6428,1.5852,1.4942,1.3833,1.2806,4.3065,4.1661,3.9926,3.9396,3.9619,3.9619,3.9513,3.941,3.9686,3.977,3.9904,3.967,3.9234,3.8952,3.9344,3.8647,3.7488,3.7335,3.6802,3.6239,3.58,3.5707,3.5559,3.5185,3.4446,3.4006,3.407,3.4068,3.3848,3.3899,3.3745,3.3745,3.3797,3.3761,3.3607,3.345,3.3346,3.3293,3.3256,3.3165,3.2874,3.2554,3.2302,3.1981,3.1712,3.1524,3.1467,3.1467,3.1467,3.1394,3.1336,3.1175,3.1072,3.0881,3.0382,2.9719,2.9063,2.8371,2.7723,2.7142,2.6741,2.6486,2.6351,2.6176,2.5893,2.5728,2.5508,2.5342,2.5186,2.5129,2.5032,2.5005,2.5018,2.51,2.5303,2.5602,2.605,2.641,2.6756,2.7023,2.716,2.7339,2.7129,2.682,2.6888,2.6782,2.5779,2.4767,2.4192,2.361,2.3191,2.2692,2.2143,2.1686,2.1568,2.1312,2.1063,2.0605,2.013,1.9974,1.9788,1.9235,1.8598,1.8559,1.8248,1.7632,1.7243,1.7019,1.6628,1.6199,1.578,1.5325,1.4219,1.2973,1.2157,4.3178,4.1812,4.0992,4.0209,3.9626,3.9589,3.9358,3.9182,3.9979,4.0239,3.9598,3.9326,3.8684,3.812,3.8396,3.8145,3.7178,3.6835,3.6435,3.5904,3.5362,3.5068,3.4785,3.4382,3.3969,3.3662,3.3694,3.3694,3.3745,3.3694,3.3642,3.3591,3.3642,3.3607,3.3503,3.3361,3.3309,3.3293,3.3203,3.3043,3.2749,3.2444,3.2135,3.1868,3.1582,3.1524,3.1467,3.1467,3.1394,3.1278,3.1219,3.0999,3.0852,3.0661,3.0207,2.9562,2.8887,2.8349,2.7559,2.6992,2.6539,2.6351,2.6111,2.5853,2.5619,2.5439,2.5231,2.5104,2.5018,2.5005,2.5005,2.5005,2.5208,2.5344,2.5561,2.5887,2.6532,2.6985,2.7265,2.7605,2.7563,2.7446,2.6587,2.6131,2.5618,2.5594,2.5134,2.4264,2.3706,2.3128,2.2681,2.2176,2.1665,2.1272,2.0944,2.0625,2.0282,2.0117,1.9769,1.964,1.9358,1.8903,1.8431,1.8188,1.7813,1.7312,1.6851,1.6368,1.5889,1.5493,1.4872,1.4124,1.3215,1.2022,1.1713,4.4909,4.4178,4.3196,4.1487,3.9597,3.9506,3.9728,3.9876,3.9716,3.9675,3.9681,3.9363,3.9112,3.8828,3.8415,3.7677,3.678,3.6574,3.6299,3.5576,3.4991,3.4625,3.435,3.3968,3.3594,3.3431,3.3511,3.3658,3.3642,3.3658,3.3555,3.3503,3.3503,3.3435,3.3293,3.3309,3.3309,3.324,3.3043,3.2703,3.2459,3.2181,3.1925,3.164,3.1524,3.1467,3.1467,3.1394,3.1336,3.1234,3.0999,3.0837,3.0778,3.0644,3.0075,2.9015,2.8803,2.8046,2.6953,2.6515,2.6258,2.6136,2.5853,2.5605,2.5439,2.5244,2.5034,2.5005,2.5005,2.5005,2.5005,2.5046,2.5303,2.5571,2.5788,2.6275,2.6843,2.712,2.7313,2.7288,2.7446,2.7339,2.6214,2.53,2.4527,2.4227,2.412,2.3768,2.3161,2.2832,2.2421,2.1727,2.1232,2.1017,2.062,1.9874,1.95,1.9347,1.9332,1.9209,1.8967,1.8475,1.8074,1.7764,1.7432,1.6976,1.6324,1.561,1.5025,1.4373,1.3395,1.2572,1.1793,1.136,1.1198,4.3886,4.2503,4.1705,4.0618,3.9494,3.9422,3.9295,3.8883,3.8331,3.775,3.7342,3.7501,3.7342,3.7009,3.7219,3.6888,3.6081,3.592,3.5633,3.5278,3.4675,3.4562,3.428,3.3793,3.3366,3.3335,3.345,3.3466,3.3414,3.345,3.345,3.3346,3.3361,3.3346,3.3256,3.3203,3.3065,3.2971,3.2749,3.2404,3.219,3.2,3.1811,3.1524,3.1467,3.1467,3.1467,3.1351,3.1234,3.119,3.0881,3.0732,3.0703,3.0628,3.0189,2.9276,2.8855,2.7668,2.6583,2.5948,2.5812,2.5702,2.5592,2.5383,2.5201,2.5075,2.5005,2.5005,2.5005,2.5005,2.5005,2.5005,2.5206,2.563,2.5961,2.6505,2.701,2.6883,2.6915,2.6665,2.6704,2.6025,2.5039,2.4434,2.3709,2.3435,2.3382,2.3154,2.2627,2.2632,2.2304,2.1471,2.0918,2.0646,2.0328,1.9907,1.9498,1.9426,1.9097,1.8817,1.8448,1.7836,1.7516,1.7162,1.697,1.6659,1.5705,1.4691,1.3913,1.3127,1.2472,1.2026,1.1583,1.1285,1.1192,4.3157,4.2049,4.1179,4.0384,3.9661,3.912,3.8472,3.7793,3.7114,3.644,3.6188,3.6571,3.6426,3.6008,3.6108,3.6088,3.5404,3.5211,3.5258,3.4899,3.4382,3.428,3.4108,3.3698,3.3361,3.3293,3.3293,3.3309,3.3309,3.3309,3.3293,3.3309,3.3219,3.315,3.3112,3.2989,3.2897,3.278,3.2514,3.2185,3.2034,3.189,3.1697,3.1524,3.1467,3.1467,3.1482,3.1366,3.1176,3.1073,3.0895,3.0687,3.0642,3.0539,3.0182,2.9428,2.8283,2.7142,2.6063,2.5647,2.555,2.5369,2.5313,2.5257,2.5075,2.5005,2.5005,2.5005,2.5005,2.5005,2.5005,2.5005,2.5118,2.5539,2.576,2.6294,2.6556,2.6458,2.6221,2.5971,2.5783,2.4872,2.4108,2.3503,2.3013,2.2822,2.2705,2.2413,2.2232,2.2244,2.215,2.1432,2.0771,2.0606,2.0411,2.0282,1.9859,1.9439,1.8955,1.8354,1.7644,1.7037,1.6763,1.6433,1.5898,1.5258,1.467,1.3866,1.3329,1.2719,1.2147,1.1741,1.1446,1.1303,1.1154,4.2882,4.2736,4.1787,4.0955,4.011,3.8599,3.7555,3.7013,3.6291,3.6266,3.6808,3.6209,3.5969,3.6069,3.6104,3.5785,3.5157,3.4706,3.4658,3.4464,3.3901,3.4008,3.3918,3.3525,3.315,3.3187,3.3187,3.3081,3.324,3.3134,3.3134,3.3134,3.2935,3.2881,3.2827,3.2788,3.271,3.253,3.2252,3.1974,3.1862,3.1672,3.1597,3.1467,3.1467,3.1467,3.1409,3.1249,3.1132,3.0955,3.0762,3.0702,3.0642,3.0642,2.9968,2.8961,2.7591,2.6651,2.5675,2.5439,2.5313,2.5131,2.5075,2.5005,2.5005,2.5005,2.5005,2.4962,2.4962,2.4962,2.4948,2.4956,2.4976,2.513,2.5205,2.5524,2.579,2.5752,2.5432,2.5274,2.5194,2.463,2.3937,2.3244,2.2804,2.2513,2.2432,2.2359,2.2106,2.1964,2.1802,2.147,2.095,2.0546,2.0422,2.0282,1.96,1.9085,1.8444,1.7848,1.7041,1.6242,1.5882,1.5305,1.4553,1.3956,1.3743,1.3374,1.2862,1.2383,1.2077,1.1799,1.1526,1.132,1.1226,4.2591,4.24,4.155,4.0891,4.0164,3.8066,3.6792,3.6259,3.583,3.5813,3.5605,3.5388,3.5376,3.5309,3.5357,3.5288,3.5013,3.4658,3.4301,3.3885,3.3423,3.3467,3.3316,3.306,3.2773,3.2656,3.2656,3.2742,3.2687,3.2687,3.2672,3.2617,3.2578,3.2578,3.2484,3.2388,3.2293,3.2196,3.1883,3.1757,3.1672,3.1554,3.1467,3.1467,3.1467,3.1467,3.1351,3.119,3.1028,3.0895,3.0702,3.0642,3.0642,3.0539,3.0018,2.8363,2.7409,2.6671,2.549,2.5131,2.5131,2.5005,2.5005,2.5005,2.5005,2.5005,2.5005,2.4948,2.4919,2.4875,2.4734,2.47,2.4628,2.4567,2.4517,2.4429,2.4649,2.4434,2.4202,2.4302,2.4223,2.4028,2.3377,2.3216,2.2767,2.2369,2.2184,2.2111,2.2054,2.1873,2.1655,2.1399,2.1044,2.0743,2.0272,2.0038,1.9268,1.8571,1.7866,1.7137,1.6197,1.5464,1.4961,1.4438,1.3932,1.3548,1.3264,1.291,1.2753,1.265,1.2343,1.1994,1.1667,1.1478,1.1317,4.2391,4.2216,4.1688,4.0888,3.9755,3.7974,3.6688,3.5971,3.5554,3.5224,3.5041,3.498,3.4899,3.4932,3.498,3.4899,3.4611,3.4086,3.3716,3.3319,3.2857,3.2835,3.2678,3.2576,3.2305,3.2219,3.2266,3.2453,3.2398,3.2398,3.2453,3.2453,3.2342,3.2247,3.215,3.1981,3.1853,3.1739,3.1625,3.1524,3.1467,3.1467,3.1467,3.1467,3.1467,3.1336,3.1278,3.1132,3.0955,3.0776,3.0702,3.0524,3.0375,3.0136,2.9605,2.8106,2.7324,2.6599,2.5619,2.5127,2.5059,2.5005,2.4948,2.4892,2.4935,2.4935,2.4921,2.4851,2.4805,2.4673,2.4532,2.4371,2.4131,2.3844,2.3604,2.3289,2.3117,2.2926,2.2996,2.3161,2.3145,2.296,2.288,2.29,2.2729,2.2226,2.1898,2.1858,2.1895,2.1858,2.1733,2.1549,2.1219,2.0873,2.0348,1.9579,1.8691,1.781,1.7117,1.6285,1.5347,1.4829,1.4334,1.3964,1.3592,1.3296,1.3085,1.297,1.2789,1.2681,1.259,1.2288,1.1964,1.1624,1.1432,4.2246,4.2205,4.1959,4.0822,3.9268,3.8159,3.7116,3.6059,3.5494,3.5015,3.4949,3.4899,3.4899,3.4899,3.4787,3.4546,3.4134,3.3594,3.3108,3.2734,3.2287,3.2196,3.2293,3.2272,3.1957,3.1875,3.1906,3.2135,3.2287,3.2231,3.2176,3.2287,3.2094,3.1981,3.1868,3.1697,3.1582,3.1582,3.1524,3.1467,3.1467,3.1467,3.1467,3.1467,3.1394,3.1278,3.1176,3.0999,3.0762,3.0762,3.0673,3.0421,3.0043,2.9572,2.8856,2.8225,2.7509,2.668,2.5928,2.5426,2.5141,2.5003,2.4892,2.4848,2.4835,2.4768,2.4797,2.465,2.4558,2.4256,2.4092,2.3522,2.3153,2.2837,2.2483,2.2397,2.2353,2.2254,2.2382,2.2489,2.2468,2.2342,2.23,2.2316,2.2051,2.1736,2.1271,2.1253,2.1271,2.1262,2.1371,2.1273,2.0935,2.0421,1.9844,1.8967,1.7949,1.7091,1.6292,1.5504,1.4507,1.4069,1.3743,1.3513,1.3278,1.3163,1.2994,1.288,1.2795,1.2729,1.2668,1.2589,1.223,1.1882,1.1576,4.1892,4.1736,4.1346,4.0447,3.9307,3.8751,3.7836,3.6854,3.6386,3.5712,3.5,3.4932,3.4885,3.4886,3.4464,3.4151,3.3815,3.3124,3.2641,3.2327,3.191,3.1754,3.1739,3.1853,3.1664,3.1622,3.1667,3.1811,3.1796,3.1796,3.1739,3.1739,3.164,3.1697,3.164,3.1539,3.1524,3.1467,3.1467,3.1467,3.1467,3.1467,3.1467,3.1467,3.1409,3.1234,3.1132,3.0955,3.0762,3.0642,3.0642,3.043,3.0088,2.9449,2.8844,2.8278,2.7723,2.6986,2.6248,2.5761,2.5347,2.4939,2.4761,2.4748,2.4694,2.467,2.4543,2.4376,2.4145,2.3833,2.3462,2.28,2.2273,2.191,2.1499,2.1572,2.155,2.1657,2.1818,2.1852,2.1849,2.1759,2.1649,2.1579,2.1353,2.0826,2.0057,1.973,1.9783,1.9922,2.0536,2.0536,2.0138,1.9645,1.9026,1.8071,1.6916,1.5929,1.5088,1.4368,1.3713,1.3513,1.3338,1.32,1.3031,1.2946,1.2874,1.2789,1.2717,1.2705,1.2699,1.2607,1.2451,1.2074,1.1762,4.1719,4.1542,4.096,4.0371,3.9722,3.9076,3.8212,3.7425,3.7028,3.6391,3.548,3.5152,3.4922,3.4758,3.4212,3.3607,3.3382,3.2711,3.2287,3.191,3.1799,3.1582,3.1467,3.1541,3.1509,3.1467,3.1467,3.1524,3.1571,3.1524,3.1524,3.1526,3.1526,3.1541,3.1526,3.1497,3.1526,3.1467,3.1526,3.1541,3.1541,3.1497,3.1467,3.1467,3.1307,3.119,3.1073,3.0895,3.0702,3.0495,3.0288,2.994,2.9594,2.914,2.8743,2.8397,2.7899,2.7406,2.6702,2.6042,2.5528,2.5051,2.4227,2.3968,2.3428,2.3372,2.3584,2.3457,2.3148,2.28,2.2587,2.2088,2.1922,2.1661,2.1291,2.1174,2.0909,2.0741,2.0841,2.0862,2.0881,2.0912,2.0891,2.0978,2.0689,2.0077,1.9324,1.8751,1.8657,1.8377,1.9151,1.9468,1.8888,1.8221,1.7289,1.6501,1.5645,1.4774,1.4018,1.3676,1.341,1.3091,1.2916,1.2898,1.2862,1.2789,1.2717,1.2705,1.2705,1.2705,1.2705,1.2699,1.2512,1.2312,1.1986,4.156,4.1408,4.0737,4.0351,4.0153,3.9226,3.8428,3.7812,3.7475,3.7003,3.6232,3.5503,3.5059,3.4622,3.3879,3.3192,3.26,3.2221,3.1868,3.1835,3.1734,3.1618,3.1648,3.1707,3.193,3.2003,3.1973,3.1988,3.1974,3.2033,3.2033,3.1824,3.1779,3.1824,3.1779,3.1809,3.1915,3.2033,3.2048,3.1928,3.1779,3.1526,3.1482,3.1409,3.1249,3.1146,3.0955,3.0836,3.0642,3.0375,3.005,2.961,2.9136,2.878,2.8538,2.8208,2.7971,2.7597,2.72,2.6361,2.5689,2.4874,2.3836,2.3223,2.2811,2.2651,2.2942,2.2596,2.2335,2.2013,2.1853,2.164,2.1556,2.1551,2.1184,2.0743,2.037,2.0064,2.0088,2.0136,2.0109,2.0089,2.0214,2.0319,1.9996,1.9329,1.8769,1.823,1.7814,1.7296,1.7336,1.7517,1.7219,1.6468,1.5889,1.5164,1.4539,1.4109,1.3519,1.3284,1.3121,1.2928,1.2801,1.2759,1.2711,1.2705,1.2705,1.2705,1.2705,1.2705,1.2705,1.2687,1.2572,1.2355,1.2065,4.1408,4.1053,4.0689,4.0186,3.9577,3.9032,3.8674,3.8237,3.7906,3.7451,3.6753,3.6032,3.5441,3.5173,3.3661,3.2871,3.2737,3.2176,3.2092,3.2109,3.2199,3.1975,3.2094,3.2751,3.3036,3.2991,3.2931,3.3036,3.2736,3.2886,3.308,3.2991,3.3021,3.3051,3.3066,3.3021,3.2901,3.2871,3.2886,3.2826,3.2587,3.2228,3.1483,3.1292,3.1176,3.0999,3.0821,3.0702,3.0642,3.0418,2.9907,2.9378,2.8876,2.8369,2.8145,2.8114,2.7848,2.7758,2.7281,2.6739,2.6076,2.548,2.4679,2.4136,2.3694,2.315,2.3008,2.2332,2.1987,2.1708,2.1486,2.123,2.1107,2.1294,2.1165,2.0555,2.0058,1.9965,1.9947,1.9755,1.9537,1.9608,1.9645,1.9542,1.9228,1.8564,1.7721,1.7203,1.6261,1.594,1.565,1.5665,1.5595,1.5691,1.5606,1.4454,1.3724,1.3312,1.3022,1.2949,1.2904,1.2801,1.2705,1.2705,1.2705,1.2705,1.2705,1.2705,1.2705,1.2705,1.2705,1.2668,1.2572,1.2403,1.2113]},{"header":{"parameterUnit":"m.s-1","parameterCategory":1,"la1":31.0,"la2":29.5877,"lo1":-88.7671,"lo2":-86.6584,"dy":0.0162,"dx":0.0185,"nx":115,"ny":88,"refTime":"2023-09-06T06:00:00:Z","depth":0,"parameterNumber":3,"parameterNumberName":"V-component_of_WINDS"},"data":[0.0,0.0,0.0,0.0,0.0,0.0,0.0,0.0,0.0,0.0,0.0,0.0,0.0,0.0,0.0,0.0,0.0,0.0,0.0,0.0,0.0,0.0,0.0,0.0,0.0,0.0,0.0,0.0,0.0,0.0,0.0,0.0,0.0,0.0,0.0,0.0,0.0,0.0,0.0,0.0,0.0,0.0,0.0,0.0,0.0,0.0,0.0,0.0,0.0,0.0,0.0,0.0,0.0,0.0,0.0,0.0,0.0,0.0,0.0,0.0,0.0,0.0,0.0,0.0,0.0,0.0,0.0,0.0,0.0,0.0,0.0,0.0,0.0,0.0,0.0,0.0,0.0,0.0,0.0,0.0,0.0,0.0,0.0,0.0,0.0,0.0,0.0,0.0,0.0,0.0,0.0,0.0,0.0,0.0,0.0,0.0,0.0,0.0,0.0,0.0,0.0,0.0,0.0,0.0,0.0,0.0,0.0,0.0,0.0,0.0,0.0,0.0,0.0,0.0,0.0,0.0,0.0,0.0,0.0,0.0,0.0,0.0,0.0,0.0,0.0,0.0,0.0,0.0,0.0,0.0,0.0,0.0,0.0,0.0,0.0,0.0,0.0,0.0,0.0,0.0,0.0,0.0,0.0,0.0,0.0,0.0,0.0,0.0,0.0,0.0,0.0,0.0,0.0,0.0,0.0,0.0,0.0,0.0,0.0,0.0,0.0,0.0,0.0,0.0,0.0,0.0,0.0,0.0,0.0,0.0,0.0,0.0,0.0,0.0,0.0,0.0,0.0,0.0,0.0,0.0,0.0,0.0,0.0,0.0,0.0,0.0,0.0,0.0,0.0,0.0,0.0,0.0,0.0,0.0,0.0,0.0,0.0,0.0,0.0,0.0,0.0,0.0,0.0,0.0,0.0,0.0,0.0,0.0,0.0,0.0,0.0,0.0,0.0,0.0,0.0,0.0,0.0,0.0,0.0,0.0,0.0,0.0,0.0,0.0,0.0,0.0,0.0,0.0,0.0,0.0,0.0,0.0,0.0,0.0,0.0,0.0,0.0,0.0,0.0,0.0,0.0,0.0,0.0,0.0,0.0,0.0,0.0,0.0,0.0,0.0,0.0,0.0,0.0,0.0,0.0,0.0,0.0,0.0,0.0,0.0,0.0,0.0,0.0,0.0,0.0,0.0,0.0,0.0,0.0,0.0,0.0,0.0,0.0,0.0,0.0,0.0,0.0,0.0,0.0,0.0,0.0,0.0,0.0,0.0,0.0,0.0,0.0,0.0,0.0,0.0,0.0,0.0,0.0,0.0,0.0,0.0,0.0,0.0,0.0,0.0,0.0,0.0,0.0,0.0,0.0,0.0,0.0,0.0,0.0,0.0,0.0,0.0,0.0,0.0,0.0,0.0,0.0,0.0,0.0,0.0,0.0,0.0,0.0,0.0,0.0,0.0,0.0,0.0,0.0,0.0,0.0,0.0,0.0,0.0,0.0,0.0,0.0,0.0,0.0,0.0,0.0,0.0,0.0,0.0,0.0,0.0,0.0,0.0,0.0,0.0,0.0,0.0,0.0,0.0,0.0,0.0,0.0,0.0,0.0,0.0,0.0,0.0,0.0,0.0,0.0,0.0,0.0,0.0,0.0,0.0,0.0,0.0,0.0,0.0,0.0,0.0,0.0,0.0,0.0,0.0,0.0,0.0,0.0,0.0,0.0,0.0,0.0,0.0,0.0,0.0,0.0,0.0,0.0,0.0,0.0,0.0,0.0,0.0,0.0,0.0,0.0,0.0,0.0,0.0,0.0,0.0,0.0,0.0,0.0,0.0,0.0,0.0,0.0,0.0,0.0,0.0,0.0,0.0,0.0,0.0,0.0,0.0,0.0,0.0,0.0,0.0,0.0,0.0,0.0,0.0,0.0,0.0,0.0,0.0,0.0,0.0,0.0,0.0,0.0,0.0,0.0,0.0,0.0,0.0,0.0,0.0,0.0,0.0,0.0,0.0,0.0,0.0,0.0,0.0,0.0,0.0,0.0,0.0,0.0,0.0,0.0,0.0,0.0,0.0,0.0,0.0,0.0,0.0,0.0,0.0,0.0,0.0,0.0,0.0,0.0,0.0,0.0,0.0,0.0,0.0,0.0,0.0,0.0,0.0,0.0,0.0,0.0,0.0,0.0,0.0,0.0,0.0,0.0,0.0,0.0,0.0,0.0,0.0,0.0,0.0,0.0,0.0,0.0,0.0,0.0,0.0,0.0,0.0,0.0,0.0,0.0,0.0,0.0,0.0,0.0,0.0,0.0,0.0,0.0,0.0,0.0,0.0,0.0,0.0,0.0,0.0,0.0,0.0,0.0,0.0,0.0,0.0,0.0,0.0,0.0,0.0,0.0,0.0,0.0,0.0,0.0,0.0,0.0,0.0,0.0,0.0,0.0,0.0,0.0,0.0,0.0,0.0,0.0,0.0,0.0,0.0,0.0,0.0,0.0,0.0,0.0,0.0,0.0,0.0,0.0,0.0,0.0,0.0,0.0,0.0,0.0,0.0,0.0,0.0,0.0,0.0,0.0,0.0,0.0,0.0,0.0,0.0,0.0,0.0,0.0,0.0,0.0,0.0,0.0,0.0,0.0,0.0,0.0,0.0,0.0,0.0,0.0,0.0,0.0,0.0,0.0,0.0,0.0,0.0,0.0,0.0,0.0,0.0,0.0,0.0,0.0,0.0,0.0,0.0,0.0,0.0,0.0,0.0,0.0,0.0,0.0,0.0,0.0,0.0,0.0,0.0,0.0,0.0,0.0,0.0,0.0,0.0,0.0,0.0,0.0,0.0,0.0,0.0,0.0,0.0,0.0,0.0,0.0,0.0,0.0,0.0,0.0,0.0,0.0,0.0,0.0,0.0,0.0,0.0,0.0,0.0,0.0,0.0,0.0,0.0,0.0,0.0,0.0,0.0,0.0,0.0,0.0,0.0,0.0,0.0,0.0,0.0,0.0,0.0,0.0,0.0,0.0,0.0,0.0,0.0,0.0,0.0,0.0,0.0,0.0,0.0,0.0,0.0,0.0,0.0,0.0,0.0,0.0,0.0,0.0,0.0,0.0,0.0,0.0,0.0,0.0,0.0,0.0,0.0,0.0,0.0,0.0,0.0,0.0,0.0,0.0,0.0,0.0,0.0,0.0,0.0,0.0,0.0,0.0,0.0,0.0,0.0,0.0,0.0,0.0,0.0,0.0,0.0,0.0,0.0,0.0,0.0,0.0,0.0,0.0,0.0,0.0,0.0,0.0,0.0,0.0,0.0,0.0,0.0,0.0,0.0,0.0,0.0,0.0,0.0,0.0,0.0,0.0,0.0,0.0,0.0,0.0,0.0,0.0,0.0,0.0,0.0,0.0,0.0,0.0,0.0,0.0,0.0,0.0,0.0,0.0,0.0,0.0,0.0,0.0,0.0,0.0,0.0,0.0,0.0,0.0,0.0,0.0,0.0,0.0,0.0,0.0,0.0,0.0,0.0,0.0,0.0,0.0,0.0,0.0,0.0,0.0,0.0,0.0,0.0,0.0,0.0,0.0,0.0,0.0,0.0,0.0,0.0,0.0,0.0,0.0,0.0,0.0,0.0,0.0,0.0,0.0,0.0,0.0,0.0,0.0,0.0,0.0,0.0,0.0,0.0,0.0,0.0,0.0,0.0,0.0,0.0,0.0,0.0,0.0,0.0,0.0,0.0,0.0,0.0,0.0,0.0,0.0,0.0,0.0,0.0,0.0,0.0,0.0,0.0,0.0,0.0,0.0,0.0,0.0,0.0,0.0,0.0,0.0,0.0,0.0,0.0,0.0,0.0,0.0,0.0,0.0,0.0,0.0,0.0,0.0,0.0,0.0,0.0,0.0,0.0,0.0,0.0,0.0,0.0,0.0,0.0,0.0,0.0,0.0,0.0,0.0,0.0,0.0,0.0,0.0,0.0,0.0,0.0,0.0,0.0,0.0,0.0,0.0,0.0,0.0,0.0,0.0,0.0,0.0,0.0,0.0,0.0,0.0,0.0,0.0,0.0,0.0,0.0,0.0,0.0,0.0,0.0,0.0,0.0,0.0,0.0,0.0,0.0,0.0,0.0,0.0,0.0,0.0,0.0,0.0,0.0,0.0,0.0,0.0,0.0,0.0,0.0,0.0,0.0,0.0,0.0,0.0,0.0,0.0,0.0,0.0,0.0,0.0,0.0,0.0,0.0,0.0,0.0,0.0,0.0,0.0,0.0,0.0,0.0,0.0,0.0,0.0,0.0,0.0,0.0,-0.2691,0.0,0.0,0.0,0.0,0.0,0.0,0.0,0.0,0.0,0.0,0.0,0.0,0.0,0.0,0.0,0.0,0.0,0.0,0.0,0.0,0.0,0.0,0.0,0.0,0.0,0.0,0.0,0.0,0.0,0.0,0.0,0.0,0.0,0.0,0.0,0.0,0.0,0.0,0.0,0.0,0.0,0.0,0.0,0.0,0.0,0.0,0.0,0.0,0.0,0.0,0.0,0.0,0.0,0.0,0.0,0.0,0.0,0.0,0.0,0.0,0.0,0.0,0.0,0.0,0.0,0.0,0.0,0.0,0.0,0.0,0.0,0.0,0.0,0.0,0.0,0.0,0.0,0.0,0.0,0.0,0.0,0.0,0.0,0.0,0.0,0.0,0.0,0.0,0.0,0.0,0.0,0.0,0.0,0.0,0.0,0.0,0.0,0.0,0.0,0.0,0.0,0.0,0.0,0.0,0.0,0.0,0.0,0.0,0.0,0.0,-0.2691,-0.2691,-0.2691,-0.2691,-0.2691,0.0,0.0,0.0,0.0,0.0,0.0,0.0,0.0,0.0,0.0,0.0,0.0,0.0,0.0,0.0,0.0,0.0,0.0,0.0,0.0,0.0,0.0,0.0,0.0,0.0,0.0,0.0,0.0,0.0,0.0,0.0,0.0,0.0,0.0,0.0,0.0,0.0,0.0,0.0,0.0,0.0,0.0,0.0,0.0,0.0,0.0,0.0,0.0,0.0,0.0,0.0,0.0,0.0,0.0,0.0,0.0,0.0,0.0,0.0,0.0,0.0,0.0,0.0,0.0,0.0,0.0,0.0,0.0,0.0,0.0,0.0,0.0,0.0,0.0,0.0,0.0,0.0,0.0,0.0,0.0,0.0,0.0,0.0,0.0,0.0,0.0,0.0,0.0,0.0,0.0,0.0,0.0,0.0,0.0,0.0,0.0,0.0,0.0,0.0,0.0,0.0,0.0,0.0,0.0,0.0,0.0,0.0,0.0,0.0,0.0,0.0,0.0,-0.2691,-0.2802,-0.2912,0.0,0.0,0.0,0.0,0.0,0.0,0.0,0.0,0.0,0.0,0.0,0.0,0.0,0.0,0.0,0.0,0.0,0.0,0.0,0.0,0.0,0.0,0.0,0.0,0.0,0.0,0.0,0.0,0.0,0.0,0.0,0.0,0.0,0.0,0.0,0.0,0.0,0.0,0.0,0.0,0.0,0.0,0.0,0.0,0.0,0.0,0.0,0.0,0.0,0.0,0.0,0.0,0.0,0.0,0.0,0.0,0.0,0.0,0.0,0.0,0.0,0.0,0.0,0.0,0.0,0.0,0.0,0.0,0.0,0.0,0.0,0.0,0.0,0.0,0.0,0.0,0.0,0.0,0.0,0.0,0.0,0.0,0.0,0.0,0.0,0.0,0.0,0.0,0.0,0.0,0.0,0.0,0.0,0.0,0.0,0.0,0.0,0.0,0.0,0.0,0.0,0.0,0.0,0.0,0.0,0.0,0.0,0.0,0.0,0.0,-0.2691,-0.2691,-0.2691,0.0,-0.3516,0.0,0.0,0.0,0.0,0.0,0.0,0.0,0.0,0.0,0.0,0.0,0.0,0.0,0.0,0.0,0.0,0.0,0.0,0.0,0.0,0.0,0.0,0.0,0.0,0.0,0.0,0.0,0.0,0.0,0.0,0.0,0.0,0.0,0.0,0.0,0.0,0.0,0.0,0.0,0.0,0.0,0.0,0.0,0.0,0.0,0.0,0.0,0.0,0.0,0.0,0.0,0.0,0.0,0.0,0.0,0.0,0.0,0.0,0.0,0.0,0.0,0.0,0.0,0.0,0.0,0.0,0.0,0.0,0.0,0.0,0.0,0.0,0.0,0.0,0.0,0.0,0.0,0.0,0.0,0.0,0.0,0.0,0.0,0.0,0.0,0.0,0.0,0.0,0.0,0.0,0.0,0.0,0.0,0.0,0.0,0.0,0.0,0.0,0.0,0.0,0.0,0.0,0.0,0.0,0.0,0.0,0.0,0.0,0.0,0.0,-0.2691,-0.2691,-0.3021,-0.3352,0.0,0.0,0.0,0.0,0.0,0.0,0.0,0.0,0.0,0.0,0.0,0.0,0.0,0.0,0.0,0.0,0.0,0.0,0.0,0.0,0.0,0.0,0.0,0.0,0.0,0.0,0.0,0.0,0.0,0.0,0.0,0.0,0.0,0.0,0.0,0.0,0.0,0.0,0.0,0.0,0.0,0.0,0.0,0.0,0.0,0.0,0.0,0.0,0.0,0.0,0.0,0.0,0.0,0.0,0.0,0.0,0.0,0.0,0.0,0.0,0.0,0.0,0.0,0.0,0.0,0.0,0.0,0.0,0.0,0.0,0.0,0.0,0.0,0.0,0.0,0.0,0.0,0.0,0.0,0.0,0.0,0.0,0.0,0.0,0.0,0.0,0.0,0.0,0.0,0.0,0.0,0.0,0.0,0.0,0.0,0.0,0.0,0.0,0.0,0.0,0.0,0.0,0.0,0.0,0.0,0.0,0.0,0.0,0.0,0.0,-0.2691,-0.2802,-0.2965,-0.3519,-0.3904,-0.4067,0.0,0.0,0.0,0.0,0.0,0.0,0.0,0.0,0.0,0.0,0.0,0.0,0.0,0.0,0.0,0.0,0.0,0.0,0.0,0.0,0.0,0.0,0.0,0.0,0.0,0.0,0.0,0.0,0.0,0.0,0.0,0.0,0.0,0.0,0.0,0.0,0.0,0.0,0.0,0.0,0.0,0.0,0.0,0.0,0.0,0.0,0.0,0.0,0.0,0.0,0.0,0.0,0.0,0.0,0.0,0.0,0.0,0.0,0.0,0.0,0.0,0.0,0.0,0.0,0.0,0.0,0.0,0.0,0.0,0.0,0.0,0.0,0.0,0.0,0.0,0.0,0.0,0.0,0.0,0.0,0.0,0.0,0.0,0.0,0.0,0.0,0.0,0.0,0.0,0.0,0.0,0.0,0.0,0.0,0.0,0.0,0.0,0.0,0.0,0.0,0.0,0.0,0.0,0.0,0.0,0.0,0.0,0.0,-0.2691,-0.2691,-0.2968,-0.3516,-0.4125,-0.4677,0.0,0.0,0.0,0.0,0.0,0.0,0.0,0.0,0.0,0.0,0.0,0.0,0.0,0.0,0.0,0.0,0.0,0.0,0.0,0.0,0.0,0.0,0.0,0.0,0.0,0.0,0.0,0.0,0.0,0.0,0.0,0.0,0.0,0.0,0.0,0.0,0.0,0.0,0.0,0.0,0.0,0.0,0.0,0.0,0.0,0.0,0.0,0.0,0.0,0.0,0.0,0.0,0.0,0.0,0.0,0.0,0.0,0.0,0.0,0.0,0.0,0.0,0.0,0.0,0.0,0.0,0.0,0.0,0.0,0.0,0.0,0.0,0.0,0.0,0.0,0.0,0.0,0.0,0.0,0.0,0.0,0.0,0.0,0.0,0.0,0.0,0.0,0.0,0.0,0.0,0.0,0.0,0.0,0.0,0.0,0.0,0.0,0.0,0.0,0.0,0.0,0.0,0.0,0.0,0.0,0.0,0.0,0.0,0.0,-0.2691,-0.3077,-0.3574,-0.4181,-0.4732,-0.5117,0.0,0.0,0.0,0.0,0.0,0.0,0.0,0.0,0.0,0.0,0.0,0.0,0.0,0.0,0.0,0.0,0.0,0.0,0.0,0.0,0.0,0.0,0.0,0.0,0.0,0.0,0.0,0.0,0.0,0.0,0.0,0.0,0.0,0.0,0.0,0.0,0.0,0.0,0.0,0.0,0.0,0.0,0.0,0.0,0.0,0.0,0.0,0.0,0.0,0.0,0.0,0.0,0.0,0.0,0.0,0.0,0.0,0.0,0.0,0.0,0.0,0.0,0.0,0.0,0.0,0.0,0.0,0.0,0.0,0.0,0.0,0.0,0.0,0.0,0.0,0.0,0.0,0.0,0.0,0.0,0.0,0.0,0.0,0.0,0.0,0.0,0.0,0.0,0.0,0.0,0.0,0.0,0.0,0.0,0.0,0.0,0.0,0.0,0.0,0.0,0.0,0.0,0.0,0.0,0.0,0.0,0.0,0.0,0.0,-0.3023,0.0,-0.4343,-0.4732,-0.5285,-0.5614,0.0,0.0,0.0,0.0,0.0,0.0,0.0,0.0,0.0,0.0,0.0,0.0,0.0,0.0,0.0,0.0,0.0,0.0,0.0,0.0,0.0,0.0,0.0,0.0,0.0,0.0,0.0,0.0,0.0,0.0,0.0,0.0,0.0,0.0,0.0,0.0,0.0,0.0,0.0,0.0,0.0,0.0,0.0,0.0,0.0,0.0,0.0,0.0,0.0,0.0,0.0,0.0,0.0,0.0,0.0,0.0,0.0,0.0,0.0,0.0,0.0,0.0,0.0,0.0,0.0,0.0,0.0,0.0,0.0,0.0,0.0,0.0,0.0,0.0,0.0,0.0,0.0,0.0,0.0,0.0,0.0,0.0,0.0,0.0,0.0,0.0,0.0,0.0,0.0,0.0,0.0,0.0,0.0,0.0,0.0,0.0,0.0,0.0,0.0,0.0,0.0,0.0,0.0,0.0,0.0,0.0,0.0,0.0,-0.3023,-0.3627,-0.4673,-0.5281,-0.5336,-0.5896,-0.6178,0.0,0.0,0.0,0.0,0.0,0.0,0.0,0.0,0.0,0.0,0.0,0.0,0.0,0.0,0.0,0.0,0.0,0.0,0.0,0.0,0.0,0.0,0.0,0.0,0.0,0.0,0.0,0.0,0.0,0.0,0.0,0.0,0.0,0.0,0.0,0.0,0.0,0.0,0.0,0.0,0.0,0.0,0.0,0.0,0.0,0.0,0.0,0.0,0.0,0.0,0.0,0.0,0.0,0.0,0.0,0.0,0.0,0.0,0.0,0.0,0.0,0.0,0.0,0.0,0.0,0.0,0.0,0.0,0.0,0.0,0.0,0.0,0.0,0.0,0.0,0.0,0.0,0.0,0.0,0.0,0.0,0.0,0.0,0.0,0.0,0.0,0.0,0.0,0.0,0.0,0.0,0.0,0.0,0.0,0.0,0.0,0.0,0.0,0.0,0.0,0.0,0.0,0.0,0.0,0.0,0.0,0.0,0.0,0.0,-0.4581,-0.5066,-0.5563,-0.6075,-0.6188,-0.6298,0.0,0.0,0.0,0.0,0.0,0.0,0.0,0.0,0.0,0.0,0.0,0.0,0.0,0.0,0.0,0.0,0.0,0.0,0.0,0.0,0.0,0.0,0.0,0.0,0.0,0.0,0.0,0.0,0.0,0.0,0.0,0.0,0.0,0.0,0.0,0.0,0.0,0.0,0.0,0.0,0.0,0.0,0.0,0.0,0.0,0.0,0.0,0.0,0.0,0.0,0.0,0.0,0.0,0.0,0.0,0.0,0.0,0.0,0.0,0.0,0.0,0.0,0.0,0.0,0.0,0.0,0.0,0.0,0.0,0.0,0.0,0.0,0.0,0.0,0.0,0.0,0.0,0.0,0.0,0.0,0.0,0.0,0.0,0.0,0.0,0.0,0.0,0.0,0.0,0.0,0.0,0.0,0.0,0.0,0.0,0.0,0.0,0.0,0.0,0.0,0.0,0.0,0.0,0.0,0.0,0.0,0.0,0.0,0.0,-0.5918,-0.5892,-0.6164,-0.6876,-0.6582,-0.6558,-0.6865,0.0,0.0,0.0,0.0,0.0,0.0,0.0,0.0,0.0,0.0,0.0,0.0,0.0,0.0,0.0,0.0,0.0,0.0,0.0,0.0,0.0,0.0,0.0,0.0,0.0,0.0,0.0,0.0,0.0,0.0,0.0,0.0,0.0,0.0,0.0,0.0,0.0,0.0,0.0,0.0,0.0,0.0,0.0,0.0,0.0,0.0,0.0,0.0,0.0,0.0,0.0,0.0,0.0,0.0,0.0,0.0,0.0,0.0,0.0,0.0,0.0,0.0,0.0,0.0,0.0,0.0,0.0,0.0,0.0,0.0,0.0,0.0,0.0,0.0,0.0,0.0,0.0,0.0,0.0,0.0,0.0,0.0,0.0,0.0,0.0,0.0,0.0,0.0,0.0,0.0,0.0,0.0,0.0,0.0,0.0,0.0,0.0,0.0,0.0,0.0,0.0,0.0,0.0,0.0,0.0,0.0,0.0,0.0,-0.7562,-0.7113,-0.7104,-0.7566,-0.7105,-0.7075,0.0,0.0,0.0,0.0,0.0,0.0,0.0,0.0,0.0,0.0,0.0,0.0,0.0,0.0,0.0,0.0,0.0,0.0,0.0,0.0,0.0,0.0,0.0,0.0,0.0,0.0,0.0,0.0,0.0,0.0,0.0,0.0,0.0,0.0,0.0,0.0,0.0,0.0,0.0,0.0,0.0,0.0,0.0,0.0,0.0,0.0,0.0,0.0,0.0,0.0,0.0,0.0,0.0,0.0,0.0,0.0,0.0,0.0,0.0,0.0,0.0,0.0,0.0,0.0,0.0,0.0,0.0,0.0,0.0,0.0,0.0,0.0,0.0,0.0,0.0,0.0,0.0,0.0,0.0,0.0,0.0,0.0,0.0,0.0,0.0,0.0,0.0,0.0,0.0,0.0,0.0,0.0,0.0,0.0,0.0,0.0,0.0,0.0,0.0,0.0,0.0,0.0,0.0,0.0,0.0,0.0,0.0,0.0,0.0,-0.8233,-0.7969,-0.7952,-0.8375,-0.7711,-0.7644,0.0,0.0,0.0,0.0,0.0,0.0,0.0,0.0,0.0,0.0,0.0,0.0,0.0,0.0,0.0,0.0,0.0,0.0,0.0,0.0,0.0,0.0,0.0,0.0,0.0,0.0,0.0,0.0,0.0,0.0,0.0,0.0,0.0,0.0,0.0,0.0,0.0,0.0,0.0,0.0,0.0,0.0,0.0,0.0,0.0,0.0,0.0,0.0,0.0,0.0,0.0,0.0,0.0,0.0,0.0,0.0,0.0,0.0,0.0,0.0,0.0,0.0,0.0,0.0,0.0,0.0,0.0,0.0,0.0,0.0,0.0,0.0,0.0,0.0,0.0,0.0,0.0,0.0,0.0,0.0,0.0,0.0,0.0,0.0,0.0,0.0,0.0,0.0,0.0,0.0,0.0,0.0,0.0,0.0,0.0,0.0,0.0,0.0,0.0,0.0,0.0,0.0,0.0,0.0,0.0,0.0,0.0,0.0,-0.6345,-0.8325,-0.8343,-0.8717,-0.9444,-0.8482,-0.8348,0.0,0.0,0.0,0.0,0.0,0.0,0.0,0.0,0.0,0.0,0.0,0.0,0.0,0.0,0.0,0.0,0.0,0.0,0.0,0.0,0.0,0.0,0.0,0.0,0.0,0.0,0.0,0.0,0.0,0.0,0.0,0.0,0.0,0.0,0.0,0.0,0.0,0.0,0.0,0.0,0.0,0.0,0.0,0.0,0.0,0.0,0.0,0.0,0.0,0.0,0.0,0.0,0.0,0.0,0.0,0.0,0.0,0.0,0.0,0.0,0.0,0.0,0.0,0.0,0.0,0.0,0.0,0.0,0.0,0.0,0.0,0.0,0.0,0.0,0.0,0.0,0.0,0.0,0.0,0.0,0.0,0.0,0.0,0.0,0.0,0.0,0.0,0.0,0.0,0.0,0.0,0.0,0.0,0.0,0.0,0.0,0.0,0.0,0.0,0.0,0.0,0.0,0.0,0.0,0.0,0.0,0.0,0.0,-0.6494,-0.7951,-0.852,-0.9301,-1.0415,-0.9281,-0.8981,0.0,0.0,0.0,0.0,0.0,0.0,0.0,0.0,0.0,0.0,0.0,0.0,0.0,0.0,0.0,0.0,0.0,0.0,0.0,0.0,0.0,0.0,0.0,0.0,0.0,0.0,0.0,0.0,0.0,0.0,0.0,0.0,0.0,0.0,0.0,0.0,0.0,0.0,0.0,0.0,0.0,0.0,0.0,0.0,0.0,0.0,0.0,0.0,0.0,0.0,0.0,0.0,0.0,0.0,0.0,0.0,0.0,0.0,0.0,0.0,0.0,0.0,0.0,0.0,0.0,0.0,0.0,0.0,0.0,0.0,0.0,0.0,0.0,0.0,0.0,0.0,0.0,0.0,0.0,0.0,0.0,0.0,0.0,0.0,0.0,0.0,0.0,0.0,0.0,0.0,0.0,0.0,0.0,0.0,0.0,0.0,0.0,0.0,0.0,0.0,0.0,0.0,0.0,0.0,0.0,0.0,0.0,0.0,-0.7087,-0.8468,-0.9122,-0.9765,-1.0513,-0.9399,-0.9227,0.0,0.0,0.0,0.0,0.0,0.0,0.0,0.0,0.0,0.0,0.0,0.0,0.0,0.0,0.0,0.0,0.0,0.0,0.0,0.0,0.0,0.0,0.0,0.0,0.0,0.0,0.0,0.0,0.0,0.0,0.0,0.0,0.0,0.0,0.0,0.0,0.0,0.0,0.0,0.0,0.0,0.0,0.0,0.0,0.0,0.0,0.0,0.0,-1.7614,0.0,0.0,0.0,0.0,0.0,0.0,0.0,0.0,0.0,0.0,0.0,0.0,0.0,0.0,0.0,0.0,0.0,0.0,0.0,0.0,0.0,0.0,0.0,0.0,0.0,0.0,0.0,0.0,0.0,0.0,0.0,0.0,0.0,0.0,0.0,0.0,0.0,0.0,0.0,0.0,0.0,0.0,0.0,0.0,0.0,0.0,0.0,0.0,0.0,0.0,0.0,0.0,0.0,0.0,0.0,0.0,0.0,0.0,0.0,-0.6924,-0.8094,-0.8941,-0.9609,-1.0173,-0.9834,-0.979,0.0,0.0,0.0,0.0,0.0,0.0,0.0,0.0,0.0,0.0,0.0,0.0,0.0,0.0,0.0,0.0,0.0,0.0,0.0,0.0,0.0,0.0,0.0,0.0,0.0,0.0,0.0,0.0,0.0,0.0,0.0,0.0,0.0,0.0,0.0,0.0,0.0,0.0,0.0,0.0,0.0,0.0,0.0,0.0,0.0,0.0,0.0,0.0,0.0,0.0,0.0,0.0,0.0,0.0,0.0,0.0,0.0,0.0,0.0,0.0,0.0,0.0,0.0,0.0,0.0,0.0,0.0,0.0,0.0,0.0,0.0,0.0,0.0,0.0,0.0,0.0,0.0,0.0,0.0,0.0,0.0,0.0,0.0,0.0,0.0,0.0,0.0,0.0,0.0,0.0,0.0,0.0,0.0,0.0,0.0,0.0,0.0,0.0,0.0,0.0,0.0,0.0,0.0,0.0,0.0,0.0,0.0,-0.5989,-0.6539,-0.7605,-0.8594,-0.9372,-0.989,-1.0373,-1.0478,-1.0263,0.0,0.0,0.0,0.0,0.0,0.0,0.0,0.0,0.0,0.0,0.0,0.0,0.0,0.0,0.0,0.0,0.0,0.0,0.0,0.0,0.0,0.0,0.0,0.0,0.0,0.0,0.0,0.0,0.0,0.0,0.0,0.0,0.0,0.0,0.0,0.0,0.0,0.0,-1.52,-1.5703,0.0,0.0,0.0,0.0,0.0,0.0,0.0,0.0,-1.9561,0.0,0.0,0.0,0.0,0.0,0.0,0.0,0.0,0.0,0.0,0.0,0.0,0.0,0.0,0.0,0.0,0.0,0.0,0.0,0.0,0.0,0.0,0.0,0.0,0.0,0.0,0.0,0.0,0.0,0.0,0.0,0.0,0.0,0.0,0.0,0.0,0.0,0.0,0.0,0.0,0.0,0.0,0.0,0.0,0.0,0.0,0.0,0.0,0.0,0.0,0.0,0.0,0.0,0.0,0.0,0.0,-0.6302,-0.6314,-0.6871,-0.7988,-0.8959,-0.9599,-0.9879,-1.0592,-1.0747,-1.0206,0.0,0.0,0.0,0.0,0.0,0.0,0.0,0.0,0.0,0.0,0.0,0.0,0.0,0.0,0.0,0.0,0.0,0.0,0.0,0.0,0.0,0.0,0.0,0.0,0.0,0.0,0.0,0.0,0.0,0.0,0.0,0.0,0.0,0.0,0.0,0.0,0.0,0.0,0.0,-1.6977,-1.7384,0.0,0.0,0.0,0.0,0.0,0.0,0.0,0.0,-2.0425,0.0,0.0,0.0,0.0,0.0,0.0,0.0,0.0,0.0,0.0,0.0,0.0,0.0,0.0,0.0,0.0,0.0,0.0,0.0,0.0,0.0,0.0,0.0,0.0,0.0,0.0,0.0,0.0,0.0,0.0,0.0,0.0,0.0,0.0,0.0,0.0,0.0,0.0,0.0,0.0,0.0,0.0,0.0,0.0,0.0,0.0,0.0,0.0,0.0,0.0,0.0,0.0,0.0,0.0,0.0,-0.5519,-0.6248,-0.6952,-0.746,-0.8618,-0.9296,-0.9437,-1.0799,-1.1156,0.0,0.0,0.0,0.0,0.0,0.0,0.0,0.0,0.0,0.0,0.0,0.0,0.0,0.0,0.0,0.0,0.0,0.0,0.0,0.0,0.0,0.0,0.0,0.0,0.0,0.0,0.0,0.0,0.0,0.0,0.0,0.0,0.0,0.0,0.0,0.0,0.0,0.0,0.0,0.0,-1.8096,-1.9068,-1.9901,0.0,0.0,0.0,0.0,0.0,0.0,-2.1806,-2.1931,0.0,0.0,0.0,0.0,0.0,0.0,0.0,0.0,0.0,0.0,0.0,0.0,0.0,0.0,0.0,0.0,0.0,0.0,0.0,0.0,0.0,0.0,0.0,0.0,0.0,0.0,0.0,0.0,0.0,0.0,0.0,0.0,0.0,0.0,0.0,0.0,0.0,0.0,0.0,0.0,0.0,0.0,0.0,0.0,0.0,0.0,0.0,0.0,0.0,0.0,0.0,0.0,0.0,0.0,0.0,-0.4809,-0.6132,-0.6899,-0.7149,-0.8313,-0.915,-0.9583,-1.1096,-1.1581,0.0,0.0,0.0,0.0,0.0,0.0,0.0,0.0,0.0,0.0,0.0,0.0,0.0,0.0,0.0,0.0,0.0,0.0,0.0,0.0,0.0,0.0,0.0,0.0,0.0,0.0,0.0,0.0,0.0,0.0,0.0,0.0,0.0,0.0,0.0,0.0,0.0,0.0,0.0,0.0,0.0,-2.077,-2.1513,-2.1613,0.0,0.0,0.0,0.0,-2.2572,-2.325,0.0,0.0,0.0,0.0,0.0,0.0,0.0,0.0,0.0,0.0,0.0,0.0,0.0,0.0,0.0,0.0,0.0,0.0,0.0,0.0,0.0,0.0,0.0,0.0,0.0,0.0,0.0,0.0,0.0,0.0,0.0,0.0,0.0,0.0,0.0,0.0,0.0,0.0,0.0,0.0,0.0,0.0,0.0,0.0,0.0,0.0,0.0,0.0,0.0,0.0,0.0,0.0,0.0,0.0,0.0,0.0,-0.5272,-0.6062,-0.6972,-0.791,-0.847,-0.9588,-1.1341,-1.145,-1.184,0.0,0.0,0.0,0.0,0.0,0.0,0.0,0.0,0.0,0.0,0.0,0.0,0.0,0.0,0.0,0.0,0.0,0.0,0.0,0.0,0.0,0.0,0.0,0.0,0.0,0.0,0.0,0.0,0.0,0.0,0.0,0.0,0.0,0.0,0.0,0.0,0.0,0.0,0.0,0.0,0.0,-2.1869,-2.3001,-2.2478,-2.2269,0.0,0.0,-2.3611,-2.3914,-2.5109,0.0,0.0,0.0,0.0,0.0,0.0,0.0,0.0,0.0,0.0,0.0,0.0,0.0,0.0,0.0,0.0,0.0,0.0,0.0,0.0,0.0,0.0,0.0,0.0,0.0,0.0,0.0,0.0,0.0,0.0,0.0,0.0,0.0,0.0,0.0,0.0,0.0,0.0,0.0,0.0,0.0,0.0,0.0,0.0,0.0,0.0,0.0,0.0,0.0,0.0,0.0,0.0,0.0,0.0,0.0,-0.6438,-0.5749,-0.7304,-0.8356,-0.8609,-0.9231,-1.0265,-1.1643,-1.188,-1.2265,0.0,0.0,0.0,0.0,0.0,0.0,0.0,0.0,0.0,0.0,0.0,0.0,0.0,0.0,0.0,0.0,0.0,0.0,0.0,0.0,0.0,0.0,0.0,0.0,0.0,0.0,0.0,0.0,0.0,0.0,0.0,0.0,0.0,0.0,0.0,0.0,0.0,0.0,0.0,0.0,0.0,0.0,-2.4077,-2.4361,0.0,0.0,0.0,-2.5078,-2.344,0.0,0.0,0.0,0.0,0.0,0.0,0.0,0.0,0.0,0.0,0.0,0.0,0.0,0.0,0.0,0.0,0.0,0.0,0.0,0.0,0.0,0.0,0.0,0.0,0.0,0.0,0.0,0.0,0.0,0.0,0.0,0.0,0.0,0.0,0.0,0.0,0.0,0.0,0.0,0.0,0.0,0.0,0.0,0.0,0.0,0.0,0.0,0.0,0.0,0.0,0.0,0.0,0.0,0.0,0.0,0.0,0.0,-0.621,-0.8476,-0.9523,-0.9306,-0.9916,-1.087,-1.2225,-1.2575,0.0,0.0,0.0,0.0,0.0,0.0,0.0,0.0,0.0,0.0,0.0,0.0,0.0,0.0,0.0,0.0,0.0,0.0,0.0,0.0,0.0,0.0,0.0,0.0,0.0,0.0,0.0,-1.7539,0.0,0.0,0.0,0.0,0.0,0.0,0.0,0.0,0.0,0.0,0.0,0.0,0.0,0.0,-2.4293,-2.5147,-2.5931,-2.6657,0.0,0.0,-2.6519,-2.4249,-2.7422,-2.876,0.0,0.0,0.0,0.0,0.0,0.0,0.0,0.0,0.0,0.0,0.0,0.0,0.0,0.0,0.0,0.0,0.0,0.0,0.0,0.0,0.0,0.0,0.0,0.0,0.0,0.0,0.0,0.0,0.0,0.0,0.0,0.0,0.0,0.0,0.0,0.0,0.0,0.0,0.0,0.0,0.0,0.0,0.0,0.0,0.0,0.0,0.0,0.0,0.0,0.0,0.0,0.0,0.0,0.0,-0.7321,-0.6951,-0.8836,-0.9976,-1.0137,-1.0143,-1.1385,-1.378,-1.3505,-1.405,0.0,0.0,0.0,0.0,0.0,0.0,0.0,0.0,0.0,0.0,0.0,0.0,0.0,0.0,0.0,0.0,0.0,0.0,0.0,0.0,0.0,0.0,0.0,0.0,0.0,0.0,0.0,0.0,0.0,0.0,0.0,0.0,0.0,0.0,0.0,0.0,0.0,0.0,0.0,0.0,0.0,-2.5363,-2.6352,-2.6556,-2.7266,0.0,-2.8345,-2.7665,-2.7938,-3.0174,-3.1474,-3.0105,0.0,0.0,0.0,0.0,0.0,0.0,0.0,0.0,0.0,0.0,0.0,0.0,0.0,0.0,0.0,0.0,0.0,0.0,0.0,0.0,0.0,0.0,0.0,0.0,0.0,0.0,0.0,0.0,0.0,0.0,0.0,0.0,0.0,0.0,0.0,0.0,0.0,0.0,0.0,0.0,0.0,0.0,0.0,0.0,0.0,0.0,0.0,0.0,0.0,0.0,0.0,0.0,0.0,-0.8549,-0.8538,-1.0124,-1.1465,-1.2278,-1.1545,-1.2425,-1.5029,-1.4198,-1.4386,0.0,0.0,0.0,0.0,0.0,0.0,0.0,0.0,0.0,0.0,0.0,0.0,0.0,0.0,0.0,0.0,0.0,0.0,0.0,0.0,0.0,0.0,0.0,0.0,0.0,0.0,0.0,0.0,-2.1369,-2.1938,-2.3122,0.0,0.0,0.0,0.0,0.0,0.0,0.0,0.0,0.0,0.0,-2.6286,-2.8015,-2.8639,0.0,0.0,-2.9665,-2.9402,-2.8799,-3.0258,-3.1596,-3.1923,-2.8941,0.0,0.0,0.0,0.0,0.0,0.0,0.0,0.0,0.0,0.0,0.0,0.0,0.0,0.0,0.0,0.0,0.0,0.0,0.0,0.0,0.0,0.0,0.0,0.0,0.0,0.0,0.0,0.0,0.0,0.0,0.0,0.0,0.0,0.0,0.0,0.0,0.0,0.0,0.0,0.0,0.0,0.0,0.0,0.0,0.0,0.0,0.0,0.0,0.0,0.0,0.0,0.0,-0.9943,-0.9866,-1.1647,-1.2945,-1.3673,-1.2872,-1.344,-1.5392,-1.48,-1.5036,0.0,0.0,0.0,0.0,0.0,0.0,0.0,0.0,0.0,0.0,0.0,0.0,0.0,0.0,0.0,0.0,0.0,0.0,0.0,0.0,0.0,0.0,0.0,0.0,0.0,0.0,0.0,0.0,-2.2622,-2.327,-2.4602,0.0,0.0,0.0,0.0,0.0,0.0,0.0,0.0,0.0,0.0,-2.7451,-2.8722,-2.9404,-2.9658,-2.9305,-2.9507,-2.9807,-3.0235,-3.0375,-3.0423,-3.0383,0.0,0.0,0.0,0.0,0.0,0.0,0.0,0.0,0.0,0.0,0.0,0.0,0.0,0.0,0.0,0.0,0.0,0.0,0.0,0.0,0.0,0.0,0.0,0.0,0.0,0.0,0.0,0.0,0.0,0.0,-0.7794,0.0,0.0,0.0,0.0,0.0,0.0,0.0,0.0,0.0,0.0,0.0,0.0,0.0,0.0,0.0,0.0,0.0,0.0,0.0,0.0,0.0,0.0,-1.1249,-1.0804,-1.3215,-1.4243,-1.3745,-1.4019,-1.4458,-1.4974,-1.5313,-1.5973,-1.7071,0.0,0.0,0.0,0.0,0.0,0.0,0.0,0.0,0.0,0.0,0.0,0.0,0.0,0.0,0.0,0.0,0.0,0.0,0.0,0.0,0.0,0.0,0.0,0.0,0.0,0.0,-2.1283,-2.3158,-2.4685,0.0,0.0,0.0,0.0,0.0,0.0,0.0,0.0,0.0,0.0,-2.7358,-2.8897,-2.8094,-2.8237,-2.8496,-2.8389,-2.7588,-2.845,-3.262,-3.0859,-2.7958,0.0,0.0,0.0,0.0,0.0,0.0,0.0,0.0,0.0,0.0,0.0,0.0,0.0,0.0,0.0,0.0,0.0,0.0,0.0,0.0,0.0,0.0,0.0,0.0,0.0,0.0,0.0,-0.8858,-0.9213,0.0,0.0,0.0,0.0,0.0,0.0,0.0,0.0,0.0,0.0,0.0,-1.4029,-1.489,0.0,0.0,0.0,0.0,0.0,0.0,0.0,0.0,0.0,0.0,0.0,0.0,-1.1682,-1.1462,-1.3097,-1.4386,-1.5037,-1.4593,-1.4887,-1.6184,-1.6237,-1.6797,-1.808,0.0,0.0,0.0,0.0,0.0,0.0,0.0,0.0,0.0,0.0,0.0,0.0,0.0,0.0,0.0,0.0,0.0,0.0,0.0,0.0,0.0,0.0,0.0,0.0,0.0,-2.1795,0.0,0.0,0.0,0.0,0.0,0.0,0.0,0.0,0.0,0.0,0.0,-2.527,-2.6551,-2.7173,-2.769,-2.8228,-2.8489,-2.8797,0.0,0.0,0.0,0.0,0.0,0.0,0.0,0.0,0.0,0.0,0.0,0.0,0.0,0.0,-2.828,-2.7888,-2.9035,-3.0341,-3.1193,0.0,0.0,0.0,0.0,0.0,0.0,0.0,0.0,0.0,0.0,0.0,0.0,0.0,0.0,-1.045,0.0,-1.0539,0.0,0.0,0.0,0.0,0.0,0.0,0.0,0.0,-1.3639,-1.4568,-1.5131,-1.5633,-1.6206,0.0,-1.6641,-1.6105,0.0,0.0,0.0,0.0,0.0,0.0,0.0,0.0,-1.2656,-1.2555,-1.3793,-1.4903,-1.5692,-1.5251,-1.5471,-1.6473,-1.7001,-1.7678,-1.8555,-1.8701,-1.8696,0.0,0.0,0.0,0.0,0.0,0.0,0.0,0.0,0.0,0.0,0.0,0.0,0.0,0.0,0.0,0.0,0.0,0.0,0.0,0.0,0.0,0.0,0.0,-2.3221,0.0,0.0,0.0,0.0,0.0,0.0,0.0,0.0,0.0,-2.7091,-2.6643,-2.6654,-2.7868,-2.7815,-2.7737,-2.7875,0.0,0.0,0.0,0.0,0.0,0.0,0.0,-2.6913,-2.7098,-2.678,-2.8379,-3.4055,-3.2993,-3.1464,-3.1781,0.0,0.0,-3.0531,-3.1198,-3.2331,-3.3301,-3.3611,-3.3664,-3.3668,-3.3652,-3.3505,0.0,0.0,0.0,0.0,0.0,0.0,0.0,0.0,-1.204,-1.1358,0.0,-1.1112,0.0,0.0,0.0,0.0,0.0,-1.2441,0.0,0.0,-1.5155,-1.6025,-1.6294,-1.6361,-1.676,-1.7399,-1.7091,-1.6704,-1.6284,-1.6166,0.0,0.0,0.0,0.0,0.0,0.0,-1.4131,-1.4007,-1.511,-1.5762,-1.5833,-1.6123,-1.6193,-1.5974,-1.7619,-1.8499,-1.8556,-1.9083,-1.943,-1.9408,-1.9036,0.0,0.0,0.0,0.0,0.0,0.0,0.0,0.0,0.0,0.0,0.0,0.0,0.0,0.0,0.0,0.0,0.0,0.0,0.0,0.0,-2.5653,0.0,0.0,0.0,0.0,0.0,0.0,0.0,0.0,0.0,0.0,-2.6588,-2.7313,-2.7946,-2.8431,0.0,0.0,0.0,0.0,-2.7363,-2.5176,-2.4829,-2.4879,-2.4676,-2.5857,-2.8281,-3.2583,0.0,0.0,-3.3312,-3.2936,-3.2734,-3.3567,-3.4812,-3.4933,-3.2173,-3.1825,-3.2226,-3.3415,-3.3635,-3.3639,-3.4614,-3.4973,-3.4898,-1.4202,0.0,0.0,0.0,0.0,-1.3668,-1.397,-1.4305,-1.3934,-1.3533,-1.3003,-1.2955,0.0,0.0,0.0,0.0,0.0,0.0,-1.4101,-1.5177,-1.5928,-1.6514,-1.7098,-1.7388,-1.7812,-1.8405,-1.8284,-1.8157,-1.8025,-1.7484,-1.6178,-1.411,0.0,0.0,0.0,0.0,-1.3838,-1.401,-1.5158,-1.5912,-1.6132,-1.6551,-1.7019,-1.7687,-1.823,-1.8844,-1.9605,-1.9803,-1.9779,-1.943,-1.9738,0.0,0.0,0.0,0.0,0.0,0.0,0.0,0.0,0.0,0.0,0.0,0.0,0.0,0.0,0.0,0.0,0.0,0.0,0.0,-2.4795,-2.5664,-2.5713,0.0,0.0,0.0,0.0,0.0,0.0,0.0,0.0,0.0,-2.8275,-2.8857,-2.8761,0.0,0.0,-2.5874,-2.5297,-2.652,-2.7484,-2.7506,-2.7997,0.0,-2.6804,-2.7712,-2.9641,-3.2873,-3.43,-3.4692,-3.3626,-3.5108,-3.6395,-3.6064,-3.6359,-3.6417,-3.5915,-3.6316,-3.6901,-3.7585,-3.7811,-3.7769,-3.7631,-3.7558,-3.7329,-1.5685,-1.4972,-1.4433,-1.4356,-1.4602,-1.4906,-1.5253,-1.5554,-1.5225,-1.4657,-1.4093,-1.4006,-1.3469,-1.2629,-1.292,0.0,0.0,0.0,-1.5115,-1.627,-1.6478,-1.694,-1.7628,-1.792,-1.8337,-1.8942,-1.8952,-1.8664,-1.825,-1.7523,-1.62,-1.436,0.0,0.0,-1.2891,-1.349,-1.403,-1.4445,-1.5225,-1.5771,-1.6281,-1.6551,-1.7166,-1.8104,-1.8375,-1.8911,-1.9736,-2.0009,-2.0062,-2.0083,-2.0492,-2.057,0.0,0.0,0.0,0.0,0.0,0.0,0.0,0.0,0.0,0.0,0.0,-2.2496,-2.1084,0.0,0.0,0.0,-2.3683,-2.5876,-2.5813,-2.618,0.0,0.0,0.0,0.0,0.0,0.0,0.0,-2.5293,-2.7356,-2.8855,-2.881,-2.9641,-2.9871,-2.879,-2.7753,-2.6969,-2.6632,0.0,-2.8742,-2.9017,-2.9362,-2.9307,-2.8629,-2.9394,-3.083,-3.3033,-3.4704,-3.5381,-3.4256,-3.5548,-3.6544,-3.6146,-3.5783,-3.5654,-3.5926,-3.6749,-3.7922,-3.9183,-3.9354,-3.9207,-3.9153,-3.9153,-3.8925,-1.673,-1.6545,-1.5273,-1.5181,-1.5745,-1.5761,-1.5944,-1.6182,-1.5909,-1.5157,-1.4283,-1.4522,-1.3934,-1.2797,-1.3453,0.0,-1.4801,-1.5568,-1.6289,-1.7001,-1.707,-1.7451,-1.8047,-1.8066,-1.8442,-1.9131,-1.9065,-1.8519,-1.7453,-1.668,-1.5748,-1.4788,-1.4651,-1.4334,-1.3616,-1.3902,-1.4506,-1.53,-1.527,-1.5596,-1.6342,-1.6351,-1.676,-1.7706,-1.824,-1.8777,-1.9309,-1.9802,-2.0388,-2.0985,-2.1254,-2.1571,-2.206,0.0,0.0,0.0,0.0,0.0,0.0,0.0,0.0,0.0,0.0,0.0,0.0,0.0,0.0,-2.0499,-2.5271,0.0,-2.8622,-2.7115,0.0,0.0,0.0,-2.6322,-2.7939,-2.8452,-2.8637,-2.851,0.0,0.0,-2.8703,-3.0033,-3.1246,-3.2154,-3.141,-3.0471,-2.9682,-3.0224,-3.0618,-2.9926,-2.9706,-2.9829,-3.0385,-3.1025,-3.19,-3.3172,-3.4081,-3.4606,-3.4588,-3.4751,-3.4733,-3.4715,-3.4009,-3.3662,-3.3872,-3.4623,-3.5808,-3.8646,-3.8723,-3.8558,-3.9258,-3.9504,-3.9318,-1.673,-1.6624,-1.6292,-1.6333,-1.6476,-1.6484,-1.6532,-1.653,-1.6219,-1.5818,-1.5284,-1.5114,-1.4719,-1.4148,-1.4279,-1.4775,-1.5558,-1.6305,-1.702,-1.7755,-1.8307,-1.8664,-1.8808,-1.8798,-1.8931,-1.9075,-1.8519,-1.8094,-1.7823,-1.6564,-1.5601,-1.5061,-1.4514,-1.4002,-1.36,-1.3939,-1.4463,-1.5291,-1.5505,-1.5963,-1.6682,-1.676,-1.7038,-1.7706,-1.824,-1.8767,-1.9309,-1.9802,-2.0205,-2.0324,-2.1323,-2.1946,-2.2122,-2.215,0.0,0.0,0.0,0.0,0.0,0.0,0.0,0.0,0.0,-2.4623,-2.3011,0.0,-2.2938,0.0,-2.557,-2.8401,-2.8781,-2.8885,0.0,0.0,-2.7959,-2.7738,-2.8941,-2.9771,-2.9764,-2.847,-3.0414,-3.1589,-3.0833,-3.1912,-3.2988,-3.3562,-3.1343,-2.9514,-2.9225,-3.0513,-3.1414,-3.134,-3.215,-3.3049,-3.3038,-3.3003,-3.298,-3.3357,-3.4081,-3.4606,-3.4606,-3.515,-3.5331,-3.4751,-3.448,-3.4347,-3.4327,-3.4256,-3.4797,-3.6682,-3.7529,-3.7834,-3.7694,-3.8061,-3.8282,-1.673,-1.673,-1.673,-1.673,-1.673,-1.673,-1.673,-1.6648,-1.6347,-1.6132,-1.588,-1.537,-1.4977,-1.4641,-1.4991,-1.5346,-1.5833,-1.6594,-1.7148,-1.755,-1.825,-1.8613,-1.8598,-1.8957,-1.9131,-1.9065,-1.8375,-1.7823,-1.7482,-1.6315,-1.5511,-1.4952,-1.4689,-1.4441,-1.4093,-1.4072,-1.4421,-1.4958,-1.5668,-1.6292,-1.689,-1.6908,-1.7092,-1.7437,-1.7895,-1.8324,-1.8701,-1.9221,-1.961,-1.9912,-2.0874,-2.1869,-2.2917,-2.2421,-2.1891,0.0,0.0,0.0,0.0,0.0,0.0,0.0,0.0,0.0,0.0,0.0,-2.481,-2.4029,-2.7175,-2.9093,-2.875,-2.9005,-2.947,-3.0201,-2.9574,-2.9626,-3.1031,-3.1629,-3.1528,-3.0543,-3.2133,-3.3047,-3.2097,-3.2565,-3.3131,-3.3449,-3.1874,-3.0836,-3.1146,-3.2041,-3.2625,-3.2662,-3.3305,-3.3844,-3.3826,-3.3582,-3.3393,-3.3429,-3.3773,-3.4063,-3.4063,-3.4135,-3.4045,-3.361,-3.3288,-3.3092,-3.3092,-3.325,-3.3621,-3.4455,-3.5409,-3.621,-3.6849,-3.6611,-3.6302,-1.673,-1.673,-1.673,-1.673,-1.673,-1.673,-1.673,-1.6648,-1.6355,-1.6218,-1.6095,-1.5459,-1.4982,-1.4641,-1.5346,-1.5621,-1.5692,-1.6446,-1.6724,-1.6802,-1.755,-1.7861,-1.7886,-1.8552,-1.8798,-1.8787,-1.8037,-1.7413,-1.6724,-1.5965,-1.5242,-1.4577,-1.4925,-1.4948,-1.4662,-1.4347,-1.4378,-1.4689,-1.5752,-1.6486,-1.6817,-1.678,-1.6782,-1.6901,-1.7406,-1.7721,-1.7883,-1.8373,-1.8966,-1.9608,-2.018,-2.1423,-2.3434,-2.2432,-2.1629,0.0,-2.1879,0.0,0.0,0.0,0.0,0.0,0.0,0.0,0.0,-2.6259,-2.6562,-2.6805,-2.9089,-3.0019,-2.8936,-2.8781,-2.9532,-3.1426,-3.1194,-3.1524,-3.2997,-3.3262,-3.3183,-3.2961,-3.316,-3.3099,-3.2634,-3.2538,-3.2499,-3.2634,-3.2563,-3.259,-3.3375,-3.3506,-3.3552,-3.3707,-3.3549,-3.3452,-3.3364,-3.3316,-3.328,-3.3316,-3.337,-3.3364,-3.3447,-3.2951,-3.2444,-3.2418,-3.2165,-3.1743,-3.1561,-3.2232,-3.2658,-3.2996,-3.3382,-3.422,-3.588,-3.5437,-3.4591,-1.673,-1.673,-1.673,-1.673,-1.673,-1.673,-1.673,-1.673,-1.664,-1.6285,-1.5761,-1.5356,-1.4982,-1.4649,-1.4784,-1.4848,-1.4848,-1.5621,-1.5965,-1.6035,-1.6793,-1.7116,-1.7121,-1.7271,-1.7354,-1.7276,-1.6594,-1.6175,-1.5965,-1.5196,-1.4632,-1.422,-1.462,-1.4653,-1.4313,0.0,0.0,0.0,-1.5885,-1.6273,-1.6242,-1.6017,-1.5946,-1.5993,-1.6498,0.0,-1.7378,-1.8097,-1.8715,-1.9205,-2.0088,0.0,0.0,0.0,0.0,0.0,0.0,0.0,0.0,0.0,0.0,0.0,-2.5986,-2.6298,-2.6616,-2.6973,-2.7437,-2.8047,-2.9551,-3.054,-3.0594,-3.0893,-3.1232,-3.1636,-3.1725,-3.195,-3.2403,-3.2737,-3.2884,-3.2687,-3.2737,-3.2733,-3.2586,-3.2219,-3.213,-3.2484,-3.2588,-3.2654,-3.2798,-3.3019,-3.316,-3.316,-3.3304,-3.3304,-3.3135,-3.2893,-3.2809,-3.2983,-3.3086,-3.3165,-3.3316,-3.3372,-3.3294,-3.3294,-3.3305,-3.324,-3.3221,-3.2963,-3.2842,-3.3578,-3.2753,-3.241,-3.4191,-3.4395,-3.4303,-1.5733,0.0,-1.5733,-1.5733,0.0,-1.5824,-1.5914,-1.5914,-1.6484,-1.6412,-1.5926,-1.5554,-1.5245,-1.4895,-1.472,-1.4569,-1.4641,-1.5062,-1.5204,-1.5267,-1.6035,-1.6341,-1.6399,-1.6757,-1.6996,-1.7107,-1.6368,-1.6105,-1.6254,-1.5559,-1.5105,-1.4924,-1.5341,-1.5394,-1.5223,-1.5757,-1.5909,-1.5674,-1.6117,-1.6242,-1.6147,-1.6233,-1.6202,-1.601,-1.6495,0.0,0.0,0.0,0.0,0.0,0.0,0.0,0.0,-2.1176,0.0,-2.3973,-2.3606,-2.3754,-2.4753,-2.502,-2.5599,-2.6768,-2.7303,-2.7487,-2.7337,-2.8302,-2.8988,-2.9165,-2.9969,-3.0679,-3.1172,-3.1414,-3.1731,-3.2038,-3.2127,-3.2197,-3.2386,-3.2573,-3.2623,-3.2472,-3.255,-3.2515,-3.2231,-3.2004,-3.1899,-3.2144,-3.2197,-3.2197,-3.2232,-3.2555,-3.2784,-3.2802,-3.3176,-3.3243,-3.2834,-3.2467,-3.2378,-3.2727,-3.2848,-3.2961,-3.3104,-3.3196,-3.3238,-3.3268,-3.3368,-3.3437,-3.3447,-3.3148,-3.3104,-3.3488,-3.3177,-3.2885,-3.3616,-3.3939,-3.4241,-1.4734,-1.4734,-1.4734,-1.4734,-1.4824,-1.5006,-1.5166,-1.5249,0.0,0.0,0.0,-1.5623,-1.5318,-1.4942,-1.479,-1.4624,-1.4569,-1.4569,-1.4641,-1.4856,-1.5196,-1.5564,-1.5842,-1.6246,-1.6684,-1.7076,-1.6535,-1.6385,-1.6691,-1.6114,-1.5833,-1.5833,-1.6123,-1.6342,-1.6421,-1.6769,-1.6674,-1.6238,-1.6291,-1.6296,-1.6258,-1.656,-1.6541,-1.6221,-1.6581,-1.7051,-1.7523,-1.8108,-1.8775,-1.9584,-2.0216,-2.0015,-1.8748,-2.0921,-2.3133,-2.4943,-2.4203,-2.4171,-2.5393,-2.5355,-2.6089,-2.7993,-2.8444,-2.8514,-2.8149,-2.9364,-3.0103,-2.9973,-3.0215,-3.0559,-3.1089,-3.1206,-3.149,-3.2073,-3.2073,-3.2127,-3.2352,-3.237,-3.2266,-3.2179,-3.2405,-3.2405,-3.1893,-3.1826,-3.1774,-3.1694,-3.1746,-3.1726,-3.18,-3.2144,-3.2573,-3.269,-3.2983,-3.3042,-3.2659,-3.2239,-3.2115,-3.2583,-3.2654,-3.2719,-3.2866,-3.2916,-3.2948,-3.2993,-3.3037,-3.3142,-3.3142,-3.3225,-3.3273,-3.3302,-3.3676,-3.3869,-3.3488,-3.3643,-3.3938,-1.4734,-1.4734,-1.4734,-1.4824,-1.5082,-1.5082,-1.5166,-1.5318,-1.5333,-1.5196,-1.5071,-1.4765,-1.4445,-1.4118,-1.4739,-1.4854,-1.4569,-1.4569,-1.4991,-1.5551,-1.4418,-1.4496,-1.5698,-1.5199,-1.5284,-1.6008,-1.5912,-1.5903,-1.5974,-1.5833,-1.5833,-1.5833,-1.6123,-1.6482,-1.6839,-1.6908,-1.6866,-1.6781,-1.6483,-1.6444,-1.6756,-1.6215,-1.5835,-1.578,-1.6067,-1.6351,-1.6855,-1.7873,-1.8654,-1.9157,-2.0065,-2.0451,-2.0299,-2.1464,-2.3199,-2.5493,-2.5476,-2.5425,-2.5821,-2.6222,-2.6791,-2.761,-2.8039,-2.8511,-2.9025,-2.8865,-2.9,-2.9717,-2.9881,-2.9924,-3.0038,-3.0393,-3.0699,-3.0821,-3.0965,-3.1201,-3.1596,-3.1657,-3.1696,-3.1802,-3.2318,-3.2371,-3.1854,-3.1748,-3.1582,-3.1334,-3.1406,-3.1479,-3.1462,-3.1839,-3.2335,-3.2603,-3.2616,-3.2586,-3.2403,-3.2297,-3.221,-3.2488,-3.2489,-3.2506,-3.2755,-3.2848,-3.2943,-3.3037,-3.305,-3.3154,-3.3202,-3.3291,-3.3214,-3.3184,-3.3358,-3.3352,-3.3243,-3.3247,-3.3259,-1.3294,-1.2942,-1.3555,-1.3899,-1.4068,-1.4243,-1.4496,-1.4657,-1.4412,-1.465,-1.5131,-1.4837,-1.4605,-1.4494,-1.462,-1.4615,-1.4456,-1.4275,-1.4405,-1.4749,-1.4286,-1.4496,-1.5097,-1.5199,-1.5534,-1.6062,-1.6035,-1.6193,-1.6412,-1.6403,-1.6394,-1.6412,-1.6542,-1.6551,-1.6333,-1.6333,-1.6474,-1.6899,-1.6729,-1.6688,-1.6867,-1.6631,-1.6541,-1.6541,-1.6693,-1.7158,-1.7785,-1.8359,-1.8913,-1.964,-2.0458,-2.1087,-2.1481,-2.2212,-2.3162,-2.4341,-2.4954,-2.5406,-2.5605,-2.651,-2.71,-2.724,-2.7745,-2.8174,-2.8496,-2.8591,-2.8865,-2.9467,-2.9488,-2.9588,-2.9968,-3.0231,-3.0401,-3.0493,-3.0559,-3.0723,-3.0902,-3.0948,-3.101,-3.1134,-3.1708,-3.1888,-3.119,-3.11,-3.11,-3.0965,-3.1157,-3.1269,-3.119,-3.1462,-3.1691,-3.1841,-3.1965,-3.1946,-3.1819,-3.1679,-3.1679,-3.1944,-3.191,-3.1982,-3.2231,-3.2301,-3.2248,-3.2248,-3.2299,-3.2299,-3.2351,-3.2368,-3.2468,-3.2684,-3.2784,-3.2848,-3.297,-3.3028,-3.3205,-1.1929,-1.1499,-1.2534,-1.3058,-1.3228,-1.3652,-1.3913,-1.4082,-1.3913,-1.4321,-1.4956,-1.4735,-1.46,-1.4596,-1.4511,-1.4438,-1.4343,-1.411,-1.407,-1.4268,-1.426,-1.4467,-1.4824,-1.5289,-1.569,-1.6085,-1.6137,-1.6385,-1.6812,-1.6892,-1.6838,-1.6756,-1.6666,-1.6263,-1.5542,-1.5692,-1.6043,-1.6581,-1.6754,-1.6824,-1.7073,-1.7162,-1.7235,-1.7235,-1.7451,-1.7852,-1.8499,-1.8767,-1.9166,-1.9835,-2.0537,-2.1354,-2.2159,-2.2653,-2.2932,-2.3195,-2.4047,-2.4842,-2.5495,-2.6472,-2.7011,-2.693,-2.7414,-2.778,-2.7815,-2.8261,-2.8669,-2.895,-2.9085,-2.9278,-2.9585,-2.9957,-3.0156,-3.0208,-3.0293,-3.0377,-3.0477,-3.0435,-3.0393,-3.0543,-3.1116,-3.1241,-3.0676,-3.0419,-3.0427,-3.0608,-3.0699,-3.0716,-3.0716,-3.0716,-3.0642,-3.0814,-3.1173,-3.1482,-3.1269,-3.124,-3.1312,-3.1577,-3.1513,-3.1521,-3.1648,-3.1559,-3.1559,-3.16,-3.1579,-3.1637,-3.1617,-3.1654,-3.1821,-3.2126,-3.2406,-3.2598,-3.271,-3.2752,-3.3019,-1.1154,-1.1677,-1.2272,-1.2966,-1.3652,-1.3913,-1.4004,-1.4082,-1.4082,-1.4088,-1.4243,-1.3957,-1.3798,-1.3824,-1.442,-1.4562,-1.4294,-1.4229,-1.4595,-1.5065,-1.3981,-1.4057,-1.5234,-1.4808,-1.485,-1.5539,-1.5607,-1.602,-1.6721,-1.6831,-1.6676,-1.6404,-1.6067,-1.5568,-1.4911,-1.5488,-1.5831,-1.5828,-1.6175,-1.6718,-1.7379,-1.7263,-1.7314,-1.7461,-1.7579,-1.7706,-1.7833,-1.8576,-1.8977,-1.9177,-2.0085,-2.1076,-2.2013,-2.2219,-2.2518,-2.3039,-2.3211,-2.4015,-2.5632,-2.5948,-2.6286,-2.6765,-2.7115,-2.7386,-2.7423,-2.7765,-2.7981,-2.811,-2.8666,-2.8731,-2.8271,-2.915,-2.9601,-2.939,-2.9645,-3.0027,-3.0309,-3.0123,-3.0011,-3.046,-3.0551,-3.0584,-3.0377,-3.0079,-2.9939,-3.0074,-2.9777,-2.9572,-2.9528,-2.9377,-2.9271,-2.9585,-3.0393,-3.1213,-3.1257,-3.1428,-3.1363,-3.156,-3.1568,-3.1372,-3.1266,-3.1376,-3.1504,-3.1428,-3.1542,-3.1542,-3.1634,-3.1763,-3.1763,-3.1908,-3.2296,-3.2754,-3.2441,-3.2301,-3.2519,-1.1068,-1.1327,-1.1763,-1.2448,-1.3222,-1.296,-1.3307,-1.4088,-1.3652,-1.3652,-1.4088,-1.3997,-1.3924,-1.3901,-1.4227,-1.4324,-1.4185,-1.4006,-1.4083,-1.4374,-1.3973,-1.4212,-1.4713,-1.4958,-1.5184,-1.5521,-1.5513,-1.565,-1.604,-1.6505,-1.6506,-1.6046,-1.672,-1.6504,-1.546,-1.6201,-1.6331,-1.5494,-1.611,-1.6797,-1.7207,-1.7138,-1.7047,-1.7185,-1.7588,-1.7862,-1.792,-1.8395,-1.8731,-1.8798,-1.9759,-2.0322,-2.0342,-2.1717,-2.238,-2.2311,-2.289,-2.367,-2.4738,-2.5133,-2.5522,-2.592,-2.6136,-2.6297,-2.65,-2.6948,-2.7158,-2.6997,-2.742,-2.7795,-2.8088,-2.8479,-2.867,-2.8638,-2.8997,-2.9319,-2.9393,-2.9438,-2.9528,-2.9853,-2.9778,-2.9675,-2.9633,-2.938,-2.9214,-2.93,-2.9104,-2.9136,-2.9074,-2.8982,-2.8982,-2.9166,-2.9761,-3.0048,-3.0149,-3.0048,-3.0359,-3.0784,-3.0799,-3.0592,-3.0971,-3.1067,-3.1134,-3.1173,-3.1157,-3.1213,-3.123,-3.1329,-3.1368,-3.1648,-3.2179,-3.2598,-3.2107,-3.2279,-3.2669,-1.0809,-1.0895,-1.1499,-1.21,-1.2699,-1.2186,-1.2619,-1.3392,-1.296,-1.313,-1.3737,-1.3822,-1.3913,-1.4088,-1.4088,-1.4088,-1.4055,-1.3861,-1.3768,-1.3741,-1.4079,-1.4264,-1.4342,-1.4815,-1.5146,-1.5137,-1.505,-1.5395,-1.5842,-1.6843,-1.6886,-1.6401,-1.702,-1.6826,-1.575,-1.6345,-1.6304,-1.5631,-1.616,-1.6657,-1.6957,-1.6872,-1.6946,-1.73,-1.8002,-1.8429,-1.8498,-1.8764,-1.897,-1.9049,-1.9899,-1.9985,-1.9228,-2.091,-2.1771,-2.1342,-2.2262,-2.3135,-2.3695,-2.4381,-2.4881,-2.5231,-2.5398,-2.5646,-2.5921,-2.6323,-2.6403,-2.624,-2.6468,-2.7083,-2.776,-2.7974,-2.8057,-2.8137,-2.8479,-2.8685,-2.8653,-2.8779,-2.8967,-2.9137,-2.9328,-2.9074,-2.881,-2.8716,-2.8764,-2.8764,-2.8889,-2.8951,-2.8904,-2.8873,-2.8873,-2.892,-2.9028,-2.915,-2.9166,-2.9422,-2.9637,-2.9798,-2.9995,-3.0215,-3.0601,-3.0659,-3.0651,-3.0593,-3.0651,-3.0692,-3.0757,-3.0838,-3.1015,-3.1411,-3.1804,-3.2109,-3.2074,-3.2316,-3.2437,-0.9781,-1.0467,-1.1499,-1.2015,-1.2009,-1.1929,-1.2015,-1.2272,-1.21,-1.2443,-1.3045,-1.3045,-1.3476,-1.4082,-1.4088,-1.4088,-1.4088,-1.4055,-1.4035,-1.4041,-1.4099,-1.4119,-1.4132,-1.4132,-1.4223,-1.4271,-1.4273,-1.5036,-1.6498,-1.7822,-1.8208,-1.7406,-1.65,-1.5705,-1.5343,-1.5428,-1.5459,-1.6053,-1.63,-1.642,-1.6539,-1.6573,-1.7133,-1.8119,-1.8835,-1.9232,-1.9675,-1.9838,-1.9992,-2.0369,-2.073,-2.0392,-1.9406,-1.9863,-2.0314,-2.034,-2.1315,-2.2237,-2.2895,-2.361,-2.4239,-2.4867,-2.5356,-2.5839,-2.5784,-2.5881,-2.5921,-2.592,-2.6111,-2.65,-2.7012,-2.763,-2.7974,-2.784,-2.8137,-2.8348,-2.8396,-2.8444,-2.8444,-2.8618,-2.9168,-2.9074,-2.7952,-2.8279,-2.8591,-2.8685,-2.8701,-2.8669,-2.8525,-2.8493,-2.8444,-2.8493,-2.8525,-2.8637,-2.9241,-2.9303,-2.9326,-2.9468,-2.9548,-2.9837,-2.9995,-3.0087,-3.0049,-3.0044,-3.0215,-3.03,-3.0309,-3.0477,-3.0699,-3.0902,-3.0885,-3.1128,-3.1785,-3.1504,-3.1691,-0.9868,-1.0207,-1.0982,-1.1327,-1.1327,-1.0895,-1.1241,-1.1929,-1.1666,-1.1929,-1.2534,-1.279,-1.33,-1.4068,-1.4068,-1.4075,-1.4088,-1.4088,-1.4088,-1.4088,-1.4088,-1.4088,-1.4088,-1.4088,-1.4088,-1.4088,-1.4088,-1.4412,-1.5061,-1.6083,-1.6191,-1.5784,-1.6404,-1.6493,-1.6012,-1.6652,-1.7058,-1.6916,-1.7075,-1.6987,-1.6724,-1.7146,-1.7699,-1.8057,-1.8197,-1.8682,-1.9495,-1.9693,-2.0124,-2.0786,-2.115,-2.122,-2.0769,-2.056,-2.0467,-2.0584,-2.1146,-2.1839,-2.2334,-2.2702,-2.322,-2.3962,-2.4266,-2.4751,-2.516,-2.5342,-2.5342,-2.5329,-2.537,-2.5586,-2.5781,-2.6361,-2.6893,-2.7086,-2.7545,-2.791,-2.8088,-2.8284,-2.8398,-2.8605,-2.8935,-2.8777,-2.8332,-2.8334,-2.851,-2.851,-2.851,-2.8429,-2.8332,-2.8137,-2.8039,-2.8235,-2.822,-2.8238,-2.8653,-2.8795,-2.8857,-2.8912,-2.9,-2.9299,-2.9468,-2.9881,-2.9951,-2.9984,-3.0027,-3.013,-3.0241,-3.0368,-3.0551,-3.0551,-3.051,-3.0855,-3.1414,-3.1368,-3.1637,-1.0038,-1.0038,-1.0472,-1.0722,-1.0722,-1.0294,-1.0636,-1.1499,-1.1241,-1.1499,-1.21,-1.2357,-1.3039,-1.3971,-1.4139,-1.4314,-1.4496,-1.4496,-1.4496,-1.4503,-1.4496,-1.4426,-1.4355,-1.4341,-1.425,-1.4166,-1.4419,-1.4657,-1.4992,-1.556,-1.5726,-1.5809,-1.6624,-1.687,-1.6714,-1.7286,-1.7375,-1.7221,-1.7375,-1.7286,-1.6976,-1.7465,-1.7878,-1.7883,-1.7752,-1.8239,-1.9389,-1.9964,-2.0553,-2.1218,-2.1743,-2.2056,-2.2033,-2.1473,-2.1075,-2.0908,-2.1126,-2.1411,-2.1737,-2.1987,-2.2457,-2.304,-2.3339,-2.3754,-2.435,-2.4717,-2.4975,-2.498,-2.5121,-2.5177,-2.5231,-2.5576,-2.5988,-2.6563,-2.7108,-2.7479,-2.7575,-2.7894,-2.8137,-2.8213,-2.8088,-2.805,-2.8052,-2.7931,-2.789,-2.7974,-2.7974,-2.7974,-2.8008,-2.791,-2.7795,-2.8155,-2.8155,-2.822,-2.8429,-2.8573,-2.8745,-2.8826,-2.8638,-2.8835,-2.9029,-2.9472,-2.9789,-2.9865,-2.9968,-3.007,-3.0172,-3.03,-3.0377,-3.0361,-3.0493,-3.0797,-3.1157,-3.1449,-3.1694,-1.0038,-1.0038,-1.0038,-1.0207,-1.0381,-1.0294,-1.0467,-1.0727,-1.0727,-1.116,-1.1677,-1.1763,-1.2613,-1.3802,-1.3886,-1.4475,-1.5144,-1.5228,-1.5228,-1.5311,-1.5311,-1.5097,-1.4726,-1.4678,-1.4496,-1.4166,-1.4901,-1.5718,-1.6206,-1.6288,-1.687,-1.787,-1.6714,-1.6558,-1.731,-1.6656,-1.6409,-1.673,-1.7057,-1.7131,-1.7131,-1.7392,-1.7546,-1.77,-1.7713,-1.8391,-1.9759,-2.0613,-2.1273,-2.1824,-2.252,-2.2941,-2.2838,-2.2457,-2.1888,-2.1241,-2.1045,-2.0948,-2.1031,-2.1639,-2.2051,-2.2421,-2.2774,-2.3195,-2.3577,-2.4275,-2.4816,-2.5003,-2.5168,-2.5368,-2.5354,-2.5439,-2.5743,-2.6404,-2.6901,-2.7056,-2.6982,-2.7255,-2.7578,-2.7565,-2.7247,-2.701,-2.7208,-2.7314,-2.7255,-2.7342,-2.7348,-2.7449,-2.773,-2.783,-2.7864,-2.7963,-2.8042,-2.8137,-2.825,-2.8427,-2.8678,-2.8852,-2.8587,-2.8512,-2.8451,-2.8748,-2.918,-2.9348,-2.9793,-2.9941,-3.0172,-3.03,-3.036,-3.0377,-3.0567,-3.0723,-3.1044,-3.1355,-3.1507,-1.0207,-1.0207,-1.0386,-1.0472,-1.0549,-1.0554,-1.0641,-1.0727,-1.0824,-1.1008,-1.117,-1.1343,-1.2112,-1.296,-1.313,-1.3964,-1.5311,-1.5394,-1.5394,-1.5394,-1.5394,-1.5318,-1.5249,-1.5151,-1.4901,-1.4566,-1.4448,-1.4615,-1.4977,-1.5228,-1.556,-1.5809,-1.6162,-1.6245,-1.659,-1.65,-1.6656,-1.6894,-1.7057,-1.7139,-1.731,-1.7546,-1.7619,-1.7691,-1.787,-1.8273,-1.9073,-2.0157,-2.1078,-2.1983,-2.2756,-2.3243,-2.3408,-2.3475,-2.2799,-2.1474,-2.1451,-2.1438,-2.114,-2.1348,-2.1815,-2.2298,-2.2665,-2.3122,-2.3618,-2.3696,-2.4131,-2.4718,-2.4753,-2.4589,-2.4771,-2.4959,-2.5355,-2.6165,-2.6365,-2.6616,-2.6736,-2.6893,-2.6989,-2.6995,-2.6989,-2.6842,-2.6725,-2.688,-2.7509,-2.7449,-2.7365,-2.747,-2.7849,-2.7695,-2.791,-2.8171,-2.8088,-2.794,-2.7974,-2.8073,-2.8213,-2.8452,-2.8345,-2.8253,-2.8143,-2.8225,-2.8606,-2.9074,-2.9483,-2.9853,-3.0087,-3.0284,-3.0402,-3.0427,-3.0559,-3.0781,-3.1044,-3.1257,-3.1411,-1.0381,-1.0467,-1.0641,-1.0733,-1.0824,-1.0824,-1.0824,-1.0906,-1.1089,-1.1094,-1.1181,-1.1267,-1.1854,-1.2619,-1.3039,-1.4041,-1.5311,-1.5726,-1.5899,-1.5891,-1.5899,-1.5809,-1.5606,-1.5321,-1.5177,-1.4887,-1.435,-1.4434,-1.4999,-1.4824,-1.5132,-1.589,-1.6065,-1.6254,-1.649,-1.6719,-1.6976,-1.7131,-1.7212,-1.7375,-1.7546,-1.7708,-1.787,-1.804,-1.8201,-1.8523,-1.8922,-1.9932,-2.0934,-2.1907,-2.2809,-2.3486,-2.3621,-2.3962,-2.3595,-2.2491,-2.2033,-2.1957,-2.1631,-2.1612,-2.1788,-2.2334,-2.2445,-2.2689,-2.3182,-2.2946,-2.3255,-2.3688,-2.382,-2.3787,-2.4013,-2.4478,-2.4978,-2.5674,-2.6096,-2.6365,-2.663,-2.6525,-2.6443,-2.6428,-2.6625,-2.6547,-2.663,-2.6784,-2.7393,-2.7217,-2.7011,-2.6806,-2.7181,-2.7122,-2.7393,-2.761,-2.7575,-2.7524,-2.7645,-2.7745,-2.7795,-2.791,-2.8008,-2.8027,-2.7981,-2.8125,-2.835,-2.8982,-2.9467,-2.9881,-3.0172,-3.0485,-3.0658,-3.0634,-3.0675,-3.0918,-3.1157,-3.1196,-3.1312,-1.0467,-1.0727,-1.0733,-1.0824,-1.1008,-1.1008,-1.1094,-1.1262,-1.1267,-1.1267,-1.1267,-1.1267,-1.1774,-1.2619,-1.3118,-1.4041,-1.5318,-1.5967,-1.6405,-1.6562,-1.6637,-1.6523,-1.6093,-1.5599,-1.5381,-1.5289,-1.4956,-1.5282,-1.6221,-1.5643,-1.5883,-1.7338,-1.6708,-1.6557,-1.7123,-1.7211,-1.7131,-1.7302,-1.7538,-1.7691,-1.77,-1.7951,-1.821,-1.862,-1.8692,-1.8922,-1.939,-2.0245,-2.1021,-2.169,-2.301,-2.3683,-2.37,-2.4022,-2.4084,-2.37,-2.2982,-2.2515,-2.2265,-2.2085,-2.2185,-2.2309,-2.2309,-2.2271,-2.2445,-2.2566,-2.2528,-2.2676,-2.2968,-2.3167,-2.336,-2.3935,-2.4681,-2.5216,-2.5825,-2.6312,-2.6525,-2.6165,-2.592,-2.5957,-2.6133,-2.6297,-2.6443,-2.6578,-2.6433,-2.6108,-2.5972,-2.5833,-2.5892,-2.6283,-2.6297,-2.663,-2.7115,-2.7195,-2.7354,-2.781,-2.791,-2.8039,-2.8073,-2.8057,-2.8076,-2.822,-2.8317,-2.8889,-2.9512,-2.9881,-3.0241,-3.0593,-3.0855,-3.0895,-3.0975,-3.1151,-3.1213,-3.1252,-3.1329,-1.0829,-1.0916,-1.1089,-1.1176,-1.1267,-1.1267,-1.1262,-1.1267,-1.1267,-1.1354,-1.1267,-1.1267,-1.1516,-1.1688,-1.194,-1.2869,-1.425,-1.5036,-1.6015,-1.7043,-1.7135,-1.6877,-1.659,-1.6355,-1.6108,-1.6087,-1.6719,-1.7155,-1.6542,-1.6878,-1.7188,-1.7179,-1.7311,-1.7351,-1.7564,-1.7278,-1.7465,-1.7951,-1.7781,-1.7781,-1.7951,-1.829,-1.8531,-1.87,-1.9002,-1.9311,-1.9784,-2.0722,-2.1721,-2.2542,-2.3508,-2.402,-2.4082,-2.4587,-2.4897,-2.4719,-2.3953,-2.3149,-2.2787,-2.244,-2.2333,-2.2567,-2.2555,-2.2629,-2.286,-2.2847,-2.2882,-2.2907,-2.3085,-2.3238,-2.3467,-2.3917,-2.4478,-2.5005,-2.5453,-2.5798,-2.5798,-2.5522,-2.5397,-2.5772,-2.5592,-2.5689,-2.591,-2.6311,-2.6283,-2.5715,-2.5437,-2.538,-2.5658,-2.6082,-2.6418,-2.6683,-2.6982,-2.6983,-2.7208,-2.7715,-2.8039,-2.8247,-2.8296,-2.8345,-2.8363,-2.8508,-2.8668,-2.8951,-2.9645,-3.014,-3.0435,-3.0781,-3.0918,-3.1055,-3.1151,-3.123,-3.1291,-3.1312,-3.1406,-1.1094,-1.1094,-1.1262,-1.1267,-1.1267,-1.1267,-1.1267,-1.1359,-1.1543,-1.1618,-1.1607,-1.1791,-1.1866,-1.1757,-1.2277,-1.2923,-1.3937,-1.5106,-1.6305,-1.7186,-1.7504,-1.7211,-1.6783,-1.67,-1.6731,-1.6828,-1.7581,-1.7711,-1.7563,-1.798,-1.8074,-1.8034,-1.7918,-1.8,-1.8026,-1.7523,-1.7456,-1.7942,-1.787,-1.787,-1.804,-1.846,-1.8772,-1.9002,-1.9311,-1.9784,-2.0255,-2.1041,-2.1873,-2.2703,-2.3604,-2.4212,-2.4284,-2.4908,-2.5453,-2.566,-2.4621,-2.3745,-2.3426,-2.2911,-2.269,-2.28,-2.2848,-2.2969,-2.3078,-2.3113,-2.3088,-2.3062,-2.3233,-2.3403,-2.3595,-2.3923,-2.4305,-2.465,-2.4948,-2.5131,-2.5244,-2.5118,-2.5159,-2.5326,-2.5341,-2.5092,-2.5204,-2.5813,-2.5896,-2.5563,-2.5217,-2.5341,-2.5549,-2.6094,-2.6418,-2.6525,-2.675,-2.6834,-2.696,-2.7393,-2.7989,-2.8247,-2.8711,-2.8711,-2.8587,-2.8715,-2.8779,-2.8997,-2.9733,-3.0251,-3.046,-3.0683,-3.0942,-3.1078,-3.1213,-3.1308,-3.1368,-3.1389,-3.1483,-1.1094,-1.1267,-1.1267,-1.1267,-1.1267,-1.1267,-1.1348,-1.144,-1.1819,-1.1974,-1.2112,-1.2472,-1.2448,-1.2413,-1.3197,-1.3931,-1.3981,-1.5959,-1.7094,-1.775,-1.7932,-1.764,-1.704,-1.673,-1.7012,-1.7434,-1.7343,-1.7789,-1.8227,-1.8559,-1.8862,-1.8819,-1.8516,-1.8477,-1.8348,-1.7843,-1.7554,-1.7861,-1.7951,-1.804,-1.8201,-1.8612,-1.9002,-1.939,-1.9784,-2.0177,-2.0566,-2.1118,-2.1665,-2.2176,-2.3394,-2.3931,-2.4235,-2.5028,-2.5639,-2.599,-2.512,-2.4196,-2.3966,-2.3429,-2.3078,-2.3078,-2.3078,-2.3125,-2.3125,-2.3173,-2.3195,-2.3217,-2.3458,-2.3569,-2.37,-2.4028,-2.4247,-2.4363,-2.4408,-2.4593,-2.4835,-2.4892,-2.4881,-2.494,-2.5134,-2.4846,-2.4723,-2.4928,-2.556,-2.5397,-2.5191,-2.5425,-2.5563,-2.5851,-2.6002,-2.5907,-2.6233,-2.6674,-2.687,-2.7093,-2.7705,-2.8247,-2.8933,-2.9107,-2.8778,-2.8763,-2.8748,-2.9044,-2.9617,-2.9995,-3.0192,-3.046,-3.0885,-3.1196,-3.1385,-3.1479,-3.1517,-3.1483,-3.1521,-1.0824,-1.1267,-1.1267,-1.1267,-1.1267,-1.1267,-1.1521,-1.186,-1.1997,-1.2324,-1.2534,-1.265,-1.2747,-1.2699,-1.3464,-1.4226,-1.5205,-1.6594,-1.7597,-1.8643,-1.8864,-1.8499,-1.7808,-1.7212,-1.7016,-1.7597,-1.8447,-1.8486,-1.8397,-1.9412,-1.9659,-1.8968,-1.9057,-1.8887,-1.887,-1.8262,-1.7951,-1.8282,-1.8201,-1.8273,-1.8612,-1.9002,-1.939,-1.9775,-2.0255,-2.0489,-2.0576,-2.0896,-2.1061,-2.1415,-2.2199,-2.3519,-2.4449,-2.498,-2.5572,-2.6002,-2.5407,-2.4616,-2.4417,-2.374,-2.3138,-2.3138,-2.3138,-2.3198,-2.333,-2.3403,-2.3437,-2.3484,-2.3654,-2.3785,-2.3819,-2.3995,-2.4157,-2.4157,-2.4216,-2.4261,-2.4287,-2.4345,-2.4363,-2.4363,-2.4478,-2.4478,-2.4697,-2.4509,-2.4869,-2.5034,-2.5369,-2.5564,-2.5661,-2.5784,-2.5798,-2.5812,-2.6125,-2.6539,-2.6558,-2.6909,-2.7605,-2.8301,-2.9061,-2.95,-2.917,-2.8982,-2.9029,-2.9198,-2.9499,-2.9793,-3.0064,-3.0502,-3.0958,-3.1252,-3.15,-3.1538,-3.1576,-3.1559,-3.1765,-1.0824,-1.0921,-1.1292,-1.1515,-1.1532,-1.1894,-1.2048,-1.2284,-1.2641,-1.2936,-1.3052,-1.3256,-1.3353,-1.3392,-1.3828,-1.4831,-1.6488,-1.7612,-1.8539,-1.9148,-1.9257,-1.9069,-1.8588,-1.8017,-1.7825,-1.8213,-1.8652,-1.8878,-1.9417,-2.0093,-2.0574,-1.9901,-1.9874,-1.9972,-1.9951,-1.9195,-1.9195,-1.9371,-1.9134,-1.9054,-1.9301,-1.9469,-2.002,-2.0411,-2.0722,-2.0867,-2.169,-2.1548,-2.1766,-2.2199,-2.2691,-2.2963,-2.3716,-2.4803,-2.5865,-2.6158,-2.5444,-2.4883,-2.4569,-2.3903,-2.3271,-2.3271,-2.333,-2.339,-2.345,-2.3569,-2.3543,-2.3662,-2.3806,-2.3962,-2.3995,-2.4054,-2.4112,-2.4112,-2.4216,-2.4274,-2.4319,-2.4319,-2.4332,-2.4403,-2.4576,-2.4788,-2.4805,-2.4641,-2.4797,-2.5286,-2.5564,-2.5757,-2.5812,-2.5893,-2.5948,-2.6016,-2.6272,-2.6428,-2.6366,-2.6748,-2.7493,-2.834,-2.9232,-2.9601,-2.9595,-2.9457,-2.9412,-2.9486,-2.9515,-2.9837,-3.0123,-3.0576,-3.1038,-3.1445,-3.1688,-3.1671,-3.1671,-3.1688,-3.2002,-1.0926,-1.0619,-1.1393,-1.1749,-1.1904,-1.2473,-1.2672,-1.268,-1.3397,-1.354,-1.3574,-1.3913,-1.399,-1.4095,-1.4325,-1.5646,-1.7502,-1.8787,-1.9499,-1.9566,-1.9612,-1.9414,-1.9018,-1.8891,-1.8826,-1.9177,-1.8966,-1.9261,-1.965,-2.0721,-2.081,-2.083,-2.0968,-2.082,-2.0896,-2.0372,-1.9904,-1.9923,-1.9608,-1.952,-1.9678,-1.9775,-2.0333,-2.0886,-2.0886,-2.1318,-2.2124,-2.2349,-2.2553,-2.3661,-2.3963,-2.3162,-2.2889,-2.4284,-2.6452,-2.6414,-2.5435,-2.4895,-2.4696,-2.3977,-2.3403,-2.339,-2.3509,-2.3628,-2.3616,-2.3649,-2.3695,-2.3754,-2.391,-2.4125,-2.4171,-2.4216,-2.4216,-2.4274,-2.4478,-2.458,-2.458,-2.4567,-2.4734,-2.4775,-2.4818,-2.5003,-2.5172,-2.516,-2.5342,-2.5522,-2.5757,-2.5976,-2.599,-2.603,-2.6085,-2.6312,-2.651,-2.7004,-2.7056,-2.6724,-2.7458,-2.8451,-2.9414,-2.9656,-2.9819,-2.9742,-2.9592,-2.9457,-2.9531,-2.9897,-3.0225,-3.0601,-3.1061,-3.1596,-3.18,-3.1763,-3.1763,-3.18,-3.2179,-1.084,-1.1535,-1.1804,-1.2116,-1.2275,-1.2586,-1.2954,-1.3218,-1.3414,-1.3698,-1.3919,-1.4082,-1.4088,-1.4318,-1.4956,-1.6473,-1.829,-1.9468,-2.0039,-2.003,-1.9943,-1.9594,-1.9276,-1.941,-1.9431,-1.9357,-1.9281,-1.8868,-1.8709,-1.9743,-2.0752,-2.0177,-2.0713,-2.1225,-2.0974,-2.0157,-1.9991,-2.0148,-1.9766,-1.9608,-1.9844,-2.0079,-2.0479,-2.1098,-2.1108,-2.1624,-2.2274,-2.2574,-2.2936,-2.3745,-2.4636,-2.4448,-2.406,-2.4979,-2.5861,-2.609,-2.5435,-2.4885,-2.4797,-2.4063,-2.3564,-2.3509,-2.3616,-2.3688,-2.3806,-2.3793,-2.3839,-2.3969,-2.4099,-2.4229,-2.4408,-2.4421,-2.4593,-2.4708,-2.4835,-2.4892,-2.4935,-2.5118,-2.5215,-2.5199,-2.5172,-2.5215,-2.541,-2.5661,-2.5897,-2.6106,-2.6357,-2.6341,-2.6283,-2.6266,-2.625,-2.6515,-2.6811,-2.7399,-2.7917,-2.7406,-2.7529,-2.8607,-2.943,-2.972,-2.9883,-2.9907,-2.9786,-2.971,-2.9782,-3.007,-3.0393,-3.0683,-3.11,-3.1634,-3.1763,-3.18,-3.1837,-3.1873,-3.2179,-1.1492,-1.1593,-1.2397,-1.2762,-1.2857,-1.3303,-1.3467,-1.3639,-1.3841,-1.4017,-1.407,-1.4095,-1.4182,-1.4559,-1.5433,-1.7085,-1.8838,-1.9833,-2.0172,-1.9979,-1.9813,-1.9614,-1.9406,-1.9685,-1.9665,-1.977,-1.9931,-1.991,-1.925,-2.0411,-2.1021,-2.1242,-2.1624,-2.1928,-2.2004,-2.1766,-2.1298,-2.1221,-2.1001,-2.0924,-2.1068,-2.1242,-2.1548,-2.2059,-2.2145,-2.2734,-2.3829,-2.3829,-2.4337,-2.5134,-2.5664,-2.566,-2.5542,-2.5624,-2.6094,-2.6276,-2.5514,-2.4949,-2.4887,-2.4198,-2.3739,-2.3772,-2.3806,-2.3865,-2.3936,-2.3982,-2.3995,-2.4125,-2.4469,-2.45,-2.4523,-2.4637,-2.4821,-2.5005,-2.5131,-2.5244,-2.53,-2.5522,-2.5605,-2.5592,-2.5564,-2.5633,-2.5883,-2.6147,-2.6427,-2.6666,-2.6933,-2.6861,-2.6635,-2.6797,-2.6877,-2.7074,-2.7498,-2.7976,-2.8788,-2.895,-2.8372,-2.9139,-2.9742,-3.0032,-3.0097,-3.0179,-3.0152,-3.007,-3.0199,-3.0351,-3.0601,-3.0925,-3.1295,-3.1671,-3.1763,-3.18,-3.1891,-3.2018,-3.2335,-1.226,-1.1777,-1.301,-1.3355,-1.3334,-1.3888,-1.3995,-1.3879,-1.4171,-1.4289,-1.4148,-1.4294,-1.4527,-1.5182,-1.6477,-1.8102,-1.955,-2.0043,-2.0021,-1.9684,-1.9624,-1.9442,-1.9316,-1.9586,-1.9834,-1.9846,-2.0613,-2.1184,-2.0615,-2.1262,-2.1721,-2.1863,-2.2241,-2.2628,-2.2841,-2.2606,-2.3065,-2.299,-2.2841,-2.2767,-2.2777,-2.2692,-2.283,-2.3621,-2.3327,-2.3902,-2.5099,-2.5087,-2.537,-2.6025,-2.6383,-2.644,-2.6533,-2.6533,-2.6533,-2.6438,-2.5608,-2.5127,-2.4925,-2.4295,-2.3891,-2.3949,-2.3995,-2.4054,-2.4067,-2.4112,-2.4112,-2.4255,-2.4611,-2.4912,-2.4848,-2.4948,-2.5118,-2.5286,-2.5411,-2.5592,-2.5633,-2.5743,-2.5784,-2.5867,-2.5936,-2.6077,-2.6343,-2.6679,-2.7017,-2.7258,-2.7527,-2.7655,-2.7567,-2.7828,-2.7983,-2.801,-2.8258,-2.8679,-2.9529,-3.0862,-3.0354,-3.0273,-3.0577,-3.081,-3.0713,-3.0553,-3.0556,-3.065,-3.0601,-3.0764,-3.0965,-3.1083,-3.1372,-3.1634,-3.1763,-3.18,-3.1837,-3.2107,-3.2457,-1.3231,-1.2927,-1.3244,-1.3521,-1.366,-1.3952,-1.4103,-1.4083,-1.413,-1.4155,-1.4193,-1.4669,-1.5266,-1.6541,-1.858,-1.9493,-1.971,-2.0026,-2.007,-1.9462,-1.9316,-1.9102,-1.8853,-1.9522,-2.0,-2.0187,-2.0954,-2.0654,-2.0857,-2.17,-2.1928,-2.1918,-2.2531,-2.3001,-2.3001,-2.283,-2.2295,-2.2295,-2.2145,-2.2231,-2.2617,-2.282,-2.3106,-2.3316,-2.3683,-2.4264,-2.5312,-2.5382,-2.5734,-2.6383,-2.6521,-2.6521,-2.6521,-2.6658,-2.6777,-2.654,-2.5892,-2.5116,-2.5191,-2.4464,-2.3949,-2.4008,-2.4112,-2.4112,-2.4171,-2.4157,-2.4216,-2.4603,-2.4912,-2.5084,-2.5229,-2.5383,-2.5536,-2.5633,-2.5729,-2.5798,-2.5853,-2.605,-2.6118,-2.6008,-2.6036,-2.6428,-2.6764,-2.7201,-2.7555,-2.7812,-2.8054,-2.8254,-2.8494,-2.8752,-2.9229,-2.9307,-2.9108,-2.941,-3.0497,-3.1724,-3.1832,-3.1417,-3.145,-3.155,-3.1527,-3.1397,-3.13,-3.134,-3.1234,-3.1117,-3.1257,-3.1372,-3.1504,-3.1634,-3.1763,-3.18,-3.18,-3.2179,-3.2643,-1.4301,-1.376,-1.3922,-1.3952,-1.3906,-1.405,-1.4166,-1.4243,-1.4271,-1.4348,-1.4594,-1.5204,-1.6538,-1.8429,-2.0,-2.0492,-2.0631,-2.0752,-2.0238,-1.9428,-1.9239,-1.9134,-1.9235,-1.9792,-2.0381,-2.1071,-2.169,-2.2176,-2.1918,-2.2004,-2.2317,-2.2456,-2.2756,-2.3075,-2.315,-2.3065,-2.3054,-2.3128,-2.3213,-2.3287,-2.3434,-2.3728,-2.4082,-2.4276,-2.4719,-2.5229,-2.5664,-2.5955,-2.6107,-2.6465,-2.6521,-2.6496,-2.6483,-2.6633,-2.682,-2.7121,-2.6025,-2.5422,-2.5355,-2.4533,-2.4151,-2.4067,-2.4112,-2.4157,-2.4247,-2.4208,-2.4381,-2.4791,-2.5268,-2.5493,-2.5522,-2.5647,-2.5743,-2.5839,-2.5893,-2.595,-2.6048,-2.6343,-2.6483,-2.6302,-2.6259,-2.6875,-2.7539,-2.8368,-2.8684,-2.8698,-2.9073,-2.9464,-2.9584,-2.9702,-3.0232,-3.077,-3.0425,-3.0159,-3.1422,-3.2686,-3.2711,-3.2403,-3.2092,-3.2271,-3.245,-3.2404,-3.2268,-3.1975,-3.1759,-3.1671,-3.1627,-3.1579,-3.1671,-3.1709,-3.18,-3.1893,-3.1966,-3.2454,-3.293,-1.5252,-1.467,-1.4447,-1.4322,-1.428,-1.428,-1.4491,-1.4709,-1.4768,-1.4789,-1.5283,-1.6339,-1.8221,-2.0013,-2.0871,-2.148,-2.158,-2.1314,-2.0373,-1.966,-1.9335,-1.9462,-1.9684,-2.0241,-2.0984,-2.1809,-2.2111,-2.2531,-2.2767,-2.2777,-2.2767,-2.3075,-2.299,-2.3224,-2.3372,-2.3519,-2.3666,-2.3824,-2.397,-2.4127,-2.4345,-2.4706,-2.5052,-2.5394,-2.5828,-2.6188,-2.6452,-2.6452,-2.6465,-2.6465,-2.6521,-2.6564,-2.6526,-2.6756,-2.6764,-2.6814,-2.5936,-2.5456,-2.5156,-2.464,-2.423,-2.4112,-2.4216,-2.4319,-2.4465,-2.4372,-2.453,-2.5131,-2.5549,-2.5661,-2.5689,-2.5798,-2.5853,-2.5893,-2.5893,-2.5978,-2.616,-2.6554,-2.699,-2.7088,-2.7199,-2.7577,-2.8434,-2.9531,-2.9865,-2.9691,-3.0015,-3.0616,-3.0844,-3.0906,-3.1498,-3.2121,-3.2304,-3.1983,-3.2659,-3.3559,-3.3535,-3.3442,-3.3127,-3.3273,-3.3648,-3.3448,-3.3202,-3.2809,-3.2531,-3.2324,-3.2359,-3.209,-3.18,-3.1802,-3.1858,-3.2003,-3.2265,-3.2749,-3.3214,-1.6142,-1.5967,-1.467,-1.444,-1.4809,-1.4822,-1.5147,-1.5399,-1.556,-1.5591,-1.6111,-1.7898,-1.9267,-2.0501,-2.1742,-2.2102,-2.1239,-2.1229,-2.04,-1.9845,-1.9813,-2.0033,-2.0261,-2.0635,-2.1227,-2.1858,-2.2296,-2.2606,-2.2841,-2.3075,-2.3075,-2.3224,-2.3224,-2.3372,-2.3593,-2.374,-2.397,-2.4127,-2.42,-2.4429,-2.4718,-2.5064,-2.5382,-2.5828,-2.6176,-2.6452,-2.6521,-2.6521,-2.6521,-2.6521,-2.6589,-2.6701,-2.665,-2.696,-2.6902,-2.6218,-2.5896,-2.5478,-2.5031,-2.4523,-2.4217,-2.4157,-2.4305,-2.4478,-2.4694,-2.4878,-2.5118,-2.5425,-2.5758,-2.5869,-2.584,-2.5893,-2.5893,-2.5936,-2.6034,-2.6287,-2.6526,-2.6976,-2.7342,-2.7723,-2.8135,-2.8576,-2.9288,-3.0396,-3.0616,-3.0411,-3.1093,-3.1682,-3.2237,-3.2437,-3.301,-3.3579,-3.4154,-3.425,-3.4282,-3.4601,-3.4588,-3.4538,-3.4343,-3.4722,-3.5213,-3.4822,-3.4026,-3.4014,-3.3761,-3.3438,-3.3062,-3.2882,-3.2572,-3.2014,-3.1897,-3.2144,-3.2598,-3.319,-3.3578,-1.6101,-1.5784,-1.5127,-1.4926,-1.5109,-1.5109,-1.5168,-1.5326,-1.5533,-1.6372,-1.7454,-1.8816,-1.9883,-2.093,-2.1921,-2.2201,-2.1318,-2.1231,-2.0505,-2.0191,-2.0255,-2.0615,-2.0946,-2.1456,-2.2157,-2.2722,-2.2872,-2.2979,-2.3372,-2.3298,-2.3519,-2.3519,-2.3446,-2.353,-2.3751,-2.397,-2.4116,-2.4189,-2.4273,-2.4429,-2.4885,-2.5206,-2.5465,-2.5898,-2.6258,-2.6452,-2.6521,-2.6521,-2.6521,-2.6577,-2.6645,-2.6744,-2.6773,-2.7082,-2.6762,-2.5948,-2.56,-2.5322,-2.4962,-2.4439,-2.4184,-2.4376,-2.4465,-2.4624,-2.5005,-2.5063,-2.5287,-2.5564,-2.5854,-2.5909,-2.5921,-2.5893,-2.5907,-2.5992,-2.6202,-2.6512,-2.6975,-2.7468,-2.7949,-2.8477,-2.9126,-2.9705,-3.0396,-3.1264,-3.1205,-3.1219,-3.1977,-3.2718,-3.3145,-3.3563,-3.3901,-3.4284,-3.4757,-3.5044,-3.5024,-3.5295,-3.558,-3.5509,-3.5399,-3.5667,-3.5882,-3.5427,-3.4794,-3.4904,-3.4869,-3.4418,-3.4025,-3.3766,-3.335,-3.2669,-3.2353,-3.2311,-3.2898,-3.3577,-3.386,-1.6466,-1.6155,-1.5838,-1.5535,-1.531,-1.5296,-1.5405,-1.5533,-1.5748,-1.677,-1.8465,-1.9393,-2.0352,-2.1349,-2.2168,-2.2134,-2.1465,-2.116,-2.0719,-2.0625,-2.0934,-2.1385,-2.1842,-2.2435,-2.3021,-2.357,-2.3593,-2.3593,-2.3519,-2.3593,-2.3666,-2.374,-2.3666,-2.3751,-2.3897,-2.4127,-2.42,-2.4189,-2.4345,-2.4562,-2.5016,-2.5348,-2.5676,-2.6037,-2.6383,-2.6452,-2.6521,-2.6521,-2.6577,-2.6714,-2.6782,-2.6947,-2.7056,-2.7007,-2.6725,-2.6039,-2.5445,-2.5081,-2.4706,-2.4518,-2.4319,-2.4465,-2.4778,-2.5075,-2.5286,-2.5329,-2.5563,-2.577,-2.5907,-2.5893,-2.5893,-2.5893,-2.6104,-2.6245,-2.6469,-2.6807,-2.7595,-2.8189,-2.8732,-2.9217,-2.9817,-3.0216,-3.1129,-3.1841,-3.2206,-3.2176,-3.2461,-3.3093,-3.3543,-3.3968,-3.4267,-3.4643,-3.5011,-3.5228,-3.5379,-3.5723,-3.6031,-3.5922,-3.5848,-3.5985,-3.6027,-3.5739,-3.5786,-3.5889,-3.5727,-3.53,-3.5132,-3.5102,-3.4269,-3.3225,-3.3016,-3.2875,-3.3335,-3.395,-3.4016,-1.7351,-1.7291,-1.6907,-1.6342,-1.5598,-1.5562,-1.585,-1.6111,-1.6349,-1.7148,-1.8609,-2.0273,-2.1126,-2.1523,-2.2291,-2.2083,-2.145,-2.1222,-2.0957,-2.0956,-2.1548,-2.2059,-2.2521,-2.3128,-2.3632,-2.3627,-2.3683,-2.3677,-2.3666,-2.3677,-2.3824,-2.3897,-2.3897,-2.3959,-2.4189,-2.42,-2.42,-2.4261,-2.4562,-2.4981,-2.536,-2.5712,-2.5968,-2.6314,-2.6452,-2.6521,-2.6521,-2.6577,-2.6645,-2.6794,-2.7066,-2.7162,-2.7111,-2.7351,-2.6961,-2.6125,-2.5482,-2.4922,-2.4269,-2.4403,-2.4593,-2.4694,-2.5075,-2.5383,-2.555,-2.5688,-2.5811,-2.5893,-2.5893,-2.5893,-2.5893,-2.5936,-2.6202,-2.6595,-2.6821,-2.7328,-2.8163,-2.9083,-2.9676,-2.9911,-3.0084,-3.0497,-3.1519,-3.2382,-3.2996,-3.3193,-3.3198,-3.3475,-3.4016,-3.4495,-3.4857,-3.5454,-3.5866,-3.6219,-3.6446,-3.6414,-3.6483,-3.6387,-3.655,-3.6901,-3.7026,-3.7056,-3.7058,-3.7034,-3.717,-3.7251,-3.6881,-3.6552,-3.5612,-3.47,-3.3789,-3.3625,-3.4009,-3.4198,-3.421,-1.7287,-1.7065,-1.6744,-1.6308,-1.5857,-1.5827,-1.5777,-1.5908,-1.6567,-1.7804,-1.9335,-2.0573,-2.102,-2.1367,-2.1706,-2.1729,-2.1253,-2.0948,-2.0781,-2.1302,-2.209,-2.2552,-2.3014,-2.3553,-2.402,-2.3998,-2.397,-2.3982,-2.4055,-2.397,-2.397,-2.4116,-2.4127,-2.4116,-2.4273,-2.4345,-2.4467,-2.4397,-2.4791,-2.5431,-2.5951,-2.6029,-2.6107,-2.6452,-2.6521,-2.6521,-2.6521,-2.6658,-2.6794,-2.6875,-2.7201,-2.731,-2.7284,-2.7456,-2.7302,-2.6593,-2.5981,-2.5022,-2.4789,-2.4948,-2.5145,-2.5257,-2.5369,-2.5605,-2.5757,-2.5853,-2.5893,-2.5893,-2.5893,-2.5893,-2.5893,-2.5893,-2.6215,-2.6891,-2.7357,-2.8053,-2.8838,-2.9988,-3.069,-3.0675,-3.0719,-3.1853,-3.2928,-3.3477,-3.4018,-3.442,-3.4503,-3.4327,-3.4677,-3.5186,-3.5694,-3.6451,-3.6973,-3.7438,-3.7634,-3.7439,-3.7257,-3.7119,-3.7683,-3.8368,-3.8461,-3.8468,-3.8658,-3.8774,-3.9029,-3.9247,-3.8629,-3.8022,-3.7211,-3.6313,-3.522,-3.4197,-3.4123,-3.4222,-3.4191,-1.7218,-1.6989,-1.6847,-1.6624,-1.6327,-1.6104,-1.6034,-1.6335,-1.7504,-1.8868,-2.0163,-2.0796,-2.1243,-2.1529,-2.1589,-2.147,-2.1168,-2.1262,-2.1185,-2.1807,-2.2542,-2.3014,-2.3442,-2.3926,-2.4127,-2.4189,-2.4189,-2.42,-2.42,-2.42,-2.4189,-2.42,-2.4357,-2.4418,-2.4502,-2.4634,-2.479,-2.4814,-2.5289,-2.5832,-2.6173,-2.6288,-2.6245,-2.6452,-2.6521,-2.6521,-2.6533,-2.6671,-2.6863,-2.7011,-2.7214,-2.739,-2.7469,-2.7497,-2.7657,-2.7322,-2.6374,-2.5421,-2.5279,-2.5313,-2.5439,-2.5592,-2.5647,-2.5702,-2.5853,-2.5893,-2.5893,-2.5893,-2.5893,-2.5893,-2.5893,-2.5893,-2.6353,-2.7031,-2.7867,-2.857,-2.9493,-3.057,-3.1387,-3.1366,-3.1697,-3.3006,-3.443,-3.4681,-3.5101,-3.5481,-3.5811,-3.5695,-3.5578,-3.6122,-3.6683,-3.731,-3.786,-3.815,-3.8387,-3.8346,-3.8148,-3.7947,-3.8649,-3.9585,-3.9863,-3.9893,-4.0221,-4.042,-4.036,-4.0273,-4.0033,-3.943,-3.8169,-3.7202,-3.6303,-3.5347,-3.4457,-3.4278,-3.4327,-1.7326,-1.7375,-1.7523,-1.7384,-1.7026,-1.6783,-1.7016,-1.7853,-1.9195,-2.0103,-2.0614,-2.1649,-2.1934,-2.1995,-2.2124,-2.1822,-2.165,-2.2004,-2.208,-2.2381,-2.3191,-2.3483,-2.375,-2.4134,-2.4418,-2.4334,-2.4334,-2.4478,-2.4261,-2.4406,-2.4406,-2.4406,-2.4706,-2.4778,-2.4849,-2.4933,-2.5099,-2.5301,-2.5654,-2.6124,-2.6382,-2.6458,-2.6396,-2.6521,-2.6521,-2.6521,-2.6589,-2.6807,-2.6943,-2.7146,-2.7335,-2.7403,-2.7469,-2.7469,-2.7946,-2.7845,-2.6761,-2.6075,-2.5563,-2.555,-2.5647,-2.5798,-2.5853,-2.5893,-2.5893,-2.5893,-2.5893,-2.5962,-2.5962,-2.5962,-2.5948,-2.6184,-2.6434,-2.7305,-2.8239,-2.9104,-3.0063,-3.0964,-3.183,-3.2204,-3.2539,-3.3745,-3.5825,-3.6486,-3.6142,-3.6919,-3.7334,-3.7582,-3.7528,-3.7475,-3.7953,-3.8142,-3.8585,-3.8846,-3.9022,-3.9381,-3.9311,-3.9129,-3.978,-4.0563,-4.0888,-4.1233,-4.1373,-4.1486,-4.1383,-4.1114,-4.0485,-3.9682,-3.872,-3.7829,-3.7169,-3.5781,-3.4698,-3.4581,-3.455,-1.8079,-1.8326,-1.8175,-1.8313,-1.8729,-1.9291,-1.946,-1.9381,-1.9963,-2.0469,-2.1288,-2.1686,-2.1891,-2.185,-2.1773,-2.1624,-2.1772,-2.208,-2.2596,-2.318,-2.3841,-2.4315,-2.4653,-2.48,-2.4921,-2.4945,-2.4945,-2.4897,-2.4969,-2.4969,-2.4957,-2.5028,-2.5111,-2.5111,-2.5265,-2.5419,-2.5572,-2.5725,-2.605,-2.6295,-2.6458,-2.6477,-2.6521,-2.6521,-2.6521,-2.6521,-2.6658,-2.6875,-2.7092,-2.7214,-2.7403,-2.7469,-2.7469,-2.7497,-2.7749,-2.7872,-2.7171,-2.6555,-2.5939,-2.5798,-2.5798,-2.5893,-2.5893,-2.5893,-2.5893,-2.5893,-2.5893,-2.5948,-2.603,-2.6099,-2.6179,-2.6372,-2.6759,-2.7525,-2.8453,-2.9372,-3.0303,-3.1274,-3.2117,-3.2992,-3.334,-3.4961,-3.705,-3.7335,-3.7153,-3.8166,-3.8814,-3.9081,-3.918,-3.9058,-3.9067,-3.9208,-3.9577,-3.9846,-4.0438,-4.0858,-4.0623,-4.0517,-4.1088,-4.163,-4.2193,-4.2488,-4.2544,-4.2229,-4.1637,-4.1086,-4.0521,-3.9733,-3.8962,-3.8646,-3.7986,-3.6374,-3.5125,-3.5064,-3.4829,-1.8542,-1.8796,-1.8779,-1.9393,-2.0366,-2.1049,-2.1182,-2.0977,-2.0839,-2.1165,-2.1578,-2.1752,-2.1807,-2.1828,-2.1752,-2.1807,-2.2262,-2.2883,-2.339,-2.3986,-2.4647,-2.4968,-2.5302,-2.5337,-2.524,-2.5286,-2.5322,-2.5241,-2.5312,-2.5312,-2.5241,-2.5241,-2.5382,-2.5535,-2.5688,-2.5898,-2.6025,-2.6164,-2.6302,-2.6452,-2.6521,-2.6521,-2.6521,-2.6521,-2.6521,-2.6645,-2.6714,-2.6943,-2.7146,-2.7348,-2.7403,-2.7484,-2.7591,-2.7736,-2.8217,-2.8352,-2.7806,-2.7067,-2.6414,-2.602,-2.595,-2.5893,-2.5948,-2.6002,-2.5934,-2.5934,-2.592,-2.596,-2.6139,-2.6343,-2.6422,-2.6597,-2.7156,-2.7795,-2.8634,-2.9541,-3.0538,-3.1555,-3.2538,-3.3542,-3.4803,-3.6389,-3.7336,-3.7553,-3.8203,-3.9285,-3.9915,-4.0048,-4.0117,-4.0048,-4.0027,-4.0105,-4.0545,-4.0965,-4.149,-4.175,-4.1492,-4.1453,-4.2102,-4.2703,-4.3339,-4.3065,-4.2532,-4.2038,-4.1523,-4.0921,-4.0271,-3.9918,-3.9361,-3.9027,-3.8748,-3.7819,-3.6549,-3.5776,-3.5448,-1.892,-1.9012,-1.9455,-2.0464,-2.1655,-2.2031,-2.2301,-2.2532,-2.2072,-2.188,-2.1838,-2.1807,-2.1807,-2.1807,-2.1949,-2.2327,-2.2916,-2.3632,-2.4276,-2.4779,-2.5453,-2.5725,-2.5572,-2.5441,-2.5648,-2.5469,-2.5493,-2.5676,-2.5453,-2.5523,-2.5594,-2.5453,-2.5758,-2.5898,-2.6037,-2.6245,-2.6383,-2.6383,-2.6452,-2.6521,-2.6521,-2.6521,-2.6521,-2.6521,-2.6577,-2.6714,-2.6863,-2.7066,-2.7335,-2.7335,-2.7377,-2.7511,-2.7894,-2.8309,-2.8983,-2.8974,-2.8362,-2.7507,-2.6849,-2.6329,-2.6034,-2.6004,-2.6002,-2.6071,-2.6056,-2.5986,-2.5903,-2.6204,-2.6451,-2.6939,-2.7112,-2.7299,-2.7715,-2.8202,-2.8907,-2.9857,-3.0908,-3.2079,-3.334,-3.4301,-3.5268,-3.6818,-3.8048,-3.8265,-3.8193,-3.9825,-4.0429,-4.0395,-4.0429,-4.0412,-4.0619,-4.0649,-4.1087,-4.141,-4.1603,-4.1861,-4.2031,-4.2303,-4.2721,-4.2598,-4.2432,-4.2353,-4.2296,-4.159,-4.0866,-4.0513,-3.9993,-3.964,-3.938,-3.9175,-3.899,-3.9036,-3.8207,-3.6842,-3.5894,-1.9646,-2.0019,-2.0727,-2.128,-2.1788,-2.2373,-2.2847,-2.3029,-2.3292,-2.2751,-2.1977,-2.1828,-2.1904,-2.2012,-2.2488,-2.2927,-2.335,-2.4288,-2.4933,-2.537,-2.5955,-2.6176,-2.6164,-2.6025,-2.6102,-2.6183,-2.622,-2.6107,-2.6094,-2.6094,-2.6164,-2.6164,-2.6314,-2.6245,-2.6314,-2.6465,-2.6452,-2.6521,-2.6521,-2.6521,-2.6521,-2.6521,-2.6521,-2.6521,-2.6589,-2.6794,-2.6943,-2.7146,-2.7335,-2.7469,-2.7469,-2.7762,-2.8304,-2.894,-2.9352,-2.9411,-2.8834,-2.7945,-2.7299,-2.6793,-2.6594,-2.6281,-2.6207,-2.6193,-2.6136,-2.5997,-2.609,-2.6486,-2.6934,-2.7417,-2.7838,-2.8031,-2.8253,-2.8683,-2.9187,-3.0243,-3.1355,-3.272,-3.4083,-3.4802,-3.5654,-3.6939,-3.8265,-3.873,-3.8721,-3.8963,-3.9364,-3.9573,-3.9678,-3.9739,-4.0304,-4.0523,-4.1288,-4.1654,-4.1748,-4.1809,-4.1868,-4.2044,-4.2312,-4.2026,-4.1586,-4.1282,-4.1051,-4.0624,-4.0104,-3.9844,-3.9621,-3.9361,-3.9138,-3.9101,-3.9082,-3.9091,-3.8608,-3.7437,-3.647,-2.0011,-2.0374,-2.1436,-2.1919,-2.2246,-2.3363,-2.3877,-2.3843,-2.4277,-2.3859,-2.3041,-2.2828,-2.2787,-2.2788,-2.3185,-2.3751,-2.4032,-2.4874,-2.5453,-2.5955,-2.6213,-2.6383,-2.6521,-2.6584,-2.644,-2.6521,-2.6521,-2.6452,-2.6609,-2.6452,-2.6452,-2.6571,-2.6571,-2.6584,-2.6571,-2.6546,-2.6571,-2.6521,-2.6571,-2.6584,-2.6584,-2.6546,-2.6521,-2.6521,-2.6739,-2.6875,-2.7011,-2.7214,-2.7403,-2.7458,-2.7512,-2.7919,-2.8454,-2.914,-2.9505,-2.9406,-2.9017,-2.838,-2.7893,-2.7684,-2.7496,-2.7219,-2.7384,-2.7817,-2.707,-2.6886,-2.6308,-2.663,-2.7464,-2.8031,-2.8652,-2.8916,-2.9091,-2.9407,-2.9987,-3.0808,-3.2043,-3.3354,-3.3844,-3.3877,-3.5098,-3.6775,-3.7883,-3.8437,-3.8504,-3.8981,-3.9186,-3.9312,-3.9335,-3.9186,-3.9705,-4.0137,-4.0737,-4.1167,-4.1229,-4.1361,-4.1567,-4.1719,-4.1897,-4.1475,-4.0966,-4.029,-3.9751,-3.9695,-3.9584,-3.9361,-3.9138,-3.9101,-3.9101,-3.9101,-3.9101,-3.9082,-3.8507,-3.7894,-3.6891,-2.0382,-2.0645,-2.1774,-2.2482,-2.2833,-2.4392,-2.4955,-2.4791,-2.5158,-2.5194,-2.4902,-2.4515,-2.4435,-2.4243,-2.4277,-2.4786,-2.5242,-2.563,-2.6037,-2.6477,-2.6628,-2.6886,-2.6911,-2.6842,-2.6911,-2.6854,-2.6829,-2.6841,-2.6949,-2.6879,-2.6879,-2.6703,-2.6666,-2.6703,-2.6666,-2.6691,-2.6898,-2.6879,-2.6892,-2.6791,-2.6666,-2.6571,-2.6533,-2.6589,-2.6807,-2.6956,-2.7146,-2.7281,-2.7469,-2.7591,-2.7657,-2.8099,-2.8757,-2.9415,-2.9812,-2.9856,-2.9864,-2.9465,-2.9168,-2.9406,-2.9037,-2.8867,-2.9303,-2.9195,-2.8549,-2.7724,-2.7101,-2.7289,-2.8079,-2.8948,-2.9532,-2.9785,-2.9943,-3.0354,-3.0967,-3.1638,-3.2918,-3.4061,-3.3933,-3.3678,-3.5006,-3.6808,-3.7229,-3.7816,-3.8209,-3.8769,-3.913,-3.9319,-3.9316,-3.9078,-3.9167,-3.9343,-3.9602,-4.0005,-4.0595,-4.083,-4.1056,-4.1268,-4.1301,-4.0884,-4.0383,-3.9788,-3.9398,-3.9268,-3.912,-3.9101,-3.9101,-3.9101,-3.9101,-3.9101,-3.9101,-3.9045,-3.8692,-3.8024,-3.7132,-2.0645,-2.1257,-2.1863,-2.2736,-2.378,-2.4628,-2.5115,-2.567,-2.6052,-2.6467,-2.6703,-2.6662,-2.6345,-2.5321,-2.5946,-2.6382,-2.6392,-2.6524,-2.6809,-2.7303,-2.7258,-2.743,-2.7532,-2.7482,-2.772,-2.7682,-2.751,-2.7598,-2.7469,-2.7595,-2.7758,-2.7682,-2.7708,-2.7733,-2.7745,-2.7708,-2.7607,-2.7582,-2.7595,-2.7666,-2.7465,-2.7163,-2.6653,-2.6726,-2.6863,-2.7066,-2.7268,-2.7403,-2.7469,-2.763,-2.8011,-2.837,-2.9129,-3.0026,-3.0715,-3.1087,-3.1064,-3.0829,-3.0836,-3.1307,-3.1076,-3.091,-3.1305,-3.1455,-3.0464,-2.9103,-2.8667,-2.8455,-2.931,-3.0434,-3.0972,-3.0746,-3.0854,-3.1718,-3.2436,-3.3217,-3.4223,-3.4931,-3.5256,-3.5275,-3.5797,-3.6492,-3.656,-3.6947,-3.7134,-3.7644,-3.822,-3.8413,-3.8779,-3.8722,-3.8735,-3.8771,-3.8842,-3.9581,-4.0391,-4.0257,-4.0429,-4.0669,-4.0681,-4.0151,-3.9714,-3.9398,-3.9101,-3.9101,-3.9101,-3.9101,-3.9101,-3.9101,-3.9101,-3.9101,-3.9101,-3.899,-3.8692,-3.8172,-3.7281]}]]